Time,TemperatureF,DewpointF,PressureIn,WindDirection,WindDirectionDegrees,WindSpeedMPH,WindSpeedGustMPH,Humidity,HourlyPrecipIn,Conditions,Clouds,dailyrainin,SoftwareType,DateUTC
2013-09-22 00:01:00,56.3,46.3,29.94,West,264,0.0,0.0,69,0.00,,,0.00,WeatherDisplay:10.36,2013-09-22 05:01:00,
2013-09-22 00:02:00,56.3,46.3,29.94,West,263,0.0,0.0,69,0.00,,,0.00,WeatherDisplay:10.36,2013-09-22 05:02:00,
2013-09-22 00:03:00,56.3,46.3,29.94,WSW,239,0.0,0.0,69,0.00,,,0.00,WeatherDisplay:10.36,2013-09-22 05:03:00,
2013-09-22 00:04:00,56.3,46.3,29.94,West,261,0.0,0.0,69,0.00,,,0.00,WeatherDisplay:10.36,2013-09-22 05:04:00,
2013-09-22 00:05:00,56.3,46.6,29.94,ENE,73,0.0,0.0,70,0.00,,,0.00,WeatherDisplay:10.36,2013-09-22 05:05:00,
2013-09-22 00:06:00,56.3,46.6,29.94,ENE,76,0.0,0.0,70,0.00,,,0.00,WeatherDisplay:10.36,2013-09-22 05:06:00,
2013-09-22 00:08:00,56.3,46.6,29.94,East,80,0.0,0.0,70,0.00,,,0.00,WeatherDisplay:10.36,2013-09-22 05:08:00,
2013-09-22 00:09:00,56.3,46.6,29.94,NE,54,0.0,0.0,70,0.00,,,0.00,WeatherDisplay:10.36,2013-09-22 05:09:00,
2013-09-22 00:10:00,56.3,46.6,29.94,SSE,154,0.0,0.0,70,0.00,,,0.00,WeatherDisplay:10.36,2013-09-22 05:10:00,
2013-09-22 00:11:00,56.1,46.5,29.94,SSE,157,0.0,0.0,70,0.00,,,0.00,WeatherDisplay:10.36,2013-09-22 05:11:00,
2013-09-22 00:12:00,56.1,46.5,29.94,SSE,162,0.0,0.0,70,0.00,,,0.00,WeatherDisplay:10.36,2013-09-22 05:12:00,
2013-09-22 00:13:00,56.1,46.5,29.94,SSE,164,0.0,0.0,70,0.00,,,0.00,WeatherDisplay:10.36,2013-09-22 05:13:00,
2013-09-22 00:15:00,56.1,46.5,29.94,South,169,0.0,0.0,70,0.00,,,0.00,WeatherDisplay:10.36,2013-09-22 05:15:00,
2013-09-22 00:16:00,55.9,46.3,29.94,South,169,0.0,0.0,70,0.00,,,0.00,WeatherDisplay:10.36,2013-09-22 05:16:00,
2013-09-22 00:17:00,55.9,46.3,29.94,South,173,0.0,0.0,70,0.00,,,0.00,WeatherDisplay:10.36,2013-09-22 05:17:00,
2013-09-22 00:18:00,55.9,46.3,29.94,South,185,0.0,0.0,70,0.00,,,0.00,WeatherDisplay:10.36,2013-09-22 05:18:00,
2013-09-22 00:19:00,55.9,46.3,29.94,SSW,203,0.0,0.0,70,0.00,,,0.00,WeatherDisplay:10.36,2013-09-22 05:19:00,
2013-09-22 00:20:00,55.9,46.3,29.94,West,264,0.0,0.0,70,0.00,,,0.00,WeatherDisplay:10.36,2013-09-22 05:20:00,
2013-09-22 00:21:00,55.9,46.3,29.94,WSW,245,0.0,0.0,70,0.00,,,0.00,WeatherDisplay:10.36,2013-09-22 05:21:00,
2013-09-22 00:23:00,55.9,46.3,29.94,SW,217,0.0,0.0,70,0.00,,,0.00,WeatherDisplay:10.36,2013-09-22 05:23:00,
2013-09-22 00:24:00,55.8,46.1,29.94,SSW,195,0.0,0.0,70,0.00,,,0.00,WeatherDisplay:10.36,2013-09-22 05:24:00,
2013-09-22 00:25:00,55.8,46.5,29.94,SSW,199,0.0,0.0,71,0.00,,,0.00,WeatherDisplay:10.36,2013-09-22 05:25:00,
2013-09-22 00:26:00,55.8,46.5,29.94,SSW,202,0.0,0.0,71,0.00,,,0.00,WeatherDisplay:10.36,2013-09-22 05:26:00,
2013-09-22 00:27:00,55.8,46.5,29.94,SSW,205,0.0,0.0,71,0.00,,,0.00,WeatherDisplay:10.36,2013-09-22 05:27:00,
2013-09-22 00:28:00,55.8,46.5,29.94,SW,215,0.0,0.0,71,0.00,,,0.00,WeatherDisplay:10.36,2013-09-22 05:28:00,
2013-09-22 00:29:00,55.6,46.3,29.94,SSW,199,0.0,0.0,71,0.00,,,0.00,WeatherDisplay:10.36,2013-09-22 05:29:00,
2013-09-22 00:31:00,55.6,46.3,29.94,SSW,210,0.0,0.0,71,0.00,,,0.00,WeatherDisplay:10.36,2013-09-22 05:31:00,
2013-09-22 00:32:00,55.6,46.3,29.94,SSW,199,0.0,0.0,71,0.00,,,0.00,WeatherDisplay:10.36,2013-09-22 05:32:00,
2013-09-22 00:33:00,55.6,46.3,29.94,SSW,205,0.0,0.0,71,0.00,,,0.00,WeatherDisplay:10.36,2013-09-22 05:33:00,
2013-09-22 00:34:00,55.6,46.3,29.94,SW,214,0.0,0.0,71,0.00,,,0.00,WeatherDisplay:10.36,2013-09-22 05:34:00,
2013-09-22 00:35:00,55.6,46.3,29.94,South,191,0.0,0.0,71,0.00,,,0.00,WeatherDisplay:10.36,2013-09-22 05:35:00,
2013-09-22 00:36:00,55.4,46.2,29.94,SSW,208,0.0,0.0,71,0.00,,,0.00,WeatherDisplay:10.36,2013-09-22 05:36:00,
2013-09-22 00:38:00,55.4,46.2,29.94,SSW,195,0.0,0.0,71,0.00,,,0.00,WeatherDisplay:10.36,2013-09-22 05:38:00,
2013-09-22 00:39:00,55.4,46.2,29.94,South,179,0.0,0.0,71,0.00,,,0.00,WeatherDisplay:10.36,2013-09-22 05:39:00,
2013-09-22 00:40:00,55.4,46.2,29.94,SSW,194,0.0,0.0,71,0.00,,,0.00,WeatherDisplay:10.36,2013-09-22 05:40:00,
2013-09-22 00:41:00,55.4,46.2,29.94,SSW,209,0.0,0.0,71,0.00,,,0.00,WeatherDisplay:10.36,2013-09-22 05:41:00,
2013-09-22 00:42:00,55.4,46.2,29.94,SSW,203,0.0,0.0,71,0.00,,,0.00,WeatherDisplay:10.36,2013-09-22 05:42:00,
2013-09-22 00:43:00,55.2,46.0,29.94,SSW,204,0.0,0.0,71,0.00,,,0.00,WeatherDisplay:10.36,2013-09-22 05:43:00,
2013-09-22 00:44:00,55.2,46.0,29.94,SSW,193,0.0,0.0,71,0.00,,,0.00,WeatherDisplay:10.36,2013-09-22 05:44:00,
2013-09-22 00:46:00,55.2,46.0,29.94,East,91,0.0,0.0,71,0.00,,,0.00,WeatherDisplay:10.36,2013-09-22 05:46:00,
2013-09-22 00:47:00,55.2,46.0,29.94,East,80,0.0,0.0,71,0.00,,,0.00,WeatherDisplay:10.36,2013-09-22 05:47:00,
2013-09-22 00:48:00,55.2,46.0,29.94,ENE,75,0.0,0.0,71,0.00,,,0.00,WeatherDisplay:10.36,2013-09-22 05:48:00,
2013-09-22 00:49:00,55.0,45.8,29.94,ENE,75,0.0,0.0,71,0.00,,,0.00,WeatherDisplay:10.36,2013-09-22 05:49:00,
2013-09-22 00:50:00,55.0,45.8,29.94,ENE,75,0.0,0.0,71,0.00,,,0.00,WeatherDisplay:10.36,2013-09-22 05:50:00,
2013-09-22 00:51:00,55.0,45.8,29.94,ENE,75,0.0,0.0,71,0.00,,,0.00,WeatherDisplay:10.36,2013-09-22 05:51:00,
2013-09-22 00:52:00,55.0,45.8,29.94,ENE,72,0.0,0.0,71,0.00,,,0.00,WeatherDisplay:10.36,2013-09-22 05:52:00,
2013-09-22 00:54:00,55.0,46.2,29.94,ENE,72,0.0,0.0,72,0.00,,,0.00,WeatherDisplay:10.36,2013-09-22 05:54:00,
2013-09-22 00:55:00,55.0,46.2,29.94,ENE,72,0.0,0.0,72,0.00,,,0.00,WeatherDisplay:10.36,2013-09-22 05:55:00,
2013-09-22 00:56:00,55.0,46.2,29.94,ENE,73,0.0,0.0,72,0.00,,,0.00,WeatherDisplay:10.36,2013-09-22 05:56:00,
2013-09-22 00:57:00,55.0,46.2,29.94,ENE,72,0.0,0.0,72,0.00,,,0.00,WeatherDisplay:10.36,2013-09-22 05:57:00,
2013-09-22 00:58:00,54.9,46.0,29.94,ENE,74,0.0,0.0,72,0.00,,,0.00,WeatherDisplay:10.36,2013-09-22 05:58:00,
2013-09-22 00:59:00,54.9,46.0,29.94,ENE,73,0.0,0.0,72,0.00,,,0.00,WeatherDisplay:10.36,2013-09-22 05:59:00,
2013-09-22 01:00:00,54.9,46.0,29.94,ENE,73,0.0,0.0,72,0.00,,,0.00,WeatherDisplay:10.36,2013-09-22 06:00:00,
2013-09-22 01:02:00,54.9,46.0,29.94,ENE,74,0.0,0.0,72,0.00,,,0.00,WeatherDisplay:10.36,2013-09-22 06:02:00,
2013-09-22 01:03:00,54.9,46.0,29.94,ENE,74,0.0,0.0,72,0.00,,,0.00,WeatherDisplay:10.36,2013-09-22 06:03:00,
2013-09-22 01:04:00,54.7,45.8,29.94,ENE,73,0.0,0.0,72,0.00,,,0.00,WeatherDisplay:10.36,2013-09-22 06:04:00,
2013-09-22 01:05:00,54.7,45.8,29.94,ENE,72,0.0,0.0,72,0.00,,,0.00,WeatherDisplay:10.36,2013-09-22 06:05:00,
2013-09-22 01:06:00,54.7,45.8,29.94,ENE,72,0.0,0.0,72,0.00,,,0.00,WeatherDisplay:10.36,2013-09-22 06:06:00,
2013-09-22 01:07:00,54.7,45.8,29.94,ENE,75,0.0,0.0,72,0.00,,,0.00,WeatherDisplay:10.36,2013-09-22 06:07:00,
2013-09-22 01:09:00,54.5,45.7,29.94,ENE,75,0.0,0.0,72,0.00,,,0.00,WeatherDisplay:10.36,2013-09-22 06:09:00,
2013-09-22 01:10:00,54.5,45.7,29.94,ENE,73,0.0,0.0,72,0.00,,,0.00,WeatherDisplay:10.36,2013-09-22 06:10:00,
2013-09-22 01:11:00,54.5,45.7,29.94,ENE,71,0.0,0.0,72,0.00,,,0.00,WeatherDisplay:10.36,2013-09-22 06:11:00,
2013-09-22 01:12:00,54.5,45.7,29.94,ENE,71,0.0,0.0,72,0.00,,,0.00,WeatherDisplay:10.36,2013-09-22 06:12:00,
2013-09-22 01:13:00,54.5,45.7,29.94,ENE,69,0.0,0.0,72,0.00,,,0.00,WeatherDisplay:10.36,2013-09-22 06:13:00,
2013-09-22 01:14:00,54.5,46.0,29.94,ENE,72,0.0,0.0,73,0.00,,,0.00,WeatherDisplay:10.36,2013-09-22 06:14:00,
2013-09-22 01:15:00,54.5,46.0,29.94,ENE,69,0.0,0.0,73,0.00,,,0.00,WeatherDisplay:10.36,2013-09-22 06:15:00,
2013-09-22 01:17:00,54.5,46.0,29.94,ENE,70,0.0,0.0,73,0.00,,,0.00,WeatherDisplay:10.36,2013-09-22 06:17:00,
2013-09-22 01:18:00,54.5,46.0,29.94,ENE,71,0.0,0.0,73,0.00,,,0.00,WeatherDisplay:10.36,2013-09-22 06:18:00,
2013-09-22 01:19:00,54.5,46.0,29.94,ENE,69,0.0,0.0,73,0.00,,,0.00,WeatherDisplay:10.36,2013-09-22 06:19:00,
2013-09-22 01:20:00,54.5,46.0,29.94,ENE,70,0.0,0.0,73,0.00,,,0.00,WeatherDisplay:10.36,2013-09-22 06:20:00,
2013-09-22 01:21:00,54.3,45.8,29.94,ENE,69,0.0,0.0,73,0.00,,,0.00,WeatherDisplay:10.36,2013-09-22 06:21:00,
2013-09-22 01:22:00,54.3,45.8,29.94,ENE,69,0.0,0.0,73,0.00,,,0.00,WeatherDisplay:10.36,2013-09-22 06:22:00,
2013-09-22 01:24:00,54.3,45.8,29.94,ENE,68,0.0,0.0,73,0.00,,,0.00,WeatherDisplay:10.36,2013-09-22 06:24:00,
2013-09-22 01:25:00,54.3,45.8,29.94,ENE,67,0.0,0.0,73,0.00,,,0.00,WeatherDisplay:10.36,2013-09-22 06:25:00,
2013-09-22 01:26:00,54.3,45.8,29.94,ENE,67,0.0,0.0,73,0.00,,,0.00,WeatherDisplay:10.36,2013-09-22 06:26:00,
2013-09-22 01:27:00,54.3,45.8,29.94,ENE,66,0.0,0.0,73,0.00,,,0.00,WeatherDisplay:10.36,2013-09-22 06:27:00,
2013-09-22 01:28:00,54.3,45.8,29.94,ENE,67,0.0,0.0,73,0.00,,,0.00,WeatherDisplay:10.36,2013-09-22 06:28:00,
2013-09-22 01:29:00,54.3,45.8,29.94,ENE,67,0.0,0.0,73,0.00,,,0.00,WeatherDisplay:10.36,2013-09-22 06:29:00,
2013-09-22 01:30:00,54.3,45.8,29.94,ENE,66,0.0,0.0,73,0.00,,,0.00,WeatherDisplay:10.36,2013-09-22 06:30:00,
2013-09-22 01:32:00,54.3,45.8,29.94,ENE,66,0.0,0.0,73,0.00,,,0.00,WeatherDisplay:10.36,2013-09-22 06:32:00,
2013-09-22 01:33:00,54.3,45.8,29.94,ENE,66,0.0,0.0,73,0.00,,,0.00,WeatherDisplay:10.36,2013-09-22 06:33:00,
2013-09-22 01:34:00,54.3,45.8,29.94,ENE,66,0.0,0.0,73,0.00,,,0.00,WeatherDisplay:10.36,2013-09-22 06:34:00,
2013-09-22 01:35:00,54.3,45.8,29.94,ENE,66,0.0,0.0,73,0.00,,,0.00,WeatherDisplay:10.36,2013-09-22 06:35:00,
2013-09-22 01:36:00,54.3,45.8,29.94,ENE,65,0.0,0.0,73,0.00,,,0.00,WeatherDisplay:10.36,2013-09-22 06:36:00,
2013-09-22 01:37:00,54.3,45.8,29.94,ENE,66,0.0,0.0,73,0.00,,,0.00,WeatherDisplay:10.36,2013-09-22 06:37:00,
2013-09-22 01:38:00,54.3,45.8,29.94,ENE,65,0.0,0.0,73,0.00,,,0.00,WeatherDisplay:10.36,2013-09-22 06:38:00,
2013-09-22 01:40:00,54.1,45.7,29.94,ENE,64,0.0,0.0,73,0.00,,,0.00,WeatherDisplay:10.36,2013-09-22 06:40:00,
2013-09-22 01:41:00,54.1,45.7,29.94,ENE,67,0.0,0.0,73,0.00,,,0.00,WeatherDisplay:10.36,2013-09-22 06:41:00,
2013-09-22 01:42:00,54.1,46.0,29.94,ENE,65,0.0,0.0,74,0.00,,,0.00,WeatherDisplay:10.36,2013-09-22 06:42:00,
2013-09-22 01:43:00,54.1,46.0,29.94,ENE,65,0.0,0.0,74,0.00,,,0.00,WeatherDisplay:10.36,2013-09-22 06:43:00,
2013-09-22 01:44:00,54.1,46.0,29.94,ENE,66,0.0,0.0,74,0.00,,,0.00,WeatherDisplay:10.36,2013-09-22 06:44:00,
2013-09-22 01:45:00,54.1,46.0,29.94,ENE,63,0.0,0.0,74,0.00,,,0.00,WeatherDisplay:10.36,2013-09-22 06:45:00,
2013-09-22 01:46:00,54.1,46.0,29.94,ENE,66,0.0,0.0,74,0.00,,,0.00,WeatherDisplay:10.36,2013-09-22 06:46:00,
2013-09-22 01:48:00,54.1,46.0,29.94,ENE,65,0.0,0.0,74,0.00,,,0.00,WeatherDisplay:10.36,2013-09-22 06:48:00,
2013-09-22 01:49:00,54.1,46.0,29.94,ENE,66,0.0,0.0,74,0.00,,,0.00,WeatherDisplay:10.36,2013-09-22 06:49:00,
2013-09-22 01:50:00,54.1,46.0,29.94,ENE,66,0.0,0.0,74,0.00,,,0.00,WeatherDisplay:10.36,2013-09-22 06:50:00,
2013-09-22 01:51:00,54.1,46.0,29.94,ENE,66,0.0,0.0,74,0.00,,,0.00,WeatherDisplay:10.36,2013-09-22 06:51:00,
2013-09-22 01:52:00,54.0,45.9,29.94,ENE,64,0.0,0.0,74,0.00,,,0.00,WeatherDisplay:10.36,2013-09-22 06:52:00,
2013-09-22 01:53:00,54.0,45.9,29.94,ENE,66,0.0,0.0,74,0.00,,,0.00,WeatherDisplay:10.36,2013-09-22 06:53:00,
2013-09-22 01:54:00,54.0,45.9,29.94,ENE,66,0.0,0.0,74,0.00,,,0.00,WeatherDisplay:10.36,2013-09-22 06:54:00,
2013-09-22 01:56:00,54.0,45.9,29.94,ENE,64,0.0,0.0,74,0.00,,,0.00,WeatherDisplay:10.36,2013-09-22 06:56:00,
2013-09-22 01:57:00,54.0,45.9,29.94,ENE,64,0.0,0.0,74,0.00,,,0.00,WeatherDisplay:10.36,2013-09-22 06:57:00,
2013-09-22 01:58:00,54.0,45.9,29.94,ENE,64,0.0,0.0,74,0.00,,,0.00,WeatherDisplay:10.36,2013-09-22 06:58:00,
2013-09-22 01:59:00,54.0,45.9,29.94,ENE,67,0.0,0.0,74,0.00,,,0.00,WeatherDisplay:10.36,2013-09-22 06:59:00,
2013-09-22 02:00:00,54.0,45.9,29.94,ENE,65,0.0,0.0,74,0.00,,,0.00,WeatherDisplay:10.36,2013-09-22 07:00:00,
2013-09-22 02:01:00,54.0,45.9,29.94,ENE,63,0.0,0.0,74,0.00,,,0.00,WeatherDisplay:10.36,2013-09-22 07:01:00,
2013-09-22 02:02:00,53.8,45.7,29.94,ENE,63,0.0,0.0,74,0.00,,,0.00,WeatherDisplay:10.36,2013-09-22 07:02:00,
2013-09-22 02:04:00,53.8,45.7,29.94,ENE,60,0.0,0.0,74,0.00,,,0.00,WeatherDisplay:10.36,2013-09-22 07:04:00,
2013-09-22 02:05:00,53.8,45.7,29.94,ENE,62,0.0,0.0,74,0.00,,,0.00,WeatherDisplay:10.36,2013-09-22 07:05:00,
2013-09-22 02:06:00,53.8,45.7,29.94,ENE,62,0.0,0.0,74,0.00,,,0.00,WeatherDisplay:10.36,2013-09-22 07:06:00,
2013-09-22 02:07:00,53.8,45.7,29.94,ENE,62,0.0,0.0,74,0.00,,,0.00,WeatherDisplay:10.36,2013-09-22 07:07:00,
2013-09-22 02:08:00,53.8,45.7,29.94,ENE,62,0.0,0.0,74,0.00,,,0.00,WeatherDisplay:10.36,2013-09-22 07:08:00,
2013-09-22 02:09:00,53.8,45.7,29.94,ENE,61,0.0,0.0,74,0.00,,,0.00,WeatherDisplay:10.36,2013-09-22 07:09:00,
2013-09-22 02:10:00,53.8,45.7,29.94,ENE,61,0.0,0.0,74,0.00,,,0.00,WeatherDisplay:10.36,2013-09-22 07:10:00,
2013-09-22 02:12:00,53.8,45.7,29.94,ENE,61,0.0,0.0,74,0.00,,,0.00,WeatherDisplay:10.36,2013-09-22 07:12:00,
2013-09-22 02:13:00,53.6,45.5,29.94,ENE,64,0.0,0.0,74,0.00,,,0.00,WeatherDisplay:10.36,2013-09-22 07:13:00,
2013-09-22 02:14:00,53.6,45.5,29.94,ENE,63,0.0,0.0,74,0.00,,,0.00,WeatherDisplay:10.36,2013-09-22 07:14:00,
2013-09-22 02:15:00,53.6,45.5,29.94,ENE,63,0.0,0.0,74,0.00,,,0.00,WeatherDisplay:10.36,2013-09-22 07:15:00,
2013-09-22 02:16:00,53.6,45.5,29.94,ENE,61,0.0,0.0,74,0.00,,,0.00,WeatherDisplay:10.36,2013-09-22 07:16:00,
2013-09-22 02:17:00,53.6,45.5,29.94,ENE,62,0.0,0.0,74,0.00,,,0.00,WeatherDisplay:10.36,2013-09-22 07:17:00,
2013-09-22 02:18:00,53.6,45.5,29.94,ENE,60,0.0,0.0,74,0.00,,,0.00,WeatherDisplay:10.36,2013-09-22 07:18:00,
2013-09-22 02:19:00,53.6,45.5,29.94,ENE,57,0.0,0.0,74,0.00,,,0.00,WeatherDisplay:10.36,2013-09-22 07:19:00,
2013-09-22 02:21:00,53.6,45.5,29.94,ENE,57,0.0,0.0,74,0.00,,,0.00,WeatherDisplay:10.36,2013-09-22 07:21:00,
2013-09-22 02:22:00,53.4,45.3,29.94,NE,56,0.0,0.0,74,0.00,,,0.00,WeatherDisplay:10.36,2013-09-22 07:22:00,
2013-09-22 02:23:00,53.4,45.3,29.94,NE,56,0.0,0.0,74,0.00,,,0.00,WeatherDisplay:10.36,2013-09-22 07:23:00,
2013-09-22 02:24:00,53.4,45.3,29.94,ENE,57,0.0,0.0,74,0.00,,,0.00,WeatherDisplay:10.36,2013-09-22 07:24:00,
2013-09-22 02:25:00,53.4,45.3,29.94,NE,56,0.0,0.0,74,0.00,,,0.00,WeatherDisplay:10.36,2013-09-22 07:25:00,
2013-09-22 02:26:00,53.4,45.3,29.94,NE,56,0.0,0.0,74,0.00,,,0.00,WeatherDisplay:10.36,2013-09-22 07:26:00,
2013-09-22 02:27:00,53.4,45.3,29.94,NE,55,0.0,0.0,74,0.00,,,0.00,WeatherDisplay:10.36,2013-09-22 07:27:00,
2013-09-22 02:29:00,53.2,45.2,29.94,NE,56,0.0,0.0,74,0.00,,,0.00,WeatherDisplay:10.36,2013-09-22 07:29:00,
2013-09-22 02:30:00,53.2,45.2,29.94,NE,55,0.0,0.0,74,0.00,,,0.00,WeatherDisplay:10.36,2013-09-22 07:30:00,
2013-09-22 02:31:00,53.2,45.5,29.94,NE,55,0.0,0.0,75,0.00,,,0.00,WeatherDisplay:10.36,2013-09-22 07:31:00,
2013-09-22 02:32:00,53.2,45.5,29.94,NE,56,0.0,0.0,75,0.00,,,0.00,WeatherDisplay:10.36,2013-09-22 07:32:00,
2013-09-22 02:33:00,53.2,45.5,29.94,NE,56,0.0,0.0,75,0.00,,,0.00,WeatherDisplay:10.36,2013-09-22 07:33:00,
2013-09-22 02:34:00,53.2,45.5,29.94,NE,56,0.0,0.0,75,0.00,,,0.00,WeatherDisplay:10.36,2013-09-22 07:34:00,
2013-09-22 02:35:00,53.2,45.5,29.94,NE,54,0.0,0.0,75,0.00,,,0.00,WeatherDisplay:10.36,2013-09-22 07:35:00,
2013-09-22 02:36:00,53.2,45.5,29.94,NE,54,0.0,0.0,75,0.00,,,0.00,WeatherDisplay:10.36,2013-09-22 07:36:00,
2013-09-22 02:38:00,53.2,45.5,29.94,NE,54,0.0,0.0,75,0.00,,,0.00,WeatherDisplay:10.36,2013-09-22 07:38:00,
2013-09-22 02:39:00,53.1,45.3,29.94,NE,54,0.0,0.0,75,0.00,,,0.00,WeatherDisplay:10.36,2013-09-22 07:39:00,
2013-09-22 02:40:00,53.1,45.3,29.94,NE,55,0.0,0.0,75,0.00,,,0.00,WeatherDisplay:10.36,2013-09-22 07:40:00,
2013-09-22 02:41:00,53.1,45.3,29.94,NE,54,0.0,0.0,75,0.00,,,0.00,WeatherDisplay:10.36,2013-09-22 07:41:00,
2013-09-22 02:42:00,53.1,45.3,29.94,NE,55,0.0,0.0,75,0.00,,,0.00,WeatherDisplay:10.36,2013-09-22 07:42:00,
2013-09-22 02:43:00,53.1,45.3,29.94,NE,53,0.0,0.0,75,0.00,,,0.00,WeatherDisplay:10.36,2013-09-22 07:43:00,
2013-09-22 02:45:00,53.1,45.3,29.94,North,351,0.0,0.0,75,0.00,,,0.00,WeatherDisplay:10.36,2013-09-22 07:45:00,
2013-09-22 02:46:00,53.1,45.3,29.94,North,351,3.6,0.0,75,0.00,,,0.00,WeatherDisplay:10.36,2013-09-22 07:46:00,
2013-09-22 02:47:00,52.9,45.2,29.94,North,351,0.0,0.0,75,0.00,,,0.00,WeatherDisplay:10.36,2013-09-22 07:47:00,
2013-09-22 02:48:00,52.9,45.2,30.76,North,351,0.0,0.0,75,0.00,,,0.00,WeatherDisplay:10.36,2013-09-22 07:48:00,
2013-09-22 02:49:00,52.9,45.2,30.76,North,351,0.0,0.0,75,0.00,,,0.00,WeatherDisplay:10.36,2013-09-22 07:49:00,
2013-09-22 02:50:00,52.9,45.2,30.76,North,351,0.0,0.0,75,0.00,,,0.00,WeatherDisplay:10.36,2013-09-22 07:50:00,
2013-09-22 02:51:00,52.9,45.2,30.76,North,351,0.0,0.0,75,0.00,,,0.00,WeatherDisplay:10.36,2013-09-22 07:51:00,
2013-09-22 02:53:00,52.7,45.0,30.76,North,351,0.0,0.0,75,0.00,,,0.00,WeatherDisplay:10.36,2013-09-22 07:53:00,
2013-09-22 02:54:00,52.7,45.3,30.76,North,351,0.0,0.0,76,0.00,,,0.00,WeatherDisplay:10.36,2013-09-22 07:54:00,
2013-09-22 02:55:00,52.7,45.3,30.76,North,351,0.0,0.0,76,0.00,,,0.00,WeatherDisplay:10.36,2013-09-22 07:55:00,
2013-09-22 02:56:00,52.7,45.3,30.76,North,351,0.0,0.0,76,0.00,,,0.00,WeatherDisplay:10.36,2013-09-22 07:56:00,
2013-09-22 02:57:00,52.7,45.3,30.76,North,351,0.0,0.0,76,0.00,,,0.00,WeatherDisplay:10.36,2013-09-22 07:57:00,
2013-09-22 02:58:00,52.7,45.3,30.76,North,351,0.0,0.0,76,0.00,,,0.00,WeatherDisplay:10.36,2013-09-22 07:58:00,
2013-09-22 02:59:00,52.7,45.3,30.76,North,351,0.0,0.0,76,0.00,,,0.00,WeatherDisplay:10.36,2013-09-22 07:59:00,
2013-09-22 03:00:00,52.5,45.2,30.76,North,351,0.0,0.0,76,0.00,,,0.00,WeatherDisplay:10.36,2013-09-22 08:00:00,
2013-09-22 03:02:00,52.5,45.2,30.76,North,351,0.0,0.0,76,0.00,,,0.00,WeatherDisplay:10.36,2013-09-22 08:02:00,
2013-09-22 03:03:00,52.5,45.2,30.76,North,351,0.0,0.0,76,0.00,,,0.00,WeatherDisplay:10.36,2013-09-22 08:03:00,
2013-09-22 03:04:00,52.5,45.2,30.76,North,351,0.0,0.0,76,0.00,,,0.00,WeatherDisplay:10.36,2013-09-22 08:04:00,
2013-09-22 03:05:00,52.5,45.2,30.76,North,351,0.0,0.0,76,0.00,,,0.00,WeatherDisplay:10.36,2013-09-22 08:05:00,
2013-09-22 03:06:00,52.5,45.2,30.76,North,351,0.0,0.0,76,0.00,,,0.00,WeatherDisplay:10.36,2013-09-22 08:06:00,
2013-09-22 03:07:00,52.5,45.2,30.76,North,351,0.0,0.0,76,0.00,,,0.00,WeatherDisplay:10.36,2013-09-22 08:07:00,
2013-09-22 03:09:00,52.5,45.5,30.76,North,351,0.0,0.0,77,0.00,,,0.00,WeatherDisplay:10.36,2013-09-22 08:09:00,
2013-09-22 03:10:00,52.5,45.5,30.76,North,351,0.0,0.0,77,0.00,,,0.00,WeatherDisplay:10.36,2013-09-22 08:10:00,
2013-09-22 03:11:00,52.5,45.5,30.76,North,351,0.0,0.0,77,0.00,,,0.00,WeatherDisplay:10.36,2013-09-22 08:11:00,
2013-09-22 03:12:00,52.5,45.5,30.76,North,351,0.0,0.0,77,0.00,,,0.00,WeatherDisplay:10.36,2013-09-22 08:12:00,
2013-09-22 03:13:00,52.5,45.5,30.76,North,351,0.0,0.0,77,0.00,,,0.00,WeatherDisplay:10.36,2013-09-22 08:13:00,
2013-09-22 03:14:00,52.5,45.5,30.76,North,351,0.0,0.0,77,0.00,,,0.00,WeatherDisplay:10.36,2013-09-22 08:14:00,
2013-09-22 03:15:00,52.5,45.5,30.76,North,351,0.0,0.0,77,0.00,,,0.00,WeatherDisplay:10.36,2013-09-22 08:15:00,
2013-09-22 03:16:00,52.5,45.5,30.76,North,351,0.0,0.0,77,0.00,,,0.00,WeatherDisplay:10.36,2013-09-22 08:16:00,
2013-09-22 03:18:00,52.5,45.5,30.76,North,351,0.0,0.0,77,0.00,,,0.00,WeatherDisplay:10.36,2013-09-22 08:18:00,
2013-09-22 03:19:00,52.5,45.5,30.76,North,351,0.0,0.0,77,0.00,,,0.00,WeatherDisplay:10.36,2013-09-22 08:19:00,
2013-09-22 03:20:00,52.5,45.5,30.76,North,351,0.0,0.0,77,0.00,,,0.00,WeatherDisplay:10.36,2013-09-22 08:20:00,
2013-09-22 03:21:00,52.5,45.5,30.76,North,351,0.0,0.0,77,0.00,,,0.00,WeatherDisplay:10.36,2013-09-22 08:21:00,
2013-09-22 03:22:00,52.5,45.5,30.76,North,351,0.0,0.0,77,0.00,,,0.00,WeatherDisplay:10.36,2013-09-22 08:22:00,
2013-09-22 03:23:00,52.5,45.5,30.76,North,351,0.0,0.0,77,0.00,,,0.00,WeatherDisplay:10.36,2013-09-22 08:23:00,
2013-09-22 03:25:00,52.5,45.5,30.76,North,351,0.0,0.0,77,0.00,,,0.00,WeatherDisplay:10.36,2013-09-22 08:25:00,
2013-09-22 03:26:00,52.5,45.5,30.76,North,351,0.0,0.0,77,0.00,,,0.00,WeatherDisplay:10.36,2013-09-22 08:26:00,
2013-09-22 03:27:00,52.5,45.5,30.76,North,351,0.0,0.0,77,0.00,,,0.00,WeatherDisplay:10.36,2013-09-22 08:27:00,
2013-09-22 03:28:00,52.3,45.3,30.76,North,351,0.0,0.0,77,0.00,,,0.00,WeatherDisplay:10.36,2013-09-22 08:28:00,
2013-09-22 03:29:00,52.3,45.3,30.76,North,351,0.0,0.0,77,0.00,,,0.00,WeatherDisplay:10.36,2013-09-22 08:29:00,
2013-09-22 03:30:00,52.3,45.3,30.76,North,351,0.0,0.0,77,0.00,,,0.00,WeatherDisplay:10.36,2013-09-22 08:30:00,
2013-09-22 03:31:00,52.3,45.3,30.76,North,351,0.0,0.0,77,0.00,,,0.00,WeatherDisplay:10.36,2013-09-22 08:31:00,
2013-09-22 03:32:00,52.3,45.3,30.76,North,351,0.0,0.0,77,0.00,,,0.00,WeatherDisplay:10.36,2013-09-22 08:32:00,
2013-09-22 03:34:00,52.3,45.3,30.76,North,351,0.0,0.0,77,0.00,,,0.00,WeatherDisplay:10.36,2013-09-22 08:34:00,
2013-09-22 03:35:00,52.3,45.3,30.76,North,351,0.0,0.0,77,0.00,,,0.00,WeatherDisplay:10.36,2013-09-22 08:35:00,
2013-09-22 03:36:00,52.3,45.3,30.76,North,351,0.0,0.0,77,0.00,,,0.00,WeatherDisplay:10.36,2013-09-22 08:36:00,
2013-09-22 03:37:00,52.3,45.7,30.76,North,351,0.0,0.0,78,0.00,,,0.00,WeatherDisplay:10.36,2013-09-22 08:37:00,
2013-09-22 03:38:00,52.3,45.7,30.76,North,351,0.0,0.0,78,0.00,,,0.00,WeatherDisplay:10.36,2013-09-22 08:38:00,
2013-09-22 03:39:00,52.3,45.7,30.76,North,351,0.0,0.0,78,0.00,,,0.00,WeatherDisplay:10.36,2013-09-22 08:39:00,
2013-09-22 03:40:00,52.2,45.5,30.76,North,351,0.0,0.0,78,0.00,,,0.00,WeatherDisplay:10.36,2013-09-22 08:40:00,
2013-09-22 03:42:00,52.2,45.5,30.76,North,351,0.0,0.0,78,0.00,,,0.00,WeatherDisplay:10.36,2013-09-22 08:42:00,
2013-09-22 03:43:00,52.2,45.5,30.76,North,351,0.0,0.0,78,0.00,,,0.00,WeatherDisplay:10.36,2013-09-22 08:43:00,
2013-09-22 03:44:00,52.2,45.5,30.76,North,351,0.0,0.0,78,0.00,,,0.00,WeatherDisplay:10.36,2013-09-22 08:44:00,
2013-09-22 03:45:00,52.2,45.5,30.76,North,351,0.0,0.0,78,0.00,,,0.00,WeatherDisplay:10.36,2013-09-22 08:45:00,
2013-09-22 03:46:00,52.2,45.5,30.76,North,351,0.0,0.0,78,0.00,,,0.00,WeatherDisplay:10.36,2013-09-22 08:46:00,
2013-09-22 03:47:00,52.2,45.5,30.76,North,351,0.0,0.0,78,0.00,,,0.00,WeatherDisplay:10.36,2013-09-22 08:47:00,
2013-09-22 03:48:00,52.2,45.5,30.76,North,351,0.0,0.0,78,0.00,,,0.00,WeatherDisplay:10.36,2013-09-22 08:48:00,
2013-09-22 03:50:00,52.2,45.5,30.76,North,351,0.0,0.0,78,0.00,,,0.00,WeatherDisplay:10.36,2013-09-22 08:50:00,
2013-09-22 03:51:00,52.2,45.5,30.76,North,351,0.0,0.0,78,0.00,,,0.00,WeatherDisplay:10.36,2013-09-22 08:51:00,
2013-09-22 03:52:00,52.2,45.5,30.76,North,351,0.0,0.0,78,0.00,,,0.00,WeatherDisplay:10.36,2013-09-22 08:52:00,
2013-09-22 03:53:00,52.2,45.5,30.76,North,351,0.0,0.0,78,0.00,,,0.00,WeatherDisplay:10.36,2013-09-22 08:53:00,
2013-09-22 03:54:00,52.2,45.5,30.76,North,351,0.0,0.0,78,0.00,,,0.00,WeatherDisplay:10.36,2013-09-22 08:54:00,
2013-09-22 03:55:00,52.0,45.3,30.76,North,351,0.0,0.0,78,0.00,,,0.00,WeatherDisplay:10.36,2013-09-22 08:55:00,
2013-09-22 03:56:00,52.0,45.3,30.76,North,351,0.0,0.0,78,0.00,,,0.00,WeatherDisplay:10.36,2013-09-22 08:56:00,
2013-09-22 03:58:00,52.0,45.3,30.76,North,351,0.0,0.0,78,0.00,,,0.00,WeatherDisplay:10.36,2013-09-22 08:58:00,
2013-09-22 03:59:00,52.0,45.3,30.76,North,351,0.0,0.0,78,0.00,,,0.00,WeatherDisplay:10.36,2013-09-22 08:59:00,
2013-09-22 04:00:00,52.0,45.3,30.76,North,351,0.0,0.0,78,0.00,,,0.00,WeatherDisplay:10.36,2013-09-22 09:00:00,
2013-09-22 04:01:00,52.0,45.3,30.76,North,351,0.0,0.0,78,0.00,,,0.00,WeatherDisplay:10.36,2013-09-22 09:01:00,
2013-09-22 04:02:00,52.0,45.3,30.76,North,351,0.0,0.0,78,0.00,,,0.00,WeatherDisplay:10.36,2013-09-22 09:02:00,
2013-09-22 04:03:00,52.0,45.3,30.76,North,351,0.0,0.0,78,0.00,,,0.00,WeatherDisplay:10.36,2013-09-22 09:03:00,
2013-09-22 04:05:00,52.0,45.3,30.76,North,351,0.0,0.0,78,0.00,,,0.00,WeatherDisplay:10.36,2013-09-22 09:05:00,
2013-09-22 04:06:00,52.0,45.3,30.76,North,351,0.0,0.0,78,0.00,,,0.00,WeatherDisplay:10.36,2013-09-22 09:06:00,
2013-09-22 04:07:00,52.0,45.3,30.76,North,351,0.0,0.0,78,0.00,,,0.00,WeatherDisplay:10.36,2013-09-22 09:07:00,
2013-09-22 04:08:00,52.0,45.3,30.76,North,351,0.0,0.0,78,0.00,,,0.00,WeatherDisplay:10.36,2013-09-22 09:08:00,
2013-09-22 04:09:00,51.8,45.2,30.76,North,351,0.0,0.0,78,0.00,,,0.00,WeatherDisplay:10.36,2013-09-22 09:09:00,
2013-09-22 04:10:00,51.8,45.2,30.76,North,351,0.0,0.0,78,0.00,,,0.00,WeatherDisplay:10.36,2013-09-22 09:10:00,
2013-09-22 04:11:00,51.8,45.2,30.76,North,351,0.0,0.0,78,0.00,,,0.00,WeatherDisplay:10.36,2013-09-22 09:11:00,
2013-09-22 04:13:00,51.8,45.2,30.76,North,351,0.0,0.0,78,0.00,,,0.00,WeatherDisplay:10.36,2013-09-22 09:13:00,
2013-09-22 04:14:00,51.8,45.2,30.76,North,351,0.0,0.0,78,0.00,,,0.00,WeatherDisplay:10.36,2013-09-22 09:14:00,
2013-09-22 04:15:00,51.8,45.2,30.76,North,351,0.0,0.0,78,0.00,,,0.00,WeatherDisplay:10.36,2013-09-22 09:15:00,
2013-09-22 04:16:00,51.8,45.2,30.76,North,351,0.0,0.0,78,0.00,,,0.00,WeatherDisplay:10.36,2013-09-22 09:16:00,
2013-09-22 04:17:00,51.8,45.2,30.76,North,351,0.0,0.0,78,0.00,,,0.00,WeatherDisplay:10.36,2013-09-22 09:17:00,
2013-09-22 04:18:00,51.6,45.3,30.76,North,351,0.0,0.0,79,0.00,,,0.00,WeatherDisplay:10.36,2013-09-22 09:18:00,
2013-09-22 04:19:00,51.6,45.3,30.76,North,351,0.0,0.0,79,0.00,,,0.00,WeatherDisplay:10.36,2013-09-22 09:19:00,
2013-09-22 04:21:00,51.6,45.3,30.76,North,351,0.0,0.0,79,0.00,,,0.00,WeatherDisplay:10.36,2013-09-22 09:21:00,
2013-09-22 04:22:00,51.6,45.3,30.76,North,351,0.0,0.0,79,0.00,,,0.00,WeatherDisplay:10.36,2013-09-22 09:22:00,
2013-09-22 04:23:00,51.6,45.3,30.76,North,351,0.0,0.0,79,0.00,,,0.00,WeatherDisplay:10.36,2013-09-22 09:23:00,
2013-09-22 04:24:00,51.6,45.3,30.76,North,351,0.0,0.0,79,0.00,,,0.00,WeatherDisplay:10.36,2013-09-22 09:24:00,
2013-09-22 04:25:00,51.6,45.3,30.76,North,351,0.0,0.0,79,0.00,,,0.00,WeatherDisplay:10.36,2013-09-22 09:25:00,
2013-09-22 04:26:00,51.6,45.3,30.76,North,351,0.0,0.0,79,0.00,,,0.00,WeatherDisplay:10.36,2013-09-22 09:26:00,
2013-09-22 04:27:00,51.6,45.3,30.76,North,351,0.0,0.0,79,0.00,,,0.00,WeatherDisplay:10.36,2013-09-22 09:27:00,
2013-09-22 04:28:00,51.4,45.1,30.76,North,351,0.0,0.0,79,0.00,,,0.00,WeatherDisplay:10.36,2013-09-22 09:28:00,
2013-09-22 04:30:00,51.4,45.1,30.76,North,351,0.0,0.0,79,0.00,,,0.00,WeatherDisplay:10.36,2013-09-22 09:30:00,
2013-09-22 04:31:00,51.4,45.1,30.76,North,351,0.0,0.0,79,0.00,,,0.00,WeatherDisplay:10.36,2013-09-22 09:31:00,
2013-09-22 04:32:00,51.4,45.1,30.76,North,351,0.0,0.0,79,0.00,,,0.00,WeatherDisplay:10.36,2013-09-22 09:32:00,
2013-09-22 04:33:00,51.4,45.1,30.76,North,351,0.0,0.0,79,0.00,,,0.00,WeatherDisplay:10.36,2013-09-22 09:33:00,
2013-09-22 04:34:00,51.4,45.1,30.76,North,351,0.0,0.0,79,0.00,,,0.00,WeatherDisplay:10.36,2013-09-22 09:34:00,
2013-09-22 04:35:00,51.4,45.1,30.76,North,351,0.0,0.0,79,0.00,,,0.00,WeatherDisplay:10.36,2013-09-22 09:35:00,
2013-09-22 04:36:00,51.4,45.1,30.76,North,351,0.0,0.0,79,0.00,,,0.00,WeatherDisplay:10.36,2013-09-22 09:36:00,
2013-09-22 04:38:00,51.4,45.1,30.76,North,351,0.0,0.0,79,0.00,,,0.00,WeatherDisplay:10.36,2013-09-22 09:38:00,
2013-09-22 04:39:00,51.4,45.1,30.76,North,351,0.0,0.0,79,0.00,,,0.00,WeatherDisplay:10.36,2013-09-22 09:39:00,
2013-09-22 04:40:00,51.4,45.1,30.76,North,351,0.0,0.0,79,0.00,,,0.00,WeatherDisplay:10.36,2013-09-22 09:40:00,
2013-09-22 04:41:00,51.4,45.1,30.76,North,351,0.0,0.0,79,0.00,,,0.00,WeatherDisplay:10.36,2013-09-22 09:41:00,
2013-09-22 04:42:00,51.4,45.1,30.76,North,351,0.0,0.0,79,0.00,,,0.00,WeatherDisplay:10.36,2013-09-22 09:42:00,
2013-09-22 04:43:00,51.4,45.1,30.76,North,351,0.0,0.0,79,0.00,,,0.00,WeatherDisplay:10.36,2013-09-22 09:43:00,
2013-09-22 04:44:00,51.3,45.0,30.76,North,351,0.0,0.0,79,0.00,,,0.00,WeatherDisplay:10.36,2013-09-22 09:44:00,
2013-09-22 04:46:00,51.3,45.0,30.76,North,351,0.0,0.0,79,0.00,,,0.00,WeatherDisplay:10.36,2013-09-22 09:46:00,
2013-09-22 04:47:00,51.3,45.0,30.76,North,351,0.0,0.0,79,0.00,,,0.00,WeatherDisplay:10.36,2013-09-22 09:47:00,
2013-09-22 04:48:00,51.3,45.0,30.76,North,351,0.0,0.0,79,0.00,,,0.00,WeatherDisplay:10.36,2013-09-22 09:48:00,
2013-09-22 04:49:00,51.3,45.0,30.76,North,351,0.0,0.0,79,0.00,,,0.00,WeatherDisplay:10.36,2013-09-22 09:49:00,
2013-09-22 04:50:00,51.3,45.0,30.76,North,351,0.0,0.0,79,0.00,,,0.00,WeatherDisplay:10.36,2013-09-22 09:50:00,
2013-09-22 04:51:00,51.1,44.8,30.76,North,351,0.0,0.0,79,0.00,,,0.00,WeatherDisplay:10.36,2013-09-22 09:51:00,
2013-09-22 04:52:00,51.1,44.8,30.76,North,351,0.0,0.0,79,0.00,,,0.00,WeatherDisplay:10.36,2013-09-22 09:52:00,
2013-09-22 04:53:00,51.1,44.8,30.76,North,351,0.0,0.0,79,0.00,,,0.00,WeatherDisplay:10.36,2013-09-22 09:53:00,
2013-09-22 04:55:00,51.1,44.8,30.76,North,351,0.0,0.0,79,0.00,,,0.00,WeatherDisplay:10.36,2013-09-22 09:55:00,
2013-09-22 04:56:00,51.1,44.8,30.76,North,351,0.0,0.0,79,0.00,,,0.00,WeatherDisplay:10.36,2013-09-22 09:56:00,
2013-09-22 04:57:00,51.1,44.8,30.76,North,351,0.0,0.0,79,0.00,,,0.00,WeatherDisplay:10.36,2013-09-22 09:57:00,
2013-09-22 04:58:00,51.1,44.8,30.76,North,351,0.0,0.0,79,0.00,,,0.00,WeatherDisplay:10.36,2013-09-22 09:58:00,
2013-09-22 04:59:00,51.1,44.8,30.76,North,351,0.0,0.0,79,0.00,,,0.00,WeatherDisplay:10.36,2013-09-22 09:59:00,
2013-09-22 05:00:00,51.1,44.8,30.76,North,351,0.0,0.0,79,0.00,,,0.00,WeatherDisplay:10.36,2013-09-22 10:00:00,
2013-09-22 05:04:00,50.9,44.6,30.76,North,351,0.0,0.0,79,0.00,,,0.00,WeatherDisplay:10.36,2013-09-22 10:04:00,
2013-09-22 05:05:00,50.9,44.6,30.76,North,351,0.0,0.0,79,0.00,,,0.00,WeatherDisplay:10.36,2013-09-22 10:05:00,
2013-09-22 05:06:00,50.9,44.6,30.76,North,351,0.0,0.0,79,0.00,,,0.00,WeatherDisplay:10.36,2013-09-22 10:06:00,
2013-09-22 05:07:00,50.9,44.6,30.76,North,351,0.0,0.0,79,0.00,,,0.00,WeatherDisplay:10.36,2013-09-22 10:07:00,
2013-09-22 05:09:00,50.9,44.6,30.76,North,351,0.0,0.0,79,0.00,,,0.00,WeatherDisplay:10.36,2013-09-22 10:09:00,
2013-09-22 05:10:00,50.9,44.6,30.76,North,351,0.0,0.0,79,0.00,,,0.00,WeatherDisplay:10.36,2013-09-22 10:10:00,
2013-09-22 05:11:00,50.9,44.6,30.76,North,351,0.0,0.0,79,0.00,,,0.00,WeatherDisplay:10.36,2013-09-22 10:11:00,
2013-09-22 05:12:00,50.9,44.9,30.76,North,351,0.0,0.0,80,0.00,,,0.00,WeatherDisplay:10.36,2013-09-22 10:12:00,
2013-09-22 05:13:00,50.9,44.9,30.76,North,351,0.0,0.0,80,0.00,,,0.00,WeatherDisplay:10.36,2013-09-22 10:13:00,
2013-09-22 05:14:00,50.9,44.9,30.76,North,351,0.0,0.0,80,0.00,,,0.00,WeatherDisplay:10.36,2013-09-22 10:14:00,
2013-09-22 05:15:00,50.9,44.9,30.76,North,351,0.0,0.0,80,0.00,,,0.00,WeatherDisplay:10.36,2013-09-22 10:15:00,
2013-09-22 05:17:00,50.9,44.9,30.76,North,351,0.0,0.0,80,0.00,,,0.00,WeatherDisplay:10.36,2013-09-22 10:17:00,
2013-09-22 05:18:00,50.9,44.9,30.76,North,351,0.0,0.0,80,0.00,,,0.00,WeatherDisplay:10.36,2013-09-22 10:18:00,
2013-09-22 05:19:00,50.9,44.9,30.76,North,351,0.0,0.0,80,0.00,,,0.00,WeatherDisplay:10.36,2013-09-22 10:19:00,
2013-09-22 05:20:00,50.9,44.9,30.76,North,351,0.0,0.0,80,0.00,,,0.00,WeatherDisplay:10.36,2013-09-22 10:20:00,
2013-09-22 05:21:00,50.9,44.9,30.76,North,351,0.0,0.0,80,0.00,,,0.00,WeatherDisplay:10.36,2013-09-22 10:21:00,
2013-09-22 05:22:00,50.7,44.8,30.76,North,351,0.0,0.0,80,0.00,,,0.00,WeatherDisplay:10.36,2013-09-22 10:22:00,
2013-09-22 05:23:00,50.7,44.8,30.76,North,351,0.0,0.0,80,0.00,,,0.00,WeatherDisplay:10.36,2013-09-22 10:23:00,
2013-09-22 05:25:00,50.7,44.8,30.76,North,351,0.0,0.0,80,0.00,,,0.00,WeatherDisplay:10.36,2013-09-22 10:25:00,
2013-09-22 05:26:00,50.7,44.8,30.76,North,351,0.0,0.0,80,0.00,,,0.00,WeatherDisplay:10.36,2013-09-22 10:26:00,
2013-09-22 05:27:00,50.7,44.8,30.76,North,351,0.0,0.0,80,0.00,,,0.00,WeatherDisplay:10.36,2013-09-22 10:27:00,
2013-09-22 05:28:00,50.7,44.8,30.76,North,351,0.0,0.0,80,0.00,,,0.00,WeatherDisplay:10.36,2013-09-22 10:28:00,
2013-09-22 05:29:00,50.7,44.8,30.76,North,351,0.0,0.0,80,0.00,,,0.00,WeatherDisplay:10.36,2013-09-22 10:29:00,
2013-09-22 05:30:00,50.7,44.8,30.76,North,351,0.0,0.0,80,0.00,,,0.00,WeatherDisplay:10.36,2013-09-22 10:30:00,
2013-09-22 05:31:00,50.7,44.8,30.76,North,351,0.0,0.0,80,0.00,,,0.00,WeatherDisplay:10.36,2013-09-22 10:31:00,
2013-09-22 05:33:00,50.5,44.6,30.76,North,351,0.0,0.0,80,0.00,,,0.00,WeatherDisplay:10.36,2013-09-22 10:33:00,
2013-09-22 05:34:00,50.5,44.6,30.76,North,351,0.0,0.0,80,0.00,,,0.00,WeatherDisplay:10.36,2013-09-22 10:34:00,
2013-09-22 05:35:00,50.5,44.6,30.76,North,351,0.0,0.0,80,0.00,,,0.00,WeatherDisplay:10.36,2013-09-22 10:35:00,
2013-09-22 05:36:00,50.5,44.6,30.76,North,351,0.0,0.0,80,0.00,,,0.00,WeatherDisplay:10.36,2013-09-22 10:36:00,
2013-09-22 05:37:00,50.5,44.6,30.76,North,351,0.0,0.0,80,0.00,,,0.00,WeatherDisplay:10.36,2013-09-22 10:37:00,
2013-09-22 05:38:00,50.5,44.6,30.76,North,351,0.0,0.0,80,0.00,,,0.00,WeatherDisplay:10.36,2013-09-22 10:38:00,
2013-09-22 05:40:00,50.5,44.6,30.76,North,351,0.0,0.0,80,0.00,,,0.00,WeatherDisplay:10.36,2013-09-22 10:40:00,
2013-09-22 05:45:00,50.5,44.9,30.76,North,351,0.0,0.0,81,0.00,,,0.00,WeatherDisplay:10.36,2013-09-22 10:45:00,
2013-09-22 05:48:00,50.5,44.9,30.76,North,351,0.0,0.0,81,0.00,,,0.00,WeatherDisplay:10.36,2013-09-22 10:48:00,
2013-09-22 05:50:00,50.5,44.9,30.76,North,351,0.0,0.0,81,0.00,,,0.00,WeatherDisplay:10.36,2013-09-22 10:50:00,
2013-09-22 05:51:00,50.5,44.9,30.76,North,351,0.0,0.0,81,0.00,,,0.00,WeatherDisplay:10.36,2013-09-22 10:51:00,
2013-09-22 05:52:00,50.5,44.9,30.76,North,351,0.0,0.0,81,0.00,,,0.00,WeatherDisplay:10.36,2013-09-22 10:52:00,
2013-09-22 05:53:00,50.5,44.9,30.76,North,351,0.0,0.0,81,0.00,,,0.00,WeatherDisplay:10.36,2013-09-22 10:53:00,
2013-09-22 05:54:00,50.5,44.9,30.76,North,351,0.0,0.0,81,0.00,,,0.00,WeatherDisplay:10.36,2013-09-22 10:54:00,
2013-09-22 05:56:00,50.5,44.9,30.76,North,351,0.0,0.0,81,0.00,,,0.00,WeatherDisplay:10.36,2013-09-22 10:56:00,
2013-09-22 05:57:00,50.5,44.9,30.76,North,351,0.0,0.0,81,0.00,,,0.00,WeatherDisplay:10.36,2013-09-22 10:57:00,
2013-09-22 05:58:00,50.5,44.9,30.76,North,351,0.0,0.0,81,0.00,,,0.00,WeatherDisplay:10.36,2013-09-22 10:58:00,
2013-09-22 05:59:00,50.5,44.9,30.76,North,351,0.0,0.0,81,0.00,,,0.00,WeatherDisplay:10.36,2013-09-22 10:59:00,
2013-09-22 06:00:00,50.5,44.9,30.76,North,351,0.0,0.0,81,0.00,,,0.00,WeatherDisplay:10.36,2013-09-22 11:00:00,
2013-09-22 06:01:00,50.5,44.9,30.76,North,351,0.0,0.0,81,0.00,,,0.00,WeatherDisplay:10.36,2013-09-22 11:01:00,
2013-09-22 06:03:00,50.4,44.7,30.76,North,351,0.0,0.0,81,0.00,,,0.00,WeatherDisplay:10.36,2013-09-22 11:03:00,
2013-09-22 06:04:00,50.4,44.7,30.79,North,351,0.0,0.0,81,0.00,,,0.00,WeatherDisplay:10.36,2013-09-22 11:04:00,
2013-09-22 06:05:00,50.4,44.7,30.79,North,351,0.0,0.0,81,0.00,,,0.00,WeatherDisplay:10.36,2013-09-22 11:05:00,
2013-09-22 06:06:00,50.4,44.7,30.79,North,351,0.0,0.0,81,0.00,,,0.00,WeatherDisplay:10.36,2013-09-22 11:06:00,
2013-09-22 06:07:00,50.4,44.7,30.79,North,351,0.0,0.0,81,0.00,,,0.00,WeatherDisplay:10.36,2013-09-22 11:07:00,
2013-09-22 06:08:00,50.4,44.7,30.79,North,351,0.0,0.0,81,0.00,,,0.00,WeatherDisplay:10.36,2013-09-22 11:08:00,
2013-09-22 06:09:00,50.4,44.7,30.79,North,351,0.0,0.0,81,0.00,,,0.00,WeatherDisplay:10.36,2013-09-22 11:09:00,
2013-09-22 06:11:00,50.4,44.7,30.79,North,351,0.0,0.0,81,0.00,,,0.00,WeatherDisplay:10.36,2013-09-22 11:11:00,
2013-09-22 06:12:00,50.2,44.6,30.79,North,351,0.0,0.0,81,0.00,,,0.00,WeatherDisplay:10.36,2013-09-22 11:12:00,
2013-09-22 06:13:00,50.2,44.6,30.79,North,351,0.0,0.0,81,0.00,,,0.00,WeatherDisplay:10.36,2013-09-22 11:13:00,
2013-09-22 06:14:00,50.2,44.6,30.79,North,351,0.0,0.0,81,0.00,,,0.00,WeatherDisplay:10.36,2013-09-22 11:14:00,
2013-09-22 06:15:00,50.2,44.6,30.79,North,351,0.0,0.0,81,0.00,,,0.00,WeatherDisplay:10.36,2013-09-22 11:15:00,
2013-09-22 06:16:00,50.2,44.6,30.79,North,351,0.0,0.0,81,0.00,,,0.00,WeatherDisplay:10.36,2013-09-22 11:16:00,
2013-09-22 06:17:00,50.2,44.6,30.79,North,351,0.0,0.0,81,0.00,,,0.00,WeatherDisplay:10.36,2013-09-22 11:17:00,
2013-09-22 06:19:00,50.2,44.6,30.79,North,351,0.0,0.0,81,0.00,,,0.00,WeatherDisplay:10.36,2013-09-22 11:19:00,
2013-09-22 06:20:00,50.2,44.6,30.79,North,351,0.0,0.0,81,0.00,,,0.00,WeatherDisplay:10.36,2013-09-22 11:20:00,
2013-09-22 06:21:00,50.2,44.6,30.79,North,351,0.0,0.0,81,0.00,,,0.00,WeatherDisplay:10.36,2013-09-22 11:21:00,
2013-09-22 06:22:00,50.2,44.9,30.79,North,351,0.0,0.0,82,0.00,,,0.00,WeatherDisplay:10.36,2013-09-22 11:22:00,
2013-09-22 06:23:00,50.2,44.9,30.79,North,351,0.0,0.0,82,0.00,,,0.00,WeatherDisplay:10.36,2013-09-22 11:23:00,
2013-09-22 06:24:00,50.2,44.9,30.79,North,351,0.0,0.0,82,0.00,,,0.00,WeatherDisplay:10.36,2013-09-22 11:24:00,
2013-09-22 06:25:00,50.2,44.9,30.79,North,351,0.0,0.0,82,0.00,,,0.00,WeatherDisplay:10.36,2013-09-22 11:25:00,
2013-09-22 06:27:00,50.2,44.9,30.79,North,351,0.0,0.0,82,0.00,,,0.00,WeatherDisplay:10.36,2013-09-22 11:27:00,
2013-09-22 06:28:00,50.2,44.9,30.79,North,351,0.0,0.0,82,0.00,,,0.00,WeatherDisplay:10.36,2013-09-22 11:28:00,
2013-09-22 06:29:00,50.2,44.9,30.79,North,351,0.0,0.0,82,0.00,,,0.00,WeatherDisplay:10.36,2013-09-22 11:29:00,
2013-09-22 06:30:00,50.2,44.9,30.79,North,351,0.0,0.0,82,0.00,,,0.00,WeatherDisplay:10.36,2013-09-22 11:30:00,
2013-09-22 06:31:00,50.0,44.7,30.79,North,351,0.0,0.0,82,0.00,,,0.00,WeatherDisplay:10.36,2013-09-22 11:31:00,
2013-09-22 06:32:00,50.0,44.7,30.79,North,351,0.0,0.0,82,0.00,,,0.00,WeatherDisplay:10.36,2013-09-22 11:32:00,
2013-09-22 06:34:00,50.0,44.7,30.79,North,351,0.0,0.0,82,0.00,,,0.00,WeatherDisplay:10.36,2013-09-22 11:34:00,
2013-09-22 06:35:00,50.0,44.7,30.79,North,351,0.0,0.0,82,0.00,,,0.00,WeatherDisplay:10.36,2013-09-22 11:35:00,
2013-09-22 06:36:00,50.0,44.7,30.79,North,351,0.0,0.0,82,0.00,,,0.00,WeatherDisplay:10.36,2013-09-22 11:36:00,
2013-09-22 06:37:00,50.0,44.7,30.79,North,351,0.0,0.0,82,0.00,,,0.00,WeatherDisplay:10.36,2013-09-22 11:37:00,
2013-09-22 06:38:00,50.2,44.9,30.79,North,351,0.0,0.0,82,0.00,,,0.00,WeatherDisplay:10.36,2013-09-22 11:38:00,
2013-09-22 06:39:00,50.2,44.9,30.79,North,351,0.0,0.0,82,0.00,,,0.00,WeatherDisplay:10.36,2013-09-22 11:39:00,
2013-09-22 06:40:00,50.2,44.9,30.79,North,351,0.0,0.0,82,0.00,,,0.00,WeatherDisplay:10.36,2013-09-22 11:40:00,
2013-09-22 06:42:00,50.2,44.9,30.79,North,351,0.0,0.0,82,0.00,,,0.00,WeatherDisplay:10.36,2013-09-22 11:42:00,
2013-09-22 06:43:00,50.2,44.9,30.79,North,351,0.0,0.0,82,0.00,,,0.00,WeatherDisplay:10.36,2013-09-22 11:43:00,
2013-09-22 06:44:00,50.2,44.9,30.79,North,351,0.0,0.0,82,0.00,,,0.00,WeatherDisplay:10.36,2013-09-22 11:44:00,
2013-09-22 06:45:00,50.0,44.7,30.79,North,351,0.0,0.0,82,0.00,,,0.00,WeatherDisplay:10.36,2013-09-22 11:45:00,
2013-09-22 06:46:00,50.0,44.7,30.79,North,351,0.0,0.0,82,0.00,,,0.00,WeatherDisplay:10.36,2013-09-22 11:46:00,
2013-09-22 06:47:00,50.0,44.7,30.79,North,351,0.0,0.0,82,0.00,,,0.00,WeatherDisplay:10.36,2013-09-22 11:47:00,
2013-09-22 06:48:00,50.0,44.7,30.79,North,351,0.0,0.0,82,0.00,,,0.00,WeatherDisplay:10.36,2013-09-22 11:48:00,
2013-09-22 06:50:00,50.0,44.7,30.79,North,351,0.0,0.0,82,0.00,,,0.00,WeatherDisplay:10.36,2013-09-22 11:50:00,
2013-09-22 06:51:00,50.0,44.7,30.79,North,351,0.0,0.0,82,0.00,,,0.00,WeatherDisplay:10.36,2013-09-22 11:51:00,
2013-09-22 06:52:00,49.8,44.5,30.79,North,351,0.0,0.0,82,0.00,,,0.00,WeatherDisplay:10.36,2013-09-22 11:52:00,
2013-09-22 06:53:00,49.8,44.5,30.79,North,351,0.0,0.0,82,0.00,,,0.00,WeatherDisplay:10.36,2013-09-22 11:53:00,
2013-09-22 06:54:00,49.8,44.5,30.79,North,351,0.0,0.0,82,0.00,,,0.00,WeatherDisplay:10.36,2013-09-22 11:54:00,
2013-09-22 06:55:00,49.8,44.5,30.79,North,351,0.0,0.0,82,0.00,,,0.00,WeatherDisplay:10.36,2013-09-22 11:55:00,
2013-09-22 06:57:00,49.8,44.5,30.79,North,351,0.0,0.0,82,0.00,,,0.00,WeatherDisplay:10.36,2013-09-22 11:57:00,
2013-09-22 06:58:00,49.8,44.5,30.79,North,351,0.0,0.0,82,0.00,,,0.00,WeatherDisplay:10.36,2013-09-22 11:58:00,
2013-09-22 06:59:00,49.8,44.5,30.79,North,351,0.0,0.0,82,0.00,,,0.00,WeatherDisplay:10.36,2013-09-22 11:59:00,
2013-09-22 07:00:00,49.8,44.5,30.79,North,351,0.0,0.0,82,0.00,,,0.00,WeatherDisplay:10.36,2013-09-22 12:00:00,
2013-09-22 07:01:00,49.8,44.5,30.79,North,351,0.0,0.0,82,0.00,,,0.00,WeatherDisplay:10.36,2013-09-22 12:01:00,
2013-09-22 07:02:00,49.8,44.5,30.79,North,351,0.0,0.0,82,0.00,,,0.00,WeatherDisplay:10.36,2013-09-22 12:02:00,
2013-09-22 07:03:00,49.8,44.5,30.79,North,351,0.0,0.0,82,0.00,,,0.00,WeatherDisplay:10.36,2013-09-22 12:03:00,
2013-09-22 07:05:00,49.8,44.5,30.79,North,351,0.0,0.0,82,0.00,,,0.00,WeatherDisplay:10.36,2013-09-22 12:05:00,
2013-09-22 07:06:00,49.8,44.5,30.79,North,351,0.0,0.0,82,0.00,,,0.00,WeatherDisplay:10.36,2013-09-22 12:06:00,
2013-09-22 07:07:00,49.8,44.5,30.79,North,351,0.0,0.0,82,0.00,,,0.00,WeatherDisplay:10.36,2013-09-22 12:07:00,
2013-09-22 07:08:00,49.8,44.5,30.79,North,351,0.0,0.0,82,0.00,,,0.00,WeatherDisplay:10.36,2013-09-22 12:08:00,
2013-09-22 07:09:00,49.8,44.5,30.79,North,351,0.0,0.0,82,0.00,,,0.00,WeatherDisplay:10.36,2013-09-22 12:09:00,
2013-09-22 07:10:00,49.8,44.5,30.79,North,351,0.0,0.0,82,0.00,,,0.00,WeatherDisplay:10.36,2013-09-22 12:10:00,
2013-09-22 07:12:00,49.8,44.5,30.79,North,351,0.0,0.0,82,0.00,,,0.00,WeatherDisplay:10.36,2013-09-22 12:12:00,
2013-09-22 07:13:00,49.8,44.5,30.79,North,351,0.0,0.0,82,0.00,,,0.00,WeatherDisplay:10.36,2013-09-22 12:13:00,
2013-09-22 07:14:00,49.8,44.5,30.79,North,351,0.0,0.0,82,0.00,,,0.00,WeatherDisplay:10.36,2013-09-22 12:14:00,
2013-09-22 07:15:00,49.8,44.9,30.79,North,351,0.0,0.0,83,0.00,,,0.00,WeatherDisplay:10.36,2013-09-22 12:15:00,
2013-09-22 07:16:00,49.8,44.9,30.79,North,351,0.0,0.0,83,0.00,,,0.00,WeatherDisplay:10.36,2013-09-22 12:16:00,
2013-09-22 07:17:00,49.8,44.9,30.79,North,351,0.0,0.0,83,0.00,,,0.00,WeatherDisplay:10.36,2013-09-22 12:17:00,
2013-09-22 07:18:00,50.0,45.0,30.79,North,351,0.0,0.0,83,0.00,,,0.00,WeatherDisplay:10.36,2013-09-22 12:18:00,
2013-09-22 07:20:00,50.0,45.0,30.79,North,351,0.0,0.0,83,0.00,,,0.00,WeatherDisplay:10.36,2013-09-22 12:20:00,
2013-09-22 07:21:00,50.0,45.0,30.79,North,351,0.0,0.0,83,0.00,,,0.00,WeatherDisplay:10.36,2013-09-22 12:21:00,
2013-09-22 07:22:00,50.0,45.0,30.79,North,351,0.0,0.0,83,0.00,,,0.00,WeatherDisplay:10.36,2013-09-22 12:22:00,
2013-09-22 07:23:00,50.0,45.0,30.79,North,351,0.0,0.0,83,0.00,,,0.00,WeatherDisplay:10.36,2013-09-22 12:23:00,
2013-09-22 07:24:00,50.0,45.0,30.79,North,351,0.0,0.0,83,0.00,,,0.00,WeatherDisplay:10.36,2013-09-22 12:24:00,
2013-09-22 07:25:00,50.0,45.0,30.79,North,351,0.0,0.0,83,0.00,,,0.00,WeatherDisplay:10.36,2013-09-22 12:25:00,
2013-09-22 07:27:00,50.2,45.2,30.79,North,351,0.0,0.0,83,0.00,,,0.00,WeatherDisplay:10.36,2013-09-22 12:27:00,
2013-09-22 07:28:00,50.2,45.2,30.79,North,351,0.0,0.0,83,0.00,,,0.00,WeatherDisplay:10.36,2013-09-22 12:28:00,
2013-09-22 07:29:00,50.2,45.2,30.79,North,351,0.0,0.0,83,0.00,,,0.00,WeatherDisplay:10.36,2013-09-22 12:29:00,
2013-09-22 07:30:00,50.2,45.2,30.79,North,351,0.0,0.0,83,0.00,,,0.00,WeatherDisplay:10.36,2013-09-22 12:30:00,
2013-09-22 07:31:00,50.2,45.2,30.79,North,351,0.0,0.0,83,0.00,,,0.00,WeatherDisplay:10.36,2013-09-22 12:31:00,
2013-09-22 07:32:00,50.4,45.4,30.79,North,351,0.0,0.0,83,0.00,,,0.00,WeatherDisplay:10.36,2013-09-22 12:32:00,
2013-09-22 07:33:00,50.4,45.4,30.79,North,351,0.0,0.0,83,0.00,,,0.00,WeatherDisplay:10.36,2013-09-22 12:33:00,
2013-09-22 07:35:00,50.4,45.4,30.79,North,351,0.0,0.0,83,0.00,,,0.00,WeatherDisplay:10.36,2013-09-22 12:35:00,
2013-09-22 07:36:00,50.4,45.4,30.79,North,351,0.0,0.0,83,0.00,,,0.00,WeatherDisplay:10.36,2013-09-22 12:36:00,
2013-09-22 07:37:00,50.5,45.6,30.79,North,351,0.0,0.0,83,0.00,,,0.00,WeatherDisplay:10.36,2013-09-22 12:37:00,
2013-09-22 07:38:00,50.5,45.6,30.79,North,351,0.0,0.0,83,0.00,,,0.00,WeatherDisplay:10.36,2013-09-22 12:38:00,
2013-09-22 07:39:00,50.5,45.6,30.79,North,351,0.0,0.0,83,0.00,,,0.00,WeatherDisplay:10.36,2013-09-22 12:39:00,
2013-09-22 07:40:00,50.7,45.7,30.79,North,351,0.0,0.0,83,0.00,,,0.00,WeatherDisplay:10.36,2013-09-22 12:40:00,
2013-09-22 07:42:00,50.7,45.7,30.79,North,351,0.0,0.0,83,0.00,,,0.00,WeatherDisplay:10.36,2013-09-22 12:42:00,
2013-09-22 07:43:00,50.7,45.7,30.79,North,351,0.0,0.0,83,0.00,,,0.00,WeatherDisplay:10.36,2013-09-22 12:43:00,
2013-09-22 07:44:00,50.9,45.9,30.79,North,351,0.0,0.0,83,0.00,,,0.00,WeatherDisplay:10.36,2013-09-22 12:44:00,
2013-09-22 07:45:00,50.9,45.9,30.79,North,351,0.0,0.0,83,0.00,,,0.00,WeatherDisplay:10.36,2013-09-22 12:45:00,
2013-09-22 07:46:00,50.9,45.9,30.79,North,351,0.0,0.0,83,0.00,,,0.00,WeatherDisplay:10.36,2013-09-22 12:46:00,
2013-09-22 07:47:00,51.1,46.1,30.79,North,351,0.0,0.0,83,0.00,,,0.00,WeatherDisplay:10.36,2013-09-22 12:47:00,
2013-09-22 07:48:00,51.1,46.1,30.79,North,351,0.0,0.0,83,0.00,,,0.00,WeatherDisplay:10.36,2013-09-22 12:48:00,
2013-09-22 07:50:00,51.3,46.3,30.79,North,351,0.0,0.0,83,0.00,,,0.00,WeatherDisplay:10.36,2013-09-22 12:50:00,
2013-09-22 07:51:00,51.3,46.3,30.79,North,351,0.0,0.0,83,0.00,,,0.00,WeatherDisplay:10.36,2013-09-22 12:51:00,
2013-09-22 07:52:00,51.3,46.3,30.79,North,351,0.0,0.0,83,0.00,,,0.00,WeatherDisplay:10.36,2013-09-22 12:52:00,
2013-09-22 07:53:00,51.3,46.3,30.79,North,351,0.0,0.0,83,0.00,,,0.00,WeatherDisplay:10.36,2013-09-22 12:53:00,
2013-09-22 07:54:00,51.4,46.4,30.79,North,351,0.0,0.0,83,0.00,,,0.00,WeatherDisplay:10.36,2013-09-22 12:54:00,
2013-09-22 07:55:00,51.4,46.4,30.79,North,351,0.0,0.0,83,0.00,,,0.00,WeatherDisplay:10.36,2013-09-22 12:55:00,
2013-09-22 07:56:00,51.4,46.4,30.79,North,351,0.0,0.0,83,0.00,,,0.00,WeatherDisplay:10.36,2013-09-22 12:56:00,
2013-09-22 07:58:00,51.6,46.6,30.79,North,351,0.0,0.0,83,0.00,,,0.00,WeatherDisplay:10.36,2013-09-22 12:58:00,
2013-09-22 07:59:00,51.6,46.6,30.79,North,351,0.0,0.0,83,0.00,,,0.00,WeatherDisplay:10.36,2013-09-22 12:59:00,
2013-09-22 08:00:00,51.6,46.6,30.79,North,351,0.0,0.0,83,0.00,,,0.00,WeatherDisplay:10.36,2013-09-22 13:00:00,
2013-09-22 08:01:00,51.6,46.6,30.79,North,351,0.0,0.0,83,0.00,,,0.00,WeatherDisplay:10.36,2013-09-22 13:01:00,
2013-09-22 08:02:00,51.6,46.6,30.79,North,351,0.0,0.0,83,0.00,,,0.00,WeatherDisplay:10.36,2013-09-22 13:02:00,
2013-09-22 08:03:00,51.8,46.8,30.79,North,351,0.0,0.0,83,0.00,,,0.00,WeatherDisplay:10.36,2013-09-22 13:03:00,
2013-09-22 08:05:00,51.8,46.8,30.79,North,351,0.0,0.0,83,0.00,,,0.00,WeatherDisplay:10.36,2013-09-22 13:05:00,
2013-09-22 08:06:00,51.8,47.1,30.79,North,351,0.0,0.0,84,0.00,,,0.00,WeatherDisplay:10.36,2013-09-22 13:06:00,
2013-09-22 08:07:00,52.0,47.3,30.79,North,351,0.0,0.0,84,0.00,,,0.00,WeatherDisplay:10.36,2013-09-22 13:07:00,
2013-09-22 08:08:00,52.0,47.3,30.79,North,351,0.0,0.0,84,0.00,,,0.00,WeatherDisplay:10.36,2013-09-22 13:08:00,
2013-09-22 08:09:00,52.2,47.5,30.79,North,351,0.0,0.0,84,0.00,,,0.00,WeatherDisplay:10.36,2013-09-22 13:09:00,
2013-09-22 08:10:00,52.2,47.5,30.79,North,351,0.0,0.0,84,0.00,,,0.00,WeatherDisplay:10.36,2013-09-22 13:10:00,
2013-09-22 08:11:00,52.2,47.5,30.79,North,351,0.0,0.0,84,0.00,,,0.00,WeatherDisplay:10.36,2013-09-22 13:11:00,
2013-09-22 08:13:00,52.3,47.6,30.79,North,351,0.0,0.0,84,0.00,,,0.00,WeatherDisplay:10.36,2013-09-22 13:13:00,
2013-09-22 08:14:00,52.3,47.6,30.79,North,351,0.0,0.0,84,0.00,,,0.00,WeatherDisplay:10.36,2013-09-22 13:14:00,
2013-09-22 08:15:00,52.5,47.8,30.79,North,351,0.0,0.0,84,0.00,,,0.00,WeatherDisplay:10.36,2013-09-22 13:15:00,
2013-09-22 08:16:00,52.5,47.8,30.79,North,351,0.0,0.0,84,0.00,,,0.00,WeatherDisplay:10.36,2013-09-22 13:16:00,
2013-09-22 08:17:00,52.7,48.0,30.79,North,351,0.0,0.0,84,0.00,,,0.00,WeatherDisplay:10.36,2013-09-22 13:17:00,
2013-09-22 08:18:00,52.7,48.0,30.82,North,351,0.0,0.0,84,0.00,,,0.00,WeatherDisplay:10.36,2013-09-22 13:18:00,
2013-09-22 08:19:00,52.9,48.2,30.82,North,351,0.0,0.0,84,0.00,,,0.00,WeatherDisplay:10.36,2013-09-22 13:19:00,
2013-09-22 08:20:00,52.9,48.2,30.82,North,351,0.0,0.0,84,0.00,,,0.00,WeatherDisplay:10.36,2013-09-22 13:20:00,
2013-09-22 08:22:00,53.1,48.4,30.82,North,351,0.0,0.0,84,0.00,,,0.00,WeatherDisplay:10.36,2013-09-22 13:22:00,
2013-09-22 08:23:00,53.1,48.4,30.82,North,351,0.0,0.0,84,0.00,,,0.00,WeatherDisplay:10.36,2013-09-22 13:23:00,
2013-09-22 08:24:00,53.2,48.5,30.82,North,351,0.0,0.0,84,0.00,,,0.00,WeatherDisplay:10.36,2013-09-22 13:24:00,
2013-09-22 08:25:00,53.2,48.5,30.82,North,351,0.0,0.0,84,0.00,,,0.00,WeatherDisplay:10.36,2013-09-22 13:25:00,
2013-09-22 08:26:00,53.4,48.7,30.82,North,351,0.0,0.0,84,0.00,,,0.00,WeatherDisplay:10.36,2013-09-22 13:26:00,
2013-09-22 08:27:00,53.4,48.7,30.82,North,351,0.0,0.0,84,0.00,,,0.00,WeatherDisplay:10.36,2013-09-22 13:27:00,
2013-09-22 08:28:00,53.6,48.9,30.82,North,351,0.0,0.0,84,0.00,,,0.00,WeatherDisplay:10.36,2013-09-22 13:28:00,
2013-09-22 08:29:00,53.6,48.9,30.82,North,351,0.0,0.0,84,0.00,,,0.00,WeatherDisplay:10.36,2013-09-22 13:29:00,
2013-09-22 08:31:00,53.8,49.1,30.82,North,351,0.0,0.0,84,0.00,,,0.00,WeatherDisplay:10.36,2013-09-22 13:31:00,
2013-09-22 08:32:00,53.8,49.1,30.82,North,351,0.0,0.0,84,0.00,,,0.00,WeatherDisplay:10.36,2013-09-22 13:32:00,
2013-09-22 08:33:00,54.0,49.2,30.82,North,351,0.0,0.0,84,0.00,,,0.00,WeatherDisplay:10.36,2013-09-22 13:33:00,
2013-09-22 08:34:00,54.0,49.2,30.82,North,351,0.0,0.0,84,0.00,,,0.00,WeatherDisplay:10.36,2013-09-22 13:34:00,
2013-09-22 08:35:00,54.1,49.4,30.82,North,351,0.0,0.0,84,0.00,,,0.00,WeatherDisplay:10.36,2013-09-22 13:35:00,
2013-09-22 08:36:00,54.3,49.6,30.82,North,351,0.0,0.0,84,0.00,,,0.00,WeatherDisplay:10.36,2013-09-22 13:36:00,
2013-09-22 08:37:00,54.3,49.6,30.82,North,351,0.0,0.0,84,0.00,,,0.00,WeatherDisplay:10.36,2013-09-22 13:37:00,
2013-09-22 08:39:00,54.5,49.8,30.82,North,351,0.0,0.0,84,0.00,,,0.00,WeatherDisplay:10.36,2013-09-22 13:39:00,
2013-09-22 08:40:00,54.7,49.9,30.82,North,351,0.0,0.0,84,0.00,,,0.00,WeatherDisplay:10.36,2013-09-22 13:40:00,
2013-09-22 08:41:00,54.7,49.9,30.82,North,351,0.0,0.0,84,0.00,,,0.00,WeatherDisplay:10.36,2013-09-22 13:41:00,
2013-09-22 08:42:00,54.9,50.1,30.82,North,351,0.0,0.0,84,0.00,,,0.00,WeatherDisplay:10.36,2013-09-22 13:42:00,
2013-09-22 08:43:00,54.9,50.1,30.82,North,351,0.0,0.0,84,0.00,,,0.00,WeatherDisplay:10.36,2013-09-22 13:43:00,
2013-09-22 08:44:00,55.0,50.3,30.82,North,351,0.0,0.0,84,0.00,,,0.00,WeatherDisplay:10.36,2013-09-22 13:44:00,
2013-09-22 08:45:00,55.2,50.5,30.82,North,351,0.0,0.0,84,0.00,,,0.00,WeatherDisplay:10.36,2013-09-22 13:45:00,
2013-09-22 08:46:00,55.2,50.5,30.82,North,351,0.0,0.0,84,0.00,,,0.00,WeatherDisplay:10.36,2013-09-22 13:46:00,
2013-09-22 08:48:00,55.4,50.6,30.82,North,351,0.0,0.0,84,0.00,,,0.00,WeatherDisplay:10.36,2013-09-22 13:48:00,
2013-09-22 08:49:00,55.6,50.8,30.82,North,351,0.0,0.0,84,0.00,,,0.00,WeatherDisplay:10.36,2013-09-22 13:49:00,
2013-09-22 08:50:00,55.8,51.0,30.82,North,351,0.0,0.0,84,0.00,,,0.00,WeatherDisplay:10.36,2013-09-22 13:50:00,
2013-09-22 08:51:00,55.9,51.2,30.82,North,351,0.0,0.0,84,0.00,,,0.00,WeatherDisplay:10.36,2013-09-22 13:51:00,
2013-09-22 08:52:00,55.9,51.2,30.82,North,351,0.0,0.0,84,0.00,,,0.00,WeatherDisplay:10.36,2013-09-22 13:52:00,
2013-09-22 08:53:00,56.1,51.4,30.82,North,351,0.0,0.0,84,0.00,,,0.00,WeatherDisplay:10.36,2013-09-22 13:53:00,
2013-09-22 08:54:00,56.3,51.5,30.82,North,351,0.0,0.0,84,0.00,,,0.00,WeatherDisplay:10.36,2013-09-22 13:54:00,
2013-09-22 08:56:00,56.3,51.5,30.82,North,351,0.0,0.0,84,0.00,,,0.00,WeatherDisplay:10.36,2013-09-22 13:56:00,
2013-09-22 08:57:00,56.5,51.4,30.82,NNE,28,0.0,0.0,83,0.00,,,0.00,WeatherDisplay:10.36,2013-09-22 13:57:00,
2013-09-22 08:58:00,56.7,51.6,30.82,NNE,27,0.0,0.0,83,0.00,,,0.00,WeatherDisplay:10.36,2013-09-22 13:58:00,
2013-09-22 08:59:00,56.7,51.6,30.82,NNE,27,0.0,0.0,83,0.00,,,0.00,WeatherDisplay:10.36,2013-09-22 13:59:00,
2013-09-22 09:00:00,56.8,51.7,30.82,NNE,27,0.0,0.0,83,0.00,,,0.00,WeatherDisplay:10.36,2013-09-22 14:00:00,
2013-09-22 09:01:00,56.8,51.7,30.82,NNE,27,0.0,0.0,83,0.00,,,0.00,WeatherDisplay:10.36,2013-09-22 14:01:00,
2013-09-22 09:02:00,57.0,51.9,30.82,NNE,27,0.0,0.0,83,0.00,,,0.00,WeatherDisplay:10.36,2013-09-22 14:02:00,
2013-09-22 09:03:00,57.0,51.9,30.00,NNE,27,0.0,0.0,83,0.00,,,0.00,WeatherDisplay:10.36,2013-09-22 14:03:00,
2013-09-22 09:05:00,57.2,52.1,30.00,NNE,27,0.0,0.0,83,0.00,,,0.00,WeatherDisplay:10.36,2013-09-22 14:05:00,
2013-09-22 09:06:00,57.2,52.1,30.00,West,263,4.0,4.0,83,0.00,,,0.00,WeatherDisplay:10.36,2013-09-22 14:06:00,
2013-09-22 09:07:00,57.0,51.6,30.00,SW,232,4.6,4.6,82,0.00,,,0.00,WeatherDisplay:10.36,2013-09-22 14:07:00,
2013-09-22 09:08:00,57.2,51.4,30.00,West,263,3.6,3.6,81,0.00,,,0.00,WeatherDisplay:10.36,2013-09-22 14:08:00,
2013-09-22 09:09:00,57.2,51.4,30.00,WSW,252,0.0,0.0,81,0.00,,,0.00,WeatherDisplay:10.36,2013-09-22 14:09:00,
2013-09-22 09:10:00,57.2,51.4,30.00,WSW,254,0.0,0.0,81,0.00,,,0.00,WeatherDisplay:10.36,2013-09-22 14:10:00,
2013-09-22 09:11:00,57.2,51.4,30.00,West,264,0.0,0.0,81,0.00,,,0.00,WeatherDisplay:10.36,2013-09-22 14:11:00,
2013-09-22 09:12:00,57.2,51.4,30.00,West,263,0.0,0.0,81,0.00,,,0.00,WeatherDisplay:10.36,2013-09-22 14:12:00,
2013-09-22 09:14:00,57.4,51.6,30.00,West,264,3.5,0.0,81,0.00,,,0.00,WeatherDisplay:10.36,2013-09-22 14:14:00,
2013-09-22 09:15:00,57.4,51.6,30.00,West,263,4.0,0.0,81,0.00,,,0.00,WeatherDisplay:10.36,2013-09-22 14:15:00,
2013-09-22 09:16:00,57.4,51.3,30.00,WSW,258,3.6,3.6,80,0.00,,,0.00,WeatherDisplay:10.36,2013-09-22 14:16:00,
2013-09-22 09:17:00,57.4,51.3,30.00,West,264,3.5,3.5,80,0.00,,,0.00,WeatherDisplay:10.36,2013-09-22 14:17:00,
2013-09-22 09:18:00,57.4,51.3,30.00,West,263,4.0,4.0,80,0.00,,,0.00,WeatherDisplay:10.36,2013-09-22 14:18:00,
2013-09-22 09:19:00,57.6,51.4,30.00,WSW,255,3.6,3.6,80,0.00,,,0.00,WeatherDisplay:10.36,2013-09-22 14:19:00,
2013-09-22 09:21:00,57.6,51.4,30.00,West,259,0.0,0.0,80,0.00,,,0.00,WeatherDisplay:10.36,2013-09-22 14:21:00,
2013-09-22 09:22:00,57.6,51.4,30.00,WSW,237,0.0,0.0,80,0.00,,,0.00,WeatherDisplay:10.36,2013-09-22 14:22:00,
2013-09-22 09:23:00,57.6,51.4,30.00,SW,233,3.5,0.0,80,0.00,,,0.00,WeatherDisplay:10.36,2013-09-22 14:23:00,
2013-09-22 09:24:00,57.7,51.6,30.00,North,351,3.6,3.6,80,0.00,,,0.00,WeatherDisplay:10.36,2013-09-22 14:24:00,
2013-09-22 09:25:00,57.7,51.6,30.00,North,351,4.5,4.5,80,0.00,,,0.00,WeatherDisplay:10.36,2013-09-22 14:25:00,
2013-09-22 09:26:00,57.7,51.6,30.00,NE,44,4.6,4.6,80,0.00,,,0.00,WeatherDisplay:10.36,2013-09-22 14:26:00,
2013-09-22 09:27:00,57.7,51.6,30.00,NE,45,4.0,4.0,80,0.00,,,0.00,WeatherDisplay:10.36,2013-09-22 14:27:00,
2013-09-22 09:28:00,57.9,51.8,30.00,NE,44,3.5,0.0,80,0.00,,,0.00,WeatherDisplay:10.36,2013-09-22 14:28:00,
2013-09-22 09:30:00,57.9,51.8,30.00,NE,45,0.0,0.0,80,0.00,,,0.00,WeatherDisplay:10.36,2013-09-22 14:30:00,
2013-09-22 09:31:00,57.9,51.8,30.00,NE,44,3.5,3.5,80,0.00,,,0.00,WeatherDisplay:10.36,2013-09-22 14:31:00,
2013-09-22 09:32:00,57.9,51.8,30.00,NE,44,4.0,4.0,80,0.00,,,0.00,WeatherDisplay:10.36,2013-09-22 14:32:00,
2013-09-22 09:33:00,58.1,52.0,30.00,NE,44,3.6,3.6,80,0.00,,,0.00,WeatherDisplay:10.36,2013-09-22 14:33:00,
2013-09-22 09:34:00,58.1,52.0,30.00,NE,45,3.6,0.0,80,0.00,,,0.00,WeatherDisplay:10.36,2013-09-22 14:34:00,
2013-09-22 09:35:00,58.1,51.6,30.00,NE,44,3.1,3.1,79,0.00,,,0.00,WeatherDisplay:10.36,2013-09-22 14:35:00,
2013-09-22 09:36:00,58.3,51.8,30.00,NE,44,3.6,3.6,79,0.00,,,0.00,WeatherDisplay:10.36,2013-09-22 14:36:00,
2013-09-22 09:37:00,58.3,51.8,30.00,NE,44,4.0,4.0,79,0.00,,,0.00,WeatherDisplay:10.36,2013-09-22 14:37:00,
2013-09-22 09:39:00,58.3,51.8,30.00,NE,44,3.6,3.6,79,0.00,,,0.00,WeatherDisplay:10.36,2013-09-22 14:39:00,
2013-09-22 09:40:00,58.5,52.0,30.00,North,351,2.7,0.0,79,0.00,,,0.00,WeatherDisplay:10.36,2013-09-22 14:40:00,
2013-09-22 09:41:00,58.5,52.0,30.00,North,351,4.0,4.0,79,0.00,,,0.00,WeatherDisplay:10.36,2013-09-22 14:41:00,
2013-09-22 09:42:00,58.5,51.6,30.00,North,351,3.5,3.5,78,0.00,,,0.00,WeatherDisplay:10.36,2013-09-22 14:42:00,
2013-09-22 09:43:00,58.6,51.8,30.00,North,351,3.6,0.0,78,0.00,,,0.00,WeatherDisplay:10.36,2013-09-22 14:43:00,
2013-09-22 09:44:00,58.6,51.8,30.00,North,351,3.5,0.0,78,0.00,,,0.00,WeatherDisplay:10.36,2013-09-22 14:44:00,
2013-09-22 09:45:00,58.6,51.8,30.00,North,351,2.7,0.0,78,0.00,,,0.00,WeatherDisplay:10.36,2013-09-22 14:45:00,
2013-09-22 09:47:00,58.6,51.4,30.00,North,351,4.6,4.6,77,0.00,,,0.00,WeatherDisplay:10.36,2013-09-22 14:47:00,
2013-09-22 09:48:00,58.8,51.6,30.82,North,351,0.0,0.0,77,0.00,,,0.00,WeatherDisplay:10.36,2013-09-22 14:48:00,
2013-09-22 09:49:00,58.8,51.6,30.82,North,351,4.6,4.6,77,0.00,,,0.00,WeatherDisplay:10.36,2013-09-22 14:49:00,
2013-09-22 09:50:00,58.8,51.3,30.82,North,351,4.0,4.0,76,0.00,,,0.00,WeatherDisplay:10.36,2013-09-22 14:50:00,
2013-09-22 09:51:00,59.0,51.1,30.82,North,351,3.5,3.6,75,0.00,,,0.00,WeatherDisplay:10.36,2013-09-22 14:51:00,
2013-09-22 09:52:00,59.0,51.1,30.82,North,351,2.3,0.0,75,0.00,,,0.00,WeatherDisplay:10.36,2013-09-22 14:52:00,
2013-09-22 09:53:00,59.2,51.3,30.82,North,351,0.0,0.0,75,0.00,,,0.00,WeatherDisplay:10.36,2013-09-22 14:53:00,
2013-09-22 09:55:00,59.2,51.3,30.82,North,351,0.0,0.0,75,0.00,,,0.00,WeatherDisplay:10.36,2013-09-22 14:55:00,
2013-09-22 09:56:00,59.2,50.9,30.82,North,351,3.6,0.0,74,0.00,,,0.00,WeatherDisplay:10.36,2013-09-22 14:56:00,
2013-09-22 09:57:00,59.4,51.1,30.82,North,351,4.6,4.6,74,0.00,,,0.00,WeatherDisplay:10.36,2013-09-22 14:57:00,
2013-09-22 09:58:00,59.4,50.7,30.82,North,351,4.6,4.6,73,0.00,,,0.00,WeatherDisplay:10.36,2013-09-22 14:58:00,
2013-09-22 09:59:00,59.5,50.9,30.82,North,351,3.5,3.5,73,0.00,,,0.00,WeatherDisplay:10.36,2013-09-22 14:59:00,
2013-09-22 10:00:00,59.5,50.9,30.82,West,263,4.0,0.0,73,0.00,,,0.00,WeatherDisplay:10.36,2013-09-22 15:00:00,
2013-09-22 10:01:00,59.7,51.0,30.82,West,264,3.5,0.0,73,0.00,,,0.00,WeatherDisplay:10.36,2013-09-22 15:01:00,
2013-09-22 10:03:00,59.9,51.2,30.03,WSW,240,0.0,0.0,73,0.00,,,0.00,WeatherDisplay:10.36,2013-09-22 15:03:00,
2013-09-22 10:04:00,59.9,51.2,30.03,North,351,0.0,0.0,73,0.00,,,0.00,WeatherDisplay:10.36,2013-09-22 15:04:00,
2013-09-22 10:05:00,60.1,51.4,30.03,North,351,0.0,0.0,73,0.00,,,0.00,WeatherDisplay:10.36,2013-09-22 15:05:00,
2013-09-22 10:06:00,60.1,51.4,30.03,North,351,0.0,0.0,73,0.00,,,0.00,WeatherDisplay:10.36,2013-09-22 15:06:00,
2013-09-22 10:07:00,60.3,51.6,30.03,North,351,0.0,0.0,73,0.00,,,0.00,WeatherDisplay:10.36,2013-09-22 15:07:00,
2013-09-22 10:08:00,60.4,51.7,30.03,West,263,4.0,0.0,73,0.00,,,0.00,WeatherDisplay:10.36,2013-09-22 15:08:00,
2013-09-22 10:09:00,60.4,51.4,30.03,West,261,4.5,4.5,72,0.00,,,0.00,WeatherDisplay:10.36,2013-09-22 15:09:00,
2013-09-22 10:11:00,60.6,51.5,30.03,WSW,251,2.7,0.0,72,0.00,,,0.00,WeatherDisplay:10.36,2013-09-22 15:11:00,
2013-09-22 10:12:00,60.8,51.7,30.03,WSW,238,0.0,0.0,72,0.00,,,0.00,WeatherDisplay:10.36,2013-09-22 15:12:00,
2013-09-22 10:13:00,60.8,51.7,30.03,SW,236,0.0,0.0,72,0.00,,,0.00,WeatherDisplay:10.36,2013-09-22 15:13:00,
2013-09-22 10:14:00,60.8,51.3,30.03,North,351,5.4,0.0,71,0.00,,,0.00,WeatherDisplay:10.36,2013-09-22 15:14:00,
2013-09-22 10:15:00,61.0,51.1,30.03,North,351,2.7,4.0,70,0.00,,,0.00,WeatherDisplay:10.36,2013-09-22 15:15:00,
2013-09-22 10:16:00,61.0,51.1,30.03,North,351,4.0,0.0,70,0.00,,,0.00,WeatherDisplay:10.36,2013-09-22 15:16:00,
2013-09-22 10:17:00,61.2,51.3,30.03,North,351,4.5,4.5,70,0.00,,,0.00,WeatherDisplay:10.36,2013-09-22 15:17:00,
2013-09-22 10:18:00,61.2,50.9,30.82,North,351,4.6,4.6,69,0.00,,,0.00,WeatherDisplay:10.36,2013-09-22 15:18:00,
2013-09-22 10:20:00,61.3,51.1,30.82,North,351,2.7,2.7,69,0.00,,,0.00,WeatherDisplay:10.36,2013-09-22 15:20:00,
2013-09-22 10:21:00,61.3,51.1,30.82,North,351,4.9,4.9,69,0.00,,,0.00,WeatherDisplay:10.36,2013-09-22 15:21:00,
2013-09-22 10:22:00,61.3,50.7,30.82,NE,44,5.8,5.8,68,0.00,,,0.00,WeatherDisplay:10.36,2013-09-22 15:22:00,
2013-09-22 10:23:00,61.5,50.5,30.82,North,351,4.9,4.9,67,0.00,,,0.00,WeatherDisplay:10.36,2013-09-22 15:23:00,
2013-09-22 10:24:00,61.5,50.5,30.82,NNE,31,3.5,3.5,67,0.00,,,0.00,WeatherDisplay:10.36,2013-09-22 15:24:00,
2013-09-22 10:25:00,61.5,50.5,30.82,NNE,27,4.5,4.5,67,0.00,,,0.00,WeatherDisplay:10.36,2013-09-22 15:25:00,
2013-09-22 10:27:00,61.7,50.2,30.82,NNE,26,4.6,0.0,66,0.00,,,0.00,WeatherDisplay:10.36,2013-09-22 15:27:00,
2013-09-22 10:28:00,61.7,50.2,30.82,North,351,4.5,0.0,66,0.00,,,0.00,WeatherDisplay:10.36,2013-09-22 15:28:00,
2013-09-22 10:29:00,61.7,49.4,30.82,North,351,4.6,4.6,64,0.00,,,0.00,WeatherDisplay:10.36,2013-09-22 15:29:00,
2013-09-22 10:30:00,61.9,49.1,30.82,North,351,6.3,6.3,63,0.00,,,0.00,WeatherDisplay:10.36,2013-09-22 15:30:00,
2013-09-22 10:31:00,61.9,48.7,30.82,North,351,5.8,5.8,62,0.00,,,0.00,WeatherDisplay:10.36,2013-09-22 15:31:00,
2013-09-22 10:32:00,62.1,48.9,30.82,North,351,4.6,0.0,62,0.00,,,0.00,WeatherDisplay:10.36,2013-09-22 15:32:00,
2013-09-22 10:33:00,62.2,49.5,30.82,North,351,3.6,0.0,63,0.00,,,0.00,WeatherDisplay:10.36,2013-09-22 15:33:00,
2013-09-22 10:35:00,62.2,49.5,30.82,North,351,0.0,0.0,63,0.00,,,0.00,WeatherDisplay:10.36,2013-09-22 15:35:00,
2013-09-22 10:36:00,62.4,49.7,30.82,North,351,0.0,0.0,63,0.00,,,0.00,WeatherDisplay:10.36,2013-09-22 15:36:00,
2013-09-22 10:37:00,62.6,49.4,30.82,North,351,3.5,0.0,62,0.00,,,0.00,WeatherDisplay:10.36,2013-09-22 15:37:00,
2013-09-22 10:38:00,62.6,49.4,30.82,NNE,27,3.5,0.0,62,0.00,,,0.00,WeatherDisplay:10.36,2013-09-22 15:38:00,
2013-09-22 10:39:00,62.8,49.1,30.82,North,351,3.6,0.0,61,0.00,,,0.00,WeatherDisplay:10.36,2013-09-22 15:39:00,
2013-09-22 10:40:00,63.0,48.9,30.82,NE,40,3.1,0.0,60,0.00,,,0.00,WeatherDisplay:10.36,2013-09-22 15:40:00,
2013-09-22 10:42:00,63.1,49.5,30.82,North,351,5.8,0.0,61,0.00,,,0.00,WeatherDisplay:10.36,2013-09-22 15:42:00,
2013-09-22 10:43:00,63.1,48.1,30.82,NNE,27,5.8,5.8,58,0.00,,,0.00,WeatherDisplay:10.36,2013-09-22 15:43:00,
2013-09-22 10:44:00,63.1,46.7,30.82,NNE,27,3.6,0.0,55,0.00,,,0.00,WeatherDisplay:10.36,2013-09-22 15:44:00,
2013-09-22 10:46:00,63.3,46.9,30.82,NNE,27,0.0,0.0,55,0.00,,,0.00,WeatherDisplay:10.36,2013-09-22 15:46:00,
2013-09-22 10:47:00,63.5,47.5,30.82,NNE,31,2.7,0.0,56,0.00,,,0.00,WeatherDisplay:10.36,2013-09-22 15:47:00,
2013-09-22 10:48:00,63.5,47.5,30.00,NNE,31,2.3,0.0,56,0.00,,,0.00,WeatherDisplay:10.36,2013-09-22 15:48:00,
2013-09-22 10:50:00,63.7,47.7,30.00,NNE,32,0.0,0.0,56,0.00,,,0.00,WeatherDisplay:10.36,2013-09-22 15:50:00,
2013-09-22 10:51:00,63.7,48.2,30.00,NNE,31,0.0,0.0,57,0.00,,,0.00,WeatherDisplay:10.36,2013-09-22 15:51:00,
2013-09-22 10:52:00,63.9,48.3,30.00,NNE,31,0.0,0.0,57,0.00,,,0.00,WeatherDisplay:10.36,2013-09-22 15:52:00,
2013-09-22 10:53:00,64.0,48.5,30.00,NNE,31,0.0,0.0,57,0.00,,,0.00,WeatherDisplay:10.36,2013-09-22 15:53:00,
2013-09-22 10:54:00,64.2,48.7,30.00,NNE,31,0.0,0.0,57,0.00,,,0.00,WeatherDisplay:10.36,2013-09-22 15:54:00,
2013-09-22 10:55:00,64.2,48.7,30.00,NNE,31,0.0,0.0,57,0.00,,,0.00,WeatherDisplay:10.36,2013-09-22 15:55:00,
2013-09-22 10:57:00,64.2,46.2,30.00,NNE,27,0.0,0.0,52,0.00,,,0.00,WeatherDisplay:10.36,2013-09-22 15:57:00,
2013-09-22 10:58:00,64.4,45.3,30.00,NNE,27,0.0,0.0,50,0.00,,,0.00,WeatherDisplay:10.36,2013-09-22 15:58:00,
2013-09-22 10:59:00,64.4,44.8,30.00,NNE,27,3.1,0.0,49,0.00,,,0.00,WeatherDisplay:10.36,2013-09-22 15:59:00,
2013-09-22 11:00:00,64.6,45.0,30.00,NNE,27,0.0,0.0,49,0.00,,,0.00,WeatherDisplay:10.36,2013-09-22 16:00:00,
2013-09-22 11:01:00,64.6,45.0,30.00,NNE,29,0.0,0.0,49,0.00,,,0.00,WeatherDisplay:10.36,2013-09-22 16:01:00,
2013-09-22 11:02:00,64.8,45.1,30.00,NNE,29,0.0,0.0,49,0.00,,,0.00,WeatherDisplay:10.36,2013-09-22 16:02:00,
2013-09-22 11:04:00,64.8,45.7,30.00,NNE,29,0.0,0.0,50,0.00,,,0.00,WeatherDisplay:10.36,2013-09-22 16:04:00,
2013-09-22 11:05:00,64.9,45.8,30.00,NNE,30,0.0,0.0,50,0.00,,,0.00,WeatherDisplay:10.36,2013-09-22 16:05:00,
2013-09-22 11:06:00,64.9,45.8,30.00,NNE,30,0.0,0.0,50,0.00,,,0.00,WeatherDisplay:10.36,2013-09-22 16:06:00,
2013-09-22 11:07:00,65.1,46.0,30.00,NNE,29,0.0,0.0,50,0.00,,,0.00,WeatherDisplay:10.36,2013-09-22 16:07:00,
2013-09-22 11:08:00,65.1,46.0,30.00,NNE,30,0.0,0.0,50,0.00,,,0.00,WeatherDisplay:10.36,2013-09-22 16:08:00,
2013-09-22 11:09:00,65.3,46.2,30.00,NNE,30,0.0,0.0,50,0.00,,,0.00,WeatherDisplay:10.36,2013-09-22 16:09:00,
2013-09-22 11:10:00,65.5,46.3,30.00,NNE,30,0.0,0.0,50,0.00,,,0.00,WeatherDisplay:10.36,2013-09-22 16:10:00,
2013-09-22 11:11:00,65.5,46.3,30.00,NNE,30,0.0,0.0,50,0.00,,,0.00,WeatherDisplay:10.36,2013-09-22 16:11:00,
2013-09-22 11:13:00,65.7,46.0,30.00,NE,41,0.0,0.0,49,0.00,,,0.00,WeatherDisplay:10.36,2013-09-22 16:13:00,
2013-09-22 11:14:00,65.7,44.3,30.00,East,86,0.0,0.0,46,0.00,,,0.00,WeatherDisplay:10.36,2013-09-22 16:14:00,
2013-09-22 11:15:00,65.8,44.5,30.00,NNE,33,0.0,0.0,46,0.00,,,0.00,WeatherDisplay:10.36,2013-09-22 16:15:00,
2013-09-22 11:16:00,65.8,45.0,30.00,NNE,33,0.0,0.0,47,0.00,,,0.00,WeatherDisplay:10.36,2013-09-22 16:16:00,
2013-09-22 11:17:00,66.0,45.2,30.00,NNE,33,0.0,0.0,47,0.00,,,0.00,WeatherDisplay:10.36,2013-09-22 16:17:00,
2013-09-22 11:18:00,66.0,45.2,30.00,NE,36,0.0,0.0,47,0.00,,,0.00,WeatherDisplay:10.36,2013-09-22 16:18:00,
2013-09-22 11:19:00,66.2,45.4,30.00,NE,38,0.0,0.0,47,0.00,,,0.00,WeatherDisplay:10.36,2013-09-22 16:19:00,
2013-09-22 11:21:00,66.2,45.4,30.00,NE,38,0.0,0.0,47,0.00,,,0.00,WeatherDisplay:10.36,2013-09-22 16:21:00,
2013-09-22 11:22:00,66.2,44.8,30.00,NE,38,0.0,0.0,46,0.00,,,0.00,WeatherDisplay:10.36,2013-09-22 16:22:00,
2013-09-22 11:23:00,66.4,44.4,30.00,NE,38,0.0,0.0,45,0.00,,,0.00,WeatherDisplay:10.36,2013-09-22 16:23:00,
2013-09-22 11:24:00,66.4,44.4,30.00,NE,37,0.0,0.0,45,0.00,,,0.00,WeatherDisplay:10.36,2013-09-22 16:24:00,
2013-09-22 11:25:00,66.4,44.4,30.00,NE,35,0.0,0.0,45,0.00,,,0.00,WeatherDisplay:10.36,2013-09-22 16:25:00,
2013-09-22 11:26:00,66.6,44.5,30.00,NE,35,0.0,0.0,45,0.00,,,0.00,WeatherDisplay:10.36,2013-09-22 16:26:00,
2013-09-22 11:28:00,66.6,44.5,30.00,NE,35,0.0,0.0,45,0.00,,,0.00,WeatherDisplay:10.36,2013-09-22 16:28:00,
2013-09-22 11:29:00,66.6,44.5,30.00,NE,36,0.0,0.0,45,0.00,,,0.00,WeatherDisplay:10.36,2013-09-22 16:29:00,
2013-09-22 11:30:00,66.6,44.5,30.00,NNE,33,0.0,0.0,45,0.00,,,0.00,WeatherDisplay:10.36,2013-09-22 16:30:00,
2013-09-22 11:31:00,66.7,43.5,30.00,NNE,27,0.0,0.0,43,0.00,,,0.00,WeatherDisplay:10.36,2013-09-22 16:31:00,
2013-09-22 11:32:00,66.7,42.9,30.00,NNE,32,0.0,0.0,42,0.00,,,0.00,WeatherDisplay:10.36,2013-09-22 16:32:00,
2013-09-22 11:33:00,66.9,43.1,30.00,NE,38,0.0,0.0,42,0.00,,,0.00,WeatherDisplay:10.36,2013-09-22 16:33:00,
2013-09-22 11:34:00,66.9,43.7,30.00,NE,37,4.5,4.5,43,0.00,,,0.00,WeatherDisplay:10.36,2013-09-22 16:34:00,
2013-09-22 11:36:00,66.9,43.7,30.00,NE,36,0.0,0.0,43,0.00,,,0.00,WeatherDisplay:10.36,2013-09-22 16:36:00,
2013-09-22 11:37:00,67.1,43.8,30.00,NE,38,0.0,0.0,43,0.00,,,0.00,WeatherDisplay:10.36,2013-09-22 16:37:00,
2013-09-22 11:38:00,67.1,43.8,30.00,NE,39,0.0,0.0,43,0.00,,,0.00,WeatherDisplay:10.36,2013-09-22 16:38:00,
2013-09-22 11:39:00,67.1,43.8,30.00,NE,38,0.0,0.0,43,0.00,,,0.00,WeatherDisplay:10.36,2013-09-22 16:39:00,
2013-09-22 11:40:00,67.1,43.8,30.00,NE,37,0.0,0.0,43,0.00,,,0.00,WeatherDisplay:10.36,2013-09-22 16:40:00,
2013-09-22 11:41:00,67.3,44.0,30.00,NE,38,5.8,5.8,43,0.00,,,0.00,WeatherDisplay:10.36,2013-09-22 16:41:00,
2013-09-22 11:42:00,67.3,43.4,30.00,NE,39,5.8,5.8,42,0.00,,,0.00,WeatherDisplay:10.36,2013-09-22 16:42:00,
2013-09-22 11:43:00,67.3,43.4,30.00,NE,39,5.8,5.8,42,0.00,,,0.00,WeatherDisplay:10.36,2013-09-22 16:43:00,
2013-09-22 11:45:00,67.3,43.4,30.00,NE,38,4.5,4.5,42,0.00,,,0.00,WeatherDisplay:10.36,2013-09-22 16:45:00,
2013-09-22 11:46:00,67.3,43.4,30.00,NE,40,4.6,4.6,42,0.00,,,0.00,WeatherDisplay:10.36,2013-09-22 16:46:00,
2013-09-22 11:47:00,67.5,43.6,30.00,NE,39,4.9,4.9,42,0.00,,,0.00,WeatherDisplay:10.36,2013-09-22 16:47:00,
2013-09-22 11:48:00,67.5,43.6,30.00,NE,39,4.9,4.9,42,0.00,,,0.00,WeatherDisplay:10.36,2013-09-22 16:48:00,
2013-09-22 11:49:00,67.5,43.6,30.00,NE,39,3.5,3.5,42,0.00,,,0.00,WeatherDisplay:10.36,2013-09-22 16:49:00,
2013-09-22 11:50:00,67.5,43.6,30.00,NE,39,4.0,0.0,42,0.00,,,0.00,WeatherDisplay:10.36,2013-09-22 16:50:00,
2013-09-22 11:51:00,67.5,43.6,30.00,NE,38,3.5,0.0,42,0.00,,,0.00,WeatherDisplay:10.36,2013-09-22 16:51:00,
2013-09-22 11:53:00,67.6,43.7,30.00,NE,37,2.3,0.0,42,0.00,,,0.00,WeatherDisplay:10.36,2013-09-22 16:53:00,
2013-09-22 11:54:00,67.6,43.7,30.00,NE,34,0.0,0.0,42,0.00,,,0.00,WeatherDisplay:10.36,2013-09-22 16:54:00,
2013-09-22 11:55:00,67.6,42.4,30.00,NE,34,0.0,0.0,40,0.00,,,0.00,WeatherDisplay:10.36,2013-09-22 16:55:00,
2013-09-22 11:56:00,67.8,42.6,30.00,NE,34,3.5,0.0,40,0.00,,,0.00,WeatherDisplay:10.36,2013-09-22 16:56:00,
2013-09-22 11:57:00,67.8,42.6,30.00,NE,38,4.9,4.9,40,0.00,,,0.00,WeatherDisplay:10.36,2013-09-22 16:57:00,
2013-09-22 11:58:00,67.8,42.6,30.00,NE,38,4.6,0.0,40,0.00,,,0.00,WeatherDisplay:10.36,2013-09-22 16:58:00,
2013-09-22 11:59:00,68.0,43.4,30.00,NE,38,3.5,0.0,41,0.00,,,0.00,WeatherDisplay:10.36,2013-09-22 16:59:00,
2013-09-22 12:01:00,68.0,43.4,30.00,NE,40,5.8,0.0,41,0.00,,,0.00,WeatherDisplay:10.36,2013-09-22 17:01:00,
2013-09-22 12:02:00,68.2,43.6,30.00,NE,38,6.7,6.7,41,0.00,,,0.00,WeatherDisplay:10.36,2013-09-22 17:02:00,
2013-09-22 12:03:00,68.2,43.6,30.00,NE,36,6.9,6.9,41,0.00,,,0.00,WeatherDisplay:10.36,2013-09-22 17:03:00,
2013-09-22 12:04:00,68.2,42.9,30.00,NE,38,5.4,5.4,40,0.00,,,0.00,WeatherDisplay:10.36,2013-09-22 17:04:00,
2013-09-22 12:06:00,68.4,43.1,30.00,NE,36,5.8,5.8,40,0.00,,,0.00,WeatherDisplay:10.36,2013-09-22 17:06:00,
2013-09-22 12:07:00,68.4,43.1,30.00,NE,37,6.9,6.9,40,0.00,,,0.00,WeatherDisplay:10.36,2013-09-22 17:07:00,
2013-09-22 12:08:00,68.4,43.1,30.00,NE,37,4.6,4.6,40,0.00,,,0.00,WeatherDisplay:10.36,2013-09-22 17:08:00,
2013-09-22 12:09:00,68.4,43.1,30.00,NE,38,0.0,0.0,40,0.00,,,0.00,WeatherDisplay:10.36,2013-09-22 17:09:00,
2013-09-22 12:10:00,68.4,43.1,30.00,NE,38,3.1,0.0,40,0.00,,,0.00,WeatherDisplay:10.36,2013-09-22 17:10:00,
2013-09-22 12:11:00,68.4,43.1,30.00,NNE,27,4.0,4.0,40,0.00,,,0.00,WeatherDisplay:10.36,2013-09-22 17:11:00,
2013-09-22 12:12:00,68.4,41.8,30.00,NNE,28,5.4,5.4,38,0.00,,,0.00,WeatherDisplay:10.36,2013-09-22 17:12:00,
2013-09-22 12:14:00,68.5,41.9,30.00,NNE,29,5.8,0.0,38,0.00,,,0.00,WeatherDisplay:10.36,2013-09-22 17:14:00,
2013-09-22 12:15:00,68.5,41.9,30.00,NNE,31,0.0,3.1,38,0.00,,,0.00,WeatherDisplay:10.36,2013-09-22 17:15:00,
2013-09-22 12:16:00,68.5,40.5,30.00,NNE,30,2.7,0.0,36,0.00,,,0.00,WeatherDisplay:10.36,2013-09-22 17:16:00,
2013-09-22 12:17:00,68.5,41.2,30.00,NNE,33,0.0,0.0,37,0.00,,,0.00,WeatherDisplay:10.36,2013-09-22 17:17:00,
2013-09-22 12:18:00,68.5,39.8,30.00,NNE,28,3.6,0.0,35,0.00,,,0.00,WeatherDisplay:10.36,2013-09-22 17:18:00,
2013-09-22 12:19:00,68.5,39.8,30.00,North,351,5.4,5.4,35,0.00,,,0.00,WeatherDisplay:10.36,2013-09-22 17:19:00,
2013-09-22 12:22:00,68.5,40.5,30.00,NNE,28,4.0,4.0,36,0.00,,,0.00,WeatherDisplay:10.36,2013-09-22 17:22:00,
2013-09-22 12:23:00,68.7,40.7,30.00,NNE,28,3.5,3.5,36,0.00,,,0.00,WeatherDisplay:10.36,2013-09-22 17:23:00,
2013-09-22 12:24:00,68.7,41.4,30.00,NNE,28,0.0,0.0,37,0.00,,,0.00,WeatherDisplay:10.36,2013-09-22 17:24:00,
2013-09-22 12:25:00,68.7,41.4,30.00,NNE,28,0.0,0.0,37,0.00,,,0.00,WeatherDisplay:10.36,2013-09-22 17:25:00,
2013-09-22 12:26:00,68.7,41.4,30.00,NE,39,4.5,4.5,37,0.00,,,0.00,WeatherDisplay:10.36,2013-09-22 17:26:00,
2013-09-22 12:27:00,68.7,41.4,30.00,NE,38,4.6,0.0,37,0.00,,,0.00,WeatherDisplay:10.36,2013-09-22 17:27:00,
2013-09-22 12:29:00,68.7,41.4,30.00,NE,34,4.6,4.6,37,0.00,,,0.00,WeatherDisplay:10.36,2013-09-22 17:29:00,
2013-09-22 12:30:00,68.9,41.5,30.00,NE,35,3.1,0.0,37,0.00,,,0.00,WeatherDisplay:10.36,2013-09-22 17:30:00,
2013-09-22 12:31:00,68.9,41.5,30.00,NE,39,4.0,4.0,37,0.00,,,0.00,WeatherDisplay:10.36,2013-09-22 17:31:00,
2013-09-22 12:32:00,68.9,41.5,30.00,NE,39,4.9,4.9,37,0.00,,,0.00,WeatherDisplay:10.36,2013-09-22 17:32:00,
2013-09-22 12:33:00,68.9,41.5,29.97,NE,39,4.6,4.6,37,0.00,,,0.00,WeatherDisplay:10.36,2013-09-22 17:33:00,
2013-09-22 12:34:00,68.9,42.2,29.97,NE,36,4.9,4.9,38,0.00,,,0.00,WeatherDisplay:10.36,2013-09-22 17:34:00,
2013-09-22 12:35:00,69.1,42.4,29.97,NE,38,4.9,4.9,38,0.00,,,0.00,WeatherDisplay:10.36,2013-09-22 17:35:00,
2013-09-22 12:37:00,69.1,42.4,29.97,NE,39,6.9,6.9,38,0.00,,,0.00,WeatherDisplay:10.36,2013-09-22 17:37:00,
2013-09-22 12:38:00,69.1,41.0,29.97,NNE,30,3.6,3.6,36,0.00,,,0.00,WeatherDisplay:10.36,2013-09-22 17:38:00,
2013-09-22 12:39:00,69.3,41.2,29.97,NNE,31,3.1,0.0,36,0.00,,,0.00,WeatherDisplay:10.36,2013-09-22 17:39:00,
2013-09-22 12:40:00,69.3,41.9,29.97,NNE,31,2.7,2.7,37,0.00,,,0.00,WeatherDisplay:10.36,2013-09-22 17:40:00,
2013-09-22 12:41:00,69.3,41.9,29.97,NNE,31,2.7,2.7,37,0.00,,,0.00,WeatherDisplay:10.36,2013-09-22 17:41:00,
2013-09-22 12:42:00,69.3,41.9,29.97,NNE,31,0.0,0.0,37,0.00,,,0.00,WeatherDisplay:10.36,2013-09-22 17:42:00,
2013-09-22 12:43:00,69.3,41.2,29.97,NE,39,5.4,0.0,36,0.00,,,0.00,WeatherDisplay:10.36,2013-09-22 17:43:00,
2013-09-22 12:45:00,69.4,41.3,29.97,NE,39,0.0,4.5,36,0.00,,,0.00,WeatherDisplay:10.36,2013-09-22 17:45:00,
2013-09-22 12:46:00,69.4,42.0,29.97,NE,39,3.6,3.6,37,0.00,,,0.00,WeatherDisplay:10.36,2013-09-22 17:46:00,
2013-09-22 12:47:00,69.4,41.3,29.97,NE,40,3.5,0.0,36,0.00,,,0.00,WeatherDisplay:10.36,2013-09-22 17:47:00,
2013-09-22 12:48:00,69.4,42.0,29.97,NE,39,4.9,0.0,37,0.00,,,0.00,WeatherDisplay:10.36,2013-09-22 17:48:00,
2013-09-22 12:49:00,69.4,42.0,29.97,NE,37,6.9,6.9,37,0.00,,,0.00,WeatherDisplay:10.36,2013-09-22 17:49:00,
2013-09-22 12:50:00,69.6,42.2,29.97,NE,38,4.9,4.9,37,0.00,,,0.00,WeatherDisplay:10.36,2013-09-22 17:50:00,
2013-09-22 12:52:00,69.4,41.3,29.97,NE,35,5.8,5.8,36,0.00,,,0.00,WeatherDisplay:10.36,2013-09-22 17:52:00,
2013-09-22 12:53:00,69.4,39.8,29.97,NNE,28,4.9,4.9,34,0.00,,,0.00,WeatherDisplay:10.36,2013-09-22 17:53:00,
2013-09-22 12:54:00,69.6,40.0,29.97,SSE,166,3.5,3.5,34,0.00,,,0.00,WeatherDisplay:10.36,2013-09-22 17:54:00,
2013-09-22 12:55:00,69.6,40.0,29.97,South,169,0.0,0.0,34,0.00,,,0.00,WeatherDisplay:10.36,2013-09-22 17:55:00,
2013-09-22 12:56:00,69.6,40.0,29.97,NNE,28,0.0,0.0,34,0.00,,,0.00,WeatherDisplay:10.36,2013-09-22 17:56:00,
2013-09-22 12:57:00,69.6,40.7,29.97,NE,39,5.4,5.4,35,0.00,,,0.00,WeatherDisplay:10.36,2013-09-22 17:57:00,
2013-09-22 12:58:00,69.6,40.7,29.97,NE,40,5.8,5.8,35,0.00,,,0.00,WeatherDisplay:10.36,2013-09-22 17:58:00,
2013-09-22 13:00:00,69.6,40.7,29.97,NE,39,0.0,0.0,35,0.00,,,0.00,WeatherDisplay:10.36,2013-09-22 18:00:00,
2013-09-22 13:01:00,69.6,41.5,29.97,NE,39,0.0,0.0,36,0.00,,,0.00,WeatherDisplay:10.36,2013-09-22 18:01:00,
2013-09-22 13:02:00,69.8,41.6,29.97,NE,40,4.5,0.0,36,0.00,,,0.00,WeatherDisplay:10.36,2013-09-22 18:02:00,
2013-09-22 13:03:00,69.8,41.6,29.97,NE,39,4.9,4.9,36,0.00,,,0.00,WeatherDisplay:10.36,2013-09-22 18:03:00,
2013-09-22 13:04:00,69.8,41.6,29.97,NE,39,3.6,0.0,36,0.00,,,0.00,WeatherDisplay:10.36,2013-09-22 18:04:00,
2013-09-22 13:05:00,69.8,40.9,29.97,NE,39,0.0,0.0,35,0.00,,,0.00,WeatherDisplay:10.36,2013-09-22 18:05:00,
2013-09-22 13:06:00,70.0,41.1,29.97,NE,39,5.8,5.8,35,0.00,,,0.00,WeatherDisplay:10.36,2013-09-22 18:06:00,
2013-09-22 13:09:00,70.0,41.8,29.97,NE,38,5.8,5.8,36,0.00,,,0.00,WeatherDisplay:10.36,2013-09-22 18:09:00,
2013-09-22 13:11:00,70.2,42.7,29.97,NE,37,4.6,4.6,37,0.00,,,0.00,WeatherDisplay:10.36,2013-09-22 18:11:00,
2013-09-22 13:13:00,70.2,42.7,29.97,NE,38,4.6,4.6,37,0.00,,,0.00,WeatherDisplay:10.36,2013-09-22 18:13:00,
2013-09-22 13:15:00,70.2,42.7,29.97,NE,38,0.0,2.7,37,0.00,,,0.00,WeatherDisplay:10.36,2013-09-22 18:15:00,
2013-09-22 13:16:00,70.3,42.8,29.97,NE,39,3.5,3.5,37,0.00,,,0.00,WeatherDisplay:10.36,2013-09-22 18:16:00,
2013-09-22 13:17:00,70.3,42.8,29.97,NE,38,0.0,0.0,37,0.00,,,0.00,WeatherDisplay:10.36,2013-09-22 18:17:00,
2013-09-22 13:18:00,70.3,42.8,29.97,NE,41,0.0,0.0,37,0.00,,,0.00,WeatherDisplay:10.36,2013-09-22 18:18:00,
2013-09-22 13:19:00,70.3,43.5,29.97,NE,40,7.8,7.8,38,0.00,,,0.00,WeatherDisplay:10.36,2013-09-22 18:19:00,
2013-09-22 13:20:00,70.3,43.5,29.97,NE,39,4.5,4.5,38,0.00,,,0.00,WeatherDisplay:10.36,2013-09-22 18:20:00,
2013-09-22 13:21:00,70.5,43.7,29.97,NE,39,4.6,4.6,38,0.00,,,0.00,WeatherDisplay:10.36,2013-09-22 18:21:00,
2013-09-22 13:23:00,70.5,43.7,29.97,NE,36,3.5,0.0,38,0.00,,,0.00,WeatherDisplay:10.36,2013-09-22 18:23:00,
2013-09-22 13:25:00,70.7,43.8,29.97,NE,39,0.0,0.0,38,0.00,,,0.00,WeatherDisplay:10.36,2013-09-22 18:25:00,
2013-09-22 13:26:00,70.7,42.4,29.97,North,351,4.5,0.0,36,0.00,,,0.00,WeatherDisplay:10.36,2013-09-22 18:26:00,
2013-09-22 13:27:00,70.7,42.4,29.97,North,351,4.6,0.0,36,0.00,,,0.00,WeatherDisplay:10.36,2013-09-22 18:27:00,
2013-09-22 13:31:00,70.9,42.6,29.97,NE,34,4.0,4.0,36,0.00,,,0.00,WeatherDisplay:10.36,2013-09-22 18:31:00,
2013-09-22 13:32:00,70.9,42.6,29.97,NE,35,4.0,4.0,36,0.00,,,0.00,WeatherDisplay:10.36,2013-09-22 18:32:00,
2013-09-22 13:33:00,70.9,42.6,29.97,NE,39,5.8,0.0,36,0.00,,,0.00,WeatherDisplay:10.36,2013-09-22 18:33:00,
2013-09-22 13:34:00,70.9,43.3,29.97,NE,39,5.8,5.8,37,0.00,,,0.00,WeatherDisplay:10.36,2013-09-22 18:34:00,
2013-09-22 13:35:00,71.1,43.5,29.97,NE,39,4.9,4.9,37,0.00,,,0.00,WeatherDisplay:10.36,2013-09-22 18:35:00,
2013-09-22 13:36:00,71.1,43.5,29.97,NE,39,4.6,4.6,37,0.00,,,0.00,WeatherDisplay:10.36,2013-09-22 18:36:00,
2013-09-22 13:38:00,71.1,43.5,29.97,NE,39,4.0,4.0,37,0.00,,,0.00,WeatherDisplay:10.36,2013-09-22 18:38:00,
2013-09-22 13:39:00,71.1,43.5,29.97,NE,37,4.6,4.6,37,0.00,,,0.00,WeatherDisplay:10.36,2013-09-22 18:39:00,
2013-09-22 13:40:00,71.2,43.6,29.97,NNE,33,0.0,0.0,37,0.00,,,0.00,WeatherDisplay:10.36,2013-09-22 18:40:00,
2013-09-22 13:41:00,71.2,42.9,29.97,NE,40,4.5,0.0,36,0.00,,,0.00,WeatherDisplay:10.36,2013-09-22 18:41:00,
2013-09-22 13:43:00,71.2,42.9,29.97,NE,38,4.9,4.9,36,0.00,,,0.00,WeatherDisplay:10.36,2013-09-22 18:43:00,
2013-09-22 13:45:00,71.4,43.1,29.97,NE,38,4.6,4.6,36,0.00,,,0.00,WeatherDisplay:10.36,2013-09-22 18:45:00,
2013-09-22 13:46:00,71.4,43.8,29.97,NE,38,4.0,4.0,37,0.00,,,0.00,WeatherDisplay:10.36,2013-09-22 18:46:00,
2013-09-22 13:47:00,71.4,43.8,29.97,NE,36,6.9,6.9,37,0.00,,,0.00,WeatherDisplay:10.36,2013-09-22 18:47:00,
2013-09-22 13:48:00,71.4,43.8,29.94,NE,36,4.6,4.9,37,0.00,,,0.00,WeatherDisplay:10.36,2013-09-22 18:48:00,
2013-09-22 13:49:00,71.4,43.8,29.94,NE,37,4.0,4.0,37,0.00,,,0.00,WeatherDisplay:10.36,2013-09-22 18:49:00,
2013-09-22 13:50:00,71.4,43.8,29.94,NE,37,3.6,3.6,37,0.00,,,0.00,WeatherDisplay:10.36,2013-09-22 18:50:00,
2013-09-22 13:51:00,71.4,43.8,29.94,NE,37,3.5,0.0,37,0.00,,,0.00,WeatherDisplay:10.36,2013-09-22 18:51:00,
2013-09-22 13:53:00,71.6,43.9,29.94,NE,36,5.8,0.0,37,0.00,,,0.00,WeatherDisplay:10.36,2013-09-22 18:53:00,
2013-09-22 13:55:00,71.6,43.2,29.94,NE,38,4.0,5.8,36,0.00,,,0.00,WeatherDisplay:10.36,2013-09-22 18:55:00,
2013-09-22 13:56:00,71.6,43.2,29.94,NE,39,4.9,4.9,36,0.00,,,0.00,WeatherDisplay:10.36,2013-09-22 18:56:00,
2013-09-22 13:57:00,71.8,44.1,29.94,NE,39,5.8,5.8,37,0.00,,,0.00,WeatherDisplay:10.36,2013-09-22 18:57:00,
2013-09-22 13:58:00,71.8,44.1,29.94,NE,39,3.5,0.0,37,0.00,,,0.00,WeatherDisplay:10.36,2013-09-22 18:58:00,
2013-09-22 13:59:00,71.8,44.1,29.94,NE,40,3.6,0.0,37,0.00,,,0.00,WeatherDisplay:10.36,2013-09-22 18:59:00,
2013-09-22 14:01:00,71.8,43.4,29.94,NE,39,2.3,0.0,36,0.00,,,0.00,WeatherDisplay:10.36,2013-09-22 19:01:00,
2013-09-22 14:02:00,72.0,42.8,29.94,NE,38,3.6,0.0,35,0.00,,,0.00,WeatherDisplay:10.36,2013-09-22 19:02:00,
2013-09-22 14:03:00,72.0,42.8,29.94,NNE,29,4.0,4.0,35,0.00,,,0.00,WeatherDisplay:10.36,2013-09-22 19:03:00,
2013-09-22 14:04:00,72.0,42.0,29.94,NNE,27,4.0,4.0,34,0.00,,,0.00,WeatherDisplay:10.36,2013-09-22 19:04:00,
2013-09-22 14:06:00,72.0,42.0,29.94,NE,37,4.5,4.5,34,0.00,,,0.00,WeatherDisplay:10.36,2013-09-22 19:06:00,
2013-09-22 14:08:00,72.0,42.0,29.94,NE,37,4.6,4.6,34,0.00,,,0.00,WeatherDisplay:10.36,2013-09-22 19:08:00,
2013-09-22 14:09:00,72.0,42.0,29.94,NE,38,4.9,4.9,34,0.00,,,0.00,WeatherDisplay:10.36,2013-09-22 19:09:00,
2013-09-22 14:10:00,72.0,42.8,29.94,NE,39,3.1,4.0,35,0.00,,,0.00,WeatherDisplay:10.36,2013-09-22 19:10:00,
2013-09-22 14:11:00,72.0,42.8,29.94,NE,36,4.5,4.5,35,0.00,,,0.00,WeatherDisplay:10.36,2013-09-22 19:11:00,
2013-09-22 14:12:00,72.0,42.8,29.94,NE,37,5.8,5.8,35,0.00,,,0.00,WeatherDisplay:10.36,2013-09-22 19:12:00,
2013-09-22 14:14:00,72.0,42.8,29.94,NE,39,6.9,6.9,35,0.00,,,0.00,WeatherDisplay:10.36,2013-09-22 19:14:00,
2013-09-22 14:15:00,72.0,42.8,29.94,NE,37,0.0,0.0,35,0.00,,,0.00,WeatherDisplay:10.36,2013-09-22 19:15:00,
2013-09-22 14:17:00,72.0,42.0,29.94,NE,38,2.7,0.0,34,0.00,,,0.00,WeatherDisplay:10.36,2013-09-22 19:17:00,
2013-09-22 14:18:00,72.0,42.0,29.94,NE,38,5.8,5.8,34,0.00,,,0.00,WeatherDisplay:10.36,2013-09-22 19:18:00,
2013-09-22 14:19:00,72.0,42.0,29.94,NE,40,5.8,5.8,34,0.00,,,0.00,WeatherDisplay:10.36,2013-09-22 19:19:00,
2013-09-22 14:20:00,72.0,42.8,29.94,NE,39,4.5,4.5,35,0.00,,,0.00,WeatherDisplay:10.36,2013-09-22 19:20:00,
2013-09-22 14:21:00,72.1,43.0,29.94,NE,39,4.6,4.6,35,0.00,,,0.00,WeatherDisplay:10.36,2013-09-22 19:21:00,
2013-09-22 14:22:00,72.1,43.0,29.94,NE,39,4.0,4.0,35,0.00,,,0.00,WeatherDisplay:10.36,2013-09-22 19:22:00,
2013-09-22 14:24:00,72.1,43.0,29.94,NE,39,4.0,4.0,35,0.00,,,0.00,WeatherDisplay:10.36,2013-09-22 19:24:00,
2013-09-22 14:25:00,72.1,43.0,29.94,NE,35,2.7,2.7,35,0.00,,,0.00,WeatherDisplay:10.36,2013-09-22 19:25:00,
2013-09-22 14:26:00,72.1,43.7,29.94,NE,40,6.3,6.3,36,0.00,,,0.00,WeatherDisplay:10.36,2013-09-22 19:26:00,
2013-09-22 14:27:00,72.3,43.9,29.94,NNE,27,5.8,5.8,36,0.00,,,0.00,WeatherDisplay:10.36,2013-09-22 19:27:00,
2013-09-22 14:28:00,72.3,43.1,29.94,NNE,27,3.6,0.0,35,0.00,,,0.00,WeatherDisplay:10.36,2013-09-22 19:28:00,
2013-09-22 14:29:00,72.3,43.1,29.94,NE,35,4.0,0.0,35,0.00,,,0.00,WeatherDisplay:10.36,2013-09-22 19:29:00,
2013-09-22 14:30:00,72.3,42.4,29.94,NE,43,3.6,0.0,34,0.00,,,0.00,WeatherDisplay:10.36,2013-09-22 19:30:00,
2013-09-22 14:34:00,72.3,42.4,30.76,North,351,0.0,0.0,34,0.00,,,0.00,WeatherDisplay:10.36,2013-09-22 19:34:00,
2013-09-22 14:36:00,72.3,42.4,30.76,NE,38,5.8,5.8,34,0.00,,,0.00,WeatherDisplay:10.36,2013-09-22 19:36:00,
2013-09-22 14:37:00,72.3,42.4,30.76,NE,37,4.6,4.6,34,0.00,,,0.00,WeatherDisplay:10.36,2013-09-22 19:37:00,
2013-09-22 14:38:00,72.3,42.4,30.76,NE,39,4.0,4.0,34,0.00,,,0.00,WeatherDisplay:10.36,2013-09-22 19:38:00,
2013-09-22 14:39:00,72.5,42.5,30.76,NE,39,3.5,0.0,34,0.00,,,0.00,WeatherDisplay:10.36,2013-09-22 19:39:00,
2013-09-22 14:41:00,72.5,42.5,30.76,NE,39,4.0,0.0,34,0.00,,,0.00,WeatherDisplay:10.36,2013-09-22 19:41:00,
2013-09-22 14:42:00,72.5,42.5,30.76,NE,39,0.0,2.7,34,0.00,,,0.00,WeatherDisplay:10.36,2013-09-22 19:42:00,
2013-09-22 14:43:00,72.5,42.5,30.76,NE,39,3.6,0.0,34,0.00,,,0.00,WeatherDisplay:10.36,2013-09-22 19:43:00,
2013-09-22 14:44:00,72.5,42.5,30.76,NNE,33,4.0,4.0,34,0.00,,,0.00,WeatherDisplay:10.36,2013-09-22 19:44:00,
2013-09-22 14:45:00,72.5,42.5,30.76,NNE,33,3.1,3.1,34,0.00,,,0.00,WeatherDisplay:10.36,2013-09-22 19:45:00,
2013-09-22 14:46:00,72.5,41.7,30.76,NNE,32,3.5,0.0,33,0.00,,,0.00,WeatherDisplay:10.36,2013-09-22 19:46:00,
2013-09-22 14:47:00,72.5,41.7,29.94,NNE,32,0.0,0.0,33,0.00,,,0.00,WeatherDisplay:10.36,2013-09-22 19:47:00,
2013-09-22 14:49:00,72.7,41.9,29.94,NNE,33,3.5,0.0,33,0.00,,,0.00,WeatherDisplay:10.36,2013-09-22 19:49:00,
2013-09-22 14:50:00,72.7,42.7,29.94,NE,38,4.9,4.9,34,0.00,,,0.00,WeatherDisplay:10.36,2013-09-22 19:50:00,
2013-09-22 14:51:00,72.7,42.7,29.94,NE,36,5.8,5.8,34,0.00,,,0.00,WeatherDisplay:10.36,2013-09-22 19:51:00,
2013-09-22 14:52:00,72.7,41.9,29.94,NE,35,2.7,0.0,33,0.00,,,0.00,WeatherDisplay:10.36,2013-09-22 19:52:00,
2013-09-22 14:54:00,72.7,41.9,29.94,NE,34,3.6,0.0,33,0.00,,,0.00,WeatherDisplay:10.36,2013-09-22 19:54:00,
2013-09-22 14:57:00,72.7,41.1,29.94,NNE,27,3.5,0.0,32,0.00,,,0.00,WeatherDisplay:10.36,2013-09-22 19:57:00,
2013-09-22 14:58:00,72.7,40.3,29.94,NNE,27,4.6,0.0,31,0.00,,,0.00,WeatherDisplay:10.36,2013-09-22 19:58:00,
2013-09-22 14:59:00,72.7,40.3,29.94,NNE,27,0.0,0.0,31,0.00,,,0.00,WeatherDisplay:10.36,2013-09-22 19:59:00,
2013-09-22 15:00:00,72.7,41.1,29.94,NNE,27,0.0,0.0,32,0.00,,,0.00,WeatherDisplay:10.36,2013-09-22 20:00:00,
2013-09-22 15:01:00,72.7,41.1,29.94,NE,37,5.8,5.8,32,0.00,,,0.00,WeatherDisplay:10.36,2013-09-22 20:01:00,
2013-09-22 15:02:00,72.7,41.1,29.94,NE,37,4.9,4.9,32,0.00,,,0.00,WeatherDisplay:10.36,2013-09-22 20:02:00,
2013-09-22 15:04:00,72.7,41.1,29.94,NE,38,5.8,5.8,32,0.00,,,0.00,WeatherDisplay:10.36,2013-09-22 20:04:00,
2013-09-22 15:05:00,72.7,41.1,29.94,NE,39,5.4,5.4,32,0.00,,,0.00,WeatherDisplay:10.36,2013-09-22 20:05:00,
2013-09-22 15:06:00,72.7,41.1,29.94,NE,40,6.7,6.7,32,0.00,,,0.00,WeatherDisplay:10.36,2013-09-22 20:06:00,
2013-09-22 15:07:00,72.7,41.9,29.94,NE,36,6.9,6.9,33,0.00,,,0.00,WeatherDisplay:10.36,2013-09-22 20:07:00,
2013-09-22 15:08:00,72.7,41.9,29.94,NE,34,4.9,4.9,33,0.00,,,0.00,WeatherDisplay:10.36,2013-09-22 20:08:00,
2013-09-22 15:10:00,72.7,41.9,29.94,NE,39,7.4,7.4,33,0.00,,,0.00,WeatherDisplay:10.36,2013-09-22 20:10:00,
2013-09-22 15:12:00,72.7,41.9,29.94,NE,39,6.9,6.9,33,0.00,,,0.00,WeatherDisplay:10.36,2013-09-22 20:12:00,
2013-09-22 15:13:00,72.9,42.1,29.94,NE,38,5.4,0.0,33,0.00,,,0.00,WeatherDisplay:10.36,2013-09-22 20:13:00,
2013-09-22 15:14:00,72.9,42.1,29.94,NNE,33,5.8,5.8,33,0.00,,,0.00,WeatherDisplay:10.36,2013-09-22 20:14:00,
2013-09-22 15:15:00,72.9,42.1,29.94,NNE,31,4.9,4.9,33,0.00,,,0.00,WeatherDisplay:10.36,2013-09-22 20:15:00,
2013-09-22 15:16:00,72.9,42.1,29.94,NNE,31,5.8,5.8,33,0.00,,,0.00,WeatherDisplay:10.36,2013-09-22 20:16:00,
2013-09-22 15:17:00,72.9,41.3,29.94,NNE,31,3.6,0.0,32,0.00,,,0.00,WeatherDisplay:10.36,2013-09-22 20:17:00,
2013-09-22 15:18:00,72.9,41.3,29.94,NE,36,4.9,4.9,32,0.00,,,0.00,WeatherDisplay:10.36,2013-09-22 20:18:00,
2013-09-22 15:22:00,72.9,42.1,29.94,NE,34,5.8,5.8,33,0.00,,,0.00,WeatherDisplay:10.36,2013-09-22 20:22:00,
2013-09-22 15:26:00,72.9,42.1,29.94,NE,40,4.9,0.0,33,0.00,,,0.00,WeatherDisplay:10.36,2013-09-22 20:26:00,
2013-09-22 15:27:00,72.9,42.1,29.94,NE,41,4.9,4.9,33,0.00,,,0.00,WeatherDisplay:10.36,2013-09-22 20:27:00,
2013-09-22 15:29:00,72.9,42.1,29.94,NE,41,4.6,0.0,33,0.00,,,0.00,WeatherDisplay:10.36,2013-09-22 20:29:00,
2013-09-22 15:30:00,72.9,42.1,29.94,NE,39,6.3,0.0,33,0.00,,,0.00,WeatherDisplay:10.36,2013-09-22 20:30:00,
2013-09-22 15:31:00,73.0,42.2,29.94,NE,38,6.3,6.3,33,0.00,,,0.00,WeatherDisplay:10.36,2013-09-22 20:31:00,
2013-09-22 15:32:00,73.0,42.2,29.94,NE,35,8.1,8.1,33,0.00,,,0.00,WeatherDisplay:10.36,2013-09-22 20:32:00,
2013-09-22 15:33:00,73.0,42.2,29.91,NE,35,6.9,6.9,33,0.00,,,0.00,WeatherDisplay:10.36,2013-09-22 20:33:00,
2013-09-22 15:34:00,73.0,42.2,29.91,NNE,31,3.6,3.6,33,0.00,,,0.00,WeatherDisplay:10.36,2013-09-22 20:34:00,
2013-09-22 15:35:00,73.0,41.4,29.91,NE,39,5.8,5.8,32,0.00,,,0.00,WeatherDisplay:10.36,2013-09-22 20:35:00,
2013-09-22 15:37:00,73.0,41.4,29.91,NE,38,9.2,9.2,32,0.00,,,0.00,WeatherDisplay:10.36,2013-09-22 20:37:00,
2013-09-22 15:40:00,72.9,41.3,29.91,NE,38,3.1,0.0,32,0.00,,,0.00,WeatherDisplay:10.36,2013-09-22 20:40:00,
2013-09-22 15:41:00,72.9,41.3,29.91,NE,41,3.6,0.0,32,0.00,,,0.00,WeatherDisplay:10.36,2013-09-22 20:41:00,
2013-09-22 15:42:00,73.0,42.2,29.91,NE,37,5.8,5.8,33,0.00,,,0.00,WeatherDisplay:10.36,2013-09-22 20:42:00,
2013-09-22 15:43:00,73.0,42.2,29.91,NE,37,4.9,4.9,33,0.00,,,0.00,WeatherDisplay:10.36,2013-09-22 20:43:00,
2013-09-22 15:46:00,73.0,42.2,29.91,NE,38,6.9,6.9,33,0.00,,,0.00,WeatherDisplay:10.36,2013-09-22 20:46:00,
2013-09-22 15:47:00,73.0,42.2,29.91,NE,40,6.9,6.9,33,0.00,,,0.00,WeatherDisplay:10.36,2013-09-22 20:47:00,
2013-09-22 15:49:00,73.0,42.2,29.91,NE,37,4.9,4.9,33,0.00,,,0.00,WeatherDisplay:10.36,2013-09-22 20:49:00,
2013-09-22 15:50:00,73.0,42.2,29.91,NE,39,4.9,4.9,33,0.00,,,0.00,WeatherDisplay:10.36,2013-09-22 20:50:00,
2013-09-22 15:51:00,73.2,42.4,29.91,NE,38,5.8,5.8,33,0.00,,,0.00,WeatherDisplay:10.36,2013-09-22 20:51:00,
2013-09-22 15:53:00,73.2,42.4,29.91,NE,38,5.8,5.8,33,0.00,,,0.00,WeatherDisplay:10.36,2013-09-22 20:53:00,
2013-09-22 15:54:00,73.2,42.4,29.91,NE,37,4.9,4.9,33,0.00,,,0.00,WeatherDisplay:10.36,2013-09-22 20:54:00,
2013-09-22 15:55:00,73.0,42.2,29.91,NE,37,3.1,4.0,33,0.00,,,0.00,WeatherDisplay:10.36,2013-09-22 20:55:00,
2013-09-22 15:59:00,73.0,42.2,29.91,NE,39,5.8,5.8,33,0.00,,,0.00,WeatherDisplay:10.36,2013-09-22 20:59:00,
2013-09-22 16:01:00,73.0,42.2,29.91,NE,39,5.8,5.8,33,0.00,,,0.00,WeatherDisplay:10.36,2013-09-22 21:01:00,
2013-09-22 16:02:00,73.0,42.2,29.91,NE,39,5.8,5.8,33,0.00,,,0.00,WeatherDisplay:10.36,2013-09-22 21:02:00,
2013-09-22 16:04:00,73.0,42.2,29.91,NE,39,4.6,4.6,33,0.00,,,0.00,WeatherDisplay:10.36,2013-09-22 21:04:00,
2013-09-22 16:06:00,73.0,42.2,29.91,NE,36,5.8,5.8,33,0.00,,,0.00,WeatherDisplay:10.36,2013-09-22 21:06:00,
2013-09-22 16:07:00,73.0,42.2,29.91,NE,38,5.8,5.8,33,0.00,,,0.00,WeatherDisplay:10.36,2013-09-22 21:07:00,
2013-09-22 16:09:00,73.0,42.2,29.91,NE,39,5.8,5.8,33,0.00,,,0.00,WeatherDisplay:10.36,2013-09-22 21:09:00,
2013-09-22 16:10:00,73.0,42.2,29.91,NE,39,0.0,4.0,33,0.00,,,0.00,WeatherDisplay:10.36,2013-09-22 21:10:00,
2013-09-22 16:12:00,73.0,42.2,29.91,NE,39,6.3,6.3,33,0.00,,,0.00,WeatherDisplay:10.36,2013-09-22 21:12:00,
2013-09-22 16:13:00,73.0,42.2,29.91,NE,38,6.3,6.3,33,0.00,,,0.00,WeatherDisplay:10.36,2013-09-22 21:13:00,
2013-09-22 16:14:00,73.0,42.2,29.91,NE,39,4.9,4.9,33,0.00,,,0.00,WeatherDisplay:10.36,2013-09-22 21:14:00,
2013-09-22 16:17:00,73.0,41.4,29.91,NE,40,5.8,5.8,32,0.00,,,0.00,WeatherDisplay:10.36,2013-09-22 21:17:00,
2013-09-22 16:18:00,72.9,40.4,29.91,NNE,27,4.0,4.0,31,0.00,,,0.00,WeatherDisplay:10.36,2013-09-22 21:18:00,
2013-09-22 16:19:00,72.9,40.4,29.91,NNE,27,3.5,3.5,31,0.00,,,0.00,WeatherDisplay:10.36,2013-09-22 21:19:00,
2013-09-22 16:20:00,72.9,40.4,29.91,NE,35,6.3,6.3,31,0.00,,,0.00,WeatherDisplay:10.36,2013-09-22 21:20:00,
2013-09-22 16:22:00,72.9,41.3,29.91,NE,37,4.6,4.6,32,0.00,,,0.00,WeatherDisplay:10.36,2013-09-22 21:22:00,
2013-09-22 16:23:00,72.9,41.3,29.91,NE,37,4.6,4.6,32,0.00,,,0.00,WeatherDisplay:10.36,2013-09-22 21:23:00,
2013-09-22 16:26:00,72.9,41.3,29.91,NE,35,3.5,0.0,32,0.00,,,0.00,WeatherDisplay:10.36,2013-09-22 21:26:00,
2013-09-22 16:28:00,72.9,41.3,29.91,NE,34,8.3,8.3,32,0.00,,,0.00,WeatherDisplay:10.36,2013-09-22 21:28:00,
2013-09-22 16:29:00,72.9,41.3,29.91,NE,34,5.8,5.8,32,0.00,,,0.00,WeatherDisplay:10.36,2013-09-22 21:29:00,
2013-09-22 16:30:00,72.9,41.3,29.91,NE,39,5.8,0.0,32,0.00,,,0.00,WeatherDisplay:10.36,2013-09-22 21:30:00,
2013-09-22 16:31:00,72.9,41.3,29.91,NE,39,5.8,5.8,32,0.00,,,0.00,WeatherDisplay:10.36,2013-09-22 21:31:00,
2013-09-22 16:34:00,72.9,42.1,29.91,NE,39,4.0,4.0,33,0.00,,,0.00,WeatherDisplay:10.36,2013-09-22 21:34:00,
2013-09-22 16:36:00,72.9,42.1,29.91,NE,34,4.0,0.0,33,0.00,,,0.00,WeatherDisplay:10.36,2013-09-22 21:36:00,
2013-09-22 16:38:00,72.9,42.1,29.91,NE,39,6.9,6.9,33,0.00,,,0.00,WeatherDisplay:10.36,2013-09-22 21:38:00,
2013-09-22 16:39:00,72.9,42.1,29.91,NE,39,5.4,5.4,33,0.00,,,0.00,WeatherDisplay:10.36,2013-09-22 21:39:00,
2013-09-22 16:40:00,72.9,42.1,29.91,NE,39,5.4,5.4,33,0.00,,,0.00,WeatherDisplay:10.36,2013-09-22 21:40:00,
2013-09-22 16:42:00,72.9,42.1,29.91,NE,38,5.8,5.8,33,0.00,,,0.00,WeatherDisplay:10.36,2013-09-22 21:42:00,
2013-09-22 16:43:00,72.9,42.1,29.91,NE,37,4.9,4.9,33,0.00,,,0.00,WeatherDisplay:10.36,2013-09-22 21:43:00,
2013-09-22 16:44:00,72.9,42.1,29.91,NE,37,4.0,4.0,33,0.00,,,0.00,WeatherDisplay:10.36,2013-09-22 21:44:00,
2013-09-22 16:45:00,72.9,42.1,29.91,NE,38,5.8,5.8,33,0.00,,,0.00,WeatherDisplay:10.36,2013-09-22 21:45:00,
2013-09-22 16:48:00,72.7,41.1,29.91,NE,39,5.8,5.8,32,0.00,,,0.00,WeatherDisplay:10.36,2013-09-22 21:48:00,
2013-09-22 16:50:00,72.7,41.9,29.91,NE,40,2.7,4.5,33,0.00,,,0.00,WeatherDisplay:10.36,2013-09-22 21:50:00,
2013-09-22 16:51:00,72.7,41.9,29.91,NE,39,4.0,4.0,33,0.00,,,0.00,WeatherDisplay:10.36,2013-09-22 21:51:00,
2013-09-22 16:55:00,72.7,41.1,29.91,NE,34,3.1,0.0,32,0.00,,,0.00,WeatherDisplay:10.36,2013-09-22 21:55:00,
2013-09-22 16:56:00,72.7,41.1,29.91,NE,34,3.5,3.5,32,0.00,,,0.00,WeatherDisplay:10.36,2013-09-22 21:56:00,
2013-09-22 16:58:00,72.5,41.0,29.91,NE,39,5.8,0.0,32,0.00,,,0.00,WeatherDisplay:10.36,2013-09-22 21:58:00,
2013-09-22 16:59:00,72.7,41.1,29.91,NE,35,4.9,4.9,32,0.00,,,0.00,WeatherDisplay:10.36,2013-09-22 21:59:00,
2013-09-22 17:00:00,72.5,41.0,29.91,NE,38,5.8,5.8,32,0.00,,,0.00,WeatherDisplay:10.36,2013-09-22 22:00:00,
2013-09-22 17:03:00,72.5,41.0,29.91,NE,37,4.6,4.6,32,0.00,,,0.00,WeatherDisplay:10.36,2013-09-22 22:03:00,
2013-09-22 17:06:00,72.5,41.0,29.91,NE,39,3.6,0.0,32,0.00,,,0.00,WeatherDisplay:10.36,2013-09-22 22:06:00,
2013-09-22 17:07:00,72.5,41.0,29.91,NE,39,4.0,0.0,32,0.00,,,0.00,WeatherDisplay:10.36,2013-09-22 22:07:00,
2013-09-22 17:08:00,72.5,41.0,29.91,NNE,29,4.0,4.0,32,0.00,,,0.00,WeatherDisplay:10.36,2013-09-22 22:08:00,
2013-09-22 17:09:00,72.3,40.8,29.91,NE,39,4.9,4.9,32,0.00,,,0.00,WeatherDisplay:10.36,2013-09-22 22:09:00,
2013-09-22 17:10:00,72.3,40.8,29.91,NE,38,4.0,4.0,32,0.00,,,0.00,WeatherDisplay:10.36,2013-09-22 22:10:00,
2013-09-22 17:11:00,72.3,40.8,29.91,NE,38,4.9,4.9,32,0.00,,,0.00,WeatherDisplay:10.36,2013-09-22 22:11:00,
2013-09-22 17:15:00,72.3,40.8,29.91,NNE,32,3.6,0.0,32,0.00,,,0.00,WeatherDisplay:10.36,2013-09-22 22:15:00,
2013-09-22 17:16:00,72.3,40.8,29.91,NE,37,4.9,4.9,32,0.00,,,0.00,WeatherDisplay:10.36,2013-09-22 22:16:00,
2013-09-22 17:17:00,72.3,40.8,29.91,NE,37,4.6,4.6,32,0.00,,,0.00,WeatherDisplay:10.36,2013-09-22 22:17:00,
2013-09-22 17:18:00,72.3,40.8,29.91,NE,37,0.0,0.0,32,0.00,,,0.00,WeatherDisplay:10.36,2013-09-22 22:18:00,
2013-09-22 17:19:00,72.3,40.8,29.91,NE,36,0.0,0.0,32,0.00,,,0.00,WeatherDisplay:10.36,2013-09-22 22:19:00,
2013-09-22 17:20:00,72.1,40.6,29.91,NNE,32,3.6,0.0,32,0.00,,,0.00,WeatherDisplay:10.36,2013-09-22 22:20:00,
2013-09-22 17:22:00,72.1,40.6,29.91,NNE,32,3.5,0.0,32,0.00,,,0.00,WeatherDisplay:10.36,2013-09-22 22:22:00,
2013-09-22 17:24:00,72.1,40.6,29.91,NE,34,0.0,0.0,32,0.00,,,0.00,WeatherDisplay:10.36,2013-09-22 22:24:00,
2013-09-22 17:25:00,72.1,40.6,29.91,NE,39,4.9,4.9,32,0.00,,,0.00,WeatherDisplay:10.36,2013-09-22 22:25:00,
2013-09-22 17:26:00,72.1,40.6,29.91,NE,40,4.6,4.6,32,0.00,,,0.00,WeatherDisplay:10.36,2013-09-22 22:26:00,
2013-09-22 17:27:00,72.1,40.6,29.91,NE,37,6.3,6.3,32,0.00,,,0.00,WeatherDisplay:10.36,2013-09-22 22:27:00,
2013-09-22 17:28:00,72.1,40.6,29.91,NE,38,5.8,5.8,32,0.00,,,0.00,WeatherDisplay:10.36,2013-09-22 22:28:00,
2013-09-22 17:30:00,72.1,40.6,29.91,NE,38,4.0,0.0,32,0.00,,,0.00,WeatherDisplay:10.36,2013-09-22 22:30:00,
2013-09-22 17:31:00,72.0,40.5,29.91,NE,38,6.3,6.3,32,0.00,,,0.00,WeatherDisplay:10.36,2013-09-22 22:31:00,
2013-09-22 17:32:00,72.0,40.5,29.91,NE,38,4.0,0.0,32,0.00,,,0.00,WeatherDisplay:10.36,2013-09-22 22:32:00,
2013-09-22 17:34:00,72.0,41.3,29.91,NE,38,6.7,6.7,33,0.00,,,0.00,WeatherDisplay:10.36,2013-09-22 22:34:00,
2013-09-22 17:36:00,72.0,41.3,29.91,NE,39,6.3,6.3,33,0.00,,,0.00,WeatherDisplay:10.36,2013-09-22 22:36:00,
2013-09-22 17:38:00,72.0,41.3,29.91,NE,39,5.8,5.8,33,0.00,,,0.00,WeatherDisplay:10.36,2013-09-22 22:38:00,
2013-09-22 17:39:00,72.0,41.3,29.91,NE,39,3.6,3.6,33,0.00,,,0.00,WeatherDisplay:10.36,2013-09-22 22:39:00,
2013-09-22 17:40:00,72.0,41.3,29.91,NE,38,4.5,4.5,33,0.00,,,0.00,WeatherDisplay:10.36,2013-09-22 22:40:00,
2013-09-22 17:42:00,72.0,41.3,29.91,NE,39,5.8,5.8,33,0.00,,,0.00,WeatherDisplay:10.36,2013-09-22 22:42:00,
2013-09-22 17:44:00,71.8,41.1,29.91,NE,35,4.0,0.0,33,0.00,,,0.00,WeatherDisplay:10.36,2013-09-22 22:44:00,
2013-09-22 17:47:00,71.8,41.1,29.91,NE,38,5.8,5.8,33,0.00,,,0.00,WeatherDisplay:10.36,2013-09-22 22:47:00,
2013-09-22 17:48:00,71.8,41.1,29.91,NE,38,4.0,4.0,33,0.00,,,0.00,WeatherDisplay:10.36,2013-09-22 22:48:00,
2013-09-22 17:49:00,71.8,41.1,29.91,NE,38,4.0,4.0,33,0.00,,,0.00,WeatherDisplay:10.36,2013-09-22 22:49:00,
2013-09-22 17:51:00,71.8,41.1,29.91,NE,39,4.0,4.0,33,0.00,,,0.00,WeatherDisplay:10.36,2013-09-22 22:51:00,
2013-09-22 17:52:00,71.6,41.0,29.91,NE,39,4.0,4.0,33,0.00,,,0.00,WeatherDisplay:10.36,2013-09-22 22:52:00,
2013-09-22 17:56:00,71.6,41.0,29.91,NNE,31,0.0,0.0,33,0.00,,,0.00,WeatherDisplay:10.36,2013-09-22 22:56:00,
2013-09-22 17:57:00,71.4,40.0,29.91,NNE,31,0.0,0.0,32,0.00,,,0.00,WeatherDisplay:10.36,2013-09-22 22:57:00,
2013-09-22 17:58:00,71.4,40.8,29.91,NE,39,5.4,0.0,33,0.00,,,0.00,WeatherDisplay:10.36,2013-09-22 22:58:00,
2013-09-22 18:00:00,71.4,40.8,29.91,NE,39,2.7,3.1,33,0.00,,,0.00,WeatherDisplay:10.36,2013-09-22 23:00:00,
2013-09-22 18:03:00,71.2,40.6,29.91,NE,39,0.0,0.0,33,0.00,,,0.00,WeatherDisplay:10.36,2013-09-22 23:03:00,
2013-09-22 18:04:00,71.2,40.6,29.91,NE,39,0.0,0.0,33,0.00,,,0.00,WeatherDisplay:10.36,2013-09-22 23:04:00,
2013-09-22 18:06:00,71.1,40.5,29.91,NNE,30,3.5,0.0,33,0.00,,,0.00,WeatherDisplay:10.36,2013-09-22 23:06:00,
2013-09-22 18:08:00,70.9,40.3,29.91,NNE,33,4.0,4.0,33,0.00,,,0.00,WeatherDisplay:10.36,2013-09-22 23:08:00,
2013-09-22 18:10:00,70.9,40.3,29.91,NNE,33,0.0,2.7,33,0.00,,,0.00,WeatherDisplay:10.36,2013-09-22 23:10:00,
2013-09-22 18:11:00,70.9,41.1,29.91,NNE,33,3.6,0.0,34,0.00,,,0.00,WeatherDisplay:10.36,2013-09-22 23:11:00,
2013-09-22 18:12:00,70.9,41.1,29.91,NNE,33,2.3,0.0,34,0.00,,,0.00,WeatherDisplay:10.36,2013-09-22 23:12:00,
2013-09-22 18:13:00,70.7,40.9,29.91,NNE,33,0.0,0.0,34,0.00,,,0.00,WeatherDisplay:10.36,2013-09-22 23:13:00,
2013-09-22 18:14:00,70.7,40.9,29.91,NNE,33,0.0,0.0,34,0.00,,,0.00,WeatherDisplay:10.36,2013-09-22 23:14:00,
2013-09-22 18:18:00,70.5,41.5,29.91,NNE,33,0.0,0.0,35,0.00,,,0.00,WeatherDisplay:10.36,2013-09-22 23:18:00,
2013-09-22 18:19:00,70.3,41.4,29.91,NNE,33,0.0,0.0,35,0.00,,,0.00,WeatherDisplay:10.36,2013-09-22 23:19:00,
2013-09-22 18:21:00,70.3,41.4,29.91,NNE,33,0.0,0.0,35,0.00,,,0.00,WeatherDisplay:10.36,2013-09-22 23:21:00,
2013-09-22 18:22:00,70.2,41.2,29.91,NNE,33,0.0,0.0,35,0.00,,,0.00,WeatherDisplay:10.36,2013-09-22 23:22:00,
2013-09-22 18:25:00,70.2,41.2,29.91,NNE,33,0.0,0.0,35,0.00,,,0.00,WeatherDisplay:10.36,2013-09-22 23:25:00,
2013-09-22 18:26:00,70.0,41.1,29.91,NNE,33,0.0,0.0,35,0.00,,,0.00,WeatherDisplay:10.36,2013-09-22 23:26:00,
2013-09-22 18:28:00,70.0,41.1,29.91,NNE,33,0.0,0.0,35,0.00,,,0.00,WeatherDisplay:10.36,2013-09-22 23:28:00,
2013-09-22 18:31:00,69.8,41.6,29.91,NNE,33,0.0,0.0,36,0.00,,,0.00,WeatherDisplay:10.36,2013-09-22 23:31:00,
2013-09-22 18:33:00,69.6,41.5,29.91,NNE,33,0.0,0.0,36,0.00,,,0.00,WeatherDisplay:10.36,2013-09-22 23:33:00,
2013-09-22 18:34:00,69.6,41.5,29.91,NNE,33,0.0,0.0,36,0.00,,,0.00,WeatherDisplay:10.36,2013-09-22 23:34:00,
2013-09-22 18:35:00,69.6,41.5,29.91,NNE,33,0.0,0.0,36,0.00,,,0.00,WeatherDisplay:10.36,2013-09-22 23:35:00,
2013-09-22 18:36:00,69.4,41.3,29.91,NNE,33,0.0,0.0,36,0.00,,,0.00,WeatherDisplay:10.36,2013-09-22 23:36:00,
2013-09-22 18:37:00,69.4,41.3,29.91,NNE,33,0.0,0.0,36,0.00,,,0.00,WeatherDisplay:10.36,2013-09-22 23:37:00,
2013-09-22 18:38:00,69.3,41.9,29.91,NNE,33,0.0,0.0,37,0.00,,,0.00,WeatherDisplay:10.36,2013-09-22 23:38:00,
2013-09-22 18:39:00,69.3,41.9,29.91,NNE,33,0.0,0.0,37,0.00,,,0.00,WeatherDisplay:10.36,2013-09-22 23:39:00,
2013-09-22 18:41:00,69.3,41.9,29.91,NNE,33,0.0,0.0,37,0.00,,,0.00,WeatherDisplay:10.36,2013-09-22 23:41:00,
2013-09-22 18:42:00,69.1,41.7,29.91,NNE,33,0.0,0.0,37,0.00,,,0.00,WeatherDisplay:10.36,2013-09-22 23:42:00,
2013-09-22 18:43:00,69.1,41.7,29.91,NNE,33,0.0,0.0,37,0.00,,,0.00,WeatherDisplay:10.36,2013-09-22 23:43:00,
2013-09-22 18:44:00,69.1,42.4,29.91,NNE,33,0.0,0.0,38,0.00,,,0.00,WeatherDisplay:10.36,2013-09-22 23:44:00,
2013-09-22 18:45:00,69.1,42.4,29.91,NNE,33,0.0,0.0,38,0.00,,,0.00,WeatherDisplay:10.36,2013-09-22 23:45:00,
2013-09-22 18:46:00,69.1,43.7,29.91,NNE,33,0.0,0.0,40,0.00,,,0.00,WeatherDisplay:10.36,2013-09-22 23:46:00,
2013-09-22 18:47:00,69.1,44.4,29.91,NNE,33,0.0,0.0,41,0.00,,,0.00,WeatherDisplay:10.36,2013-09-22 23:47:00,
2013-09-22 18:49:00,69.1,45.0,29.91,NNE,33,0.0,0.0,42,0.00,,,0.00,WeatherDisplay:10.36,2013-09-22 23:49:00,
2013-09-22 18:50:00,69.1,45.6,29.91,NNE,33,0.0,0.0,43,0.00,,,0.00,WeatherDisplay:10.36,2013-09-22 23:50:00,
2013-09-22 18:51:00,68.9,45.5,29.91,NNE,33,0.0,0.0,43,0.00,,,0.00,WeatherDisplay:10.36,2013-09-22 23:51:00,
2013-09-22 18:52:00,68.9,46.1,29.91,NNE,33,0.0,0.0,44,0.00,,,0.00,WeatherDisplay:10.36,2013-09-22 23:52:00,
2013-09-22 18:53:00,68.9,46.1,29.91,NNE,33,0.0,0.0,44,0.00,,,0.00,WeatherDisplay:10.36,2013-09-22 23:53:00,
2013-09-22 18:54:00,68.9,46.7,29.91,NNE,33,0.0,0.0,45,0.00,,,0.00,WeatherDisplay:10.36,2013-09-22 23:54:00,
2013-09-22 18:56:00,68.9,46.7,29.91,NNE,33,0.0,0.0,45,0.00,,,0.00,WeatherDisplay:10.36,2013-09-22 23:56:00,
2013-09-22 18:57:00,68.9,47.3,29.91,NNE,33,0.0,0.0,46,0.00,,,0.00,WeatherDisplay:10.36,2013-09-22 23:57:00,
2013-09-22 18:58:00,68.9,47.3,29.91,NNE,33,0.0,0.0,46,0.00,,,0.00,WeatherDisplay:10.36,2013-09-22 23:58:00,
2013-09-22 18:59:00,68.7,47.1,29.91,NNE,33,0.0,0.0,46,0.00,,,0.00,WeatherDisplay:10.36,2013-09-22 23:59:00,
2013-09-22 19:00:00,68.7,47.7,29.91,NNE,33,0.0,0.0,47,0.00,,,0.00,WeatherDisplay:10.36,2013-09-23 00:00:00,
2013-09-22 19:01:00,68.7,47.7,29.91,NNE,33,0.0,0.0,47,0.00,,,0.00,WeatherDisplay:10.36,2013-09-23 00:01:00,
2013-09-22 19:02:00,68.7,47.7,29.91,NNE,33,0.0,0.0,47,0.00,,,0.00,WeatherDisplay:10.36,2013-09-23 00:02:00,
2013-09-22 19:04:00,68.7,47.7,29.91,NNE,33,0.0,0.0,47,0.00,,,0.00,WeatherDisplay:10.36,2013-09-23 00:04:00,
2013-09-22 19:05:00,68.7,48.2,29.91,NNE,33,0.0,0.0,48,0.00,,,0.00,WeatherDisplay:10.36,2013-09-23 00:05:00,
2013-09-22 19:06:00,68.5,47.5,29.91,NNE,33,0.0,0.0,47,0.00,,,0.00,WeatherDisplay:10.36,2013-09-23 00:06:00,
2013-09-22 19:07:00,68.5,47.5,29.91,NNE,33,0.0,0.0,47,0.00,,,0.00,WeatherDisplay:10.36,2013-09-23 00:07:00,
2013-09-22 19:08:00,68.4,46.8,29.91,NNE,33,0.0,0.0,46,0.00,,,0.00,WeatherDisplay:10.36,2013-09-23 00:08:00,
2013-09-22 19:09:00,68.4,46.8,29.91,NNE,33,0.0,0.0,46,0.00,,,0.00,WeatherDisplay:10.36,2013-09-23 00:09:00,
2013-09-22 19:11:00,68.2,46.6,29.91,NNE,33,0.0,0.0,46,0.00,,,0.00,WeatherDisplay:10.36,2013-09-23 00:11:00,
2013-09-22 19:12:00,68.2,46.6,29.91,NNE,33,0.0,0.0,46,0.00,,,0.00,WeatherDisplay:10.36,2013-09-23 00:12:00,
2013-09-22 19:13:00,68.2,46.6,29.91,NNE,33,0.0,0.0,46,0.00,,,0.00,WeatherDisplay:10.36,2013-09-23 00:13:00,
2013-09-22 19:14:00,68.2,46.6,29.91,NNE,33,0.0,0.0,46,0.00,,,0.00,WeatherDisplay:10.36,2013-09-23 00:14:00,
2013-09-22 19:15:00,68.2,46.6,29.91,NNE,33,0.0,0.0,46,0.00,,,0.00,WeatherDisplay:10.36,2013-09-23 00:15:00,
2013-09-22 19:16:00,68.2,47.2,29.91,NNE,33,0.0,0.0,47,0.00,,,0.00,WeatherDisplay:10.36,2013-09-23 00:16:00,
2013-09-22 19:17:00,68.2,47.2,29.91,NNE,33,0.0,0.0,47,0.00,,,0.00,WeatherDisplay:10.36,2013-09-23 00:17:00,
2013-09-22 19:19:00,68.2,47.2,29.91,NNE,33,0.0,0.0,47,0.00,,,0.00,WeatherDisplay:10.36,2013-09-23 00:19:00,
2013-09-22 19:20:00,68.2,47.2,29.91,NNE,33,0.0,0.0,47,0.00,,,0.00,WeatherDisplay:10.36,2013-09-23 00:20:00,
2013-09-22 19:21:00,68.2,47.2,29.91,NNE,33,0.0,0.0,47,0.00,,,0.00,WeatherDisplay:10.36,2013-09-23 00:21:00,
2013-09-22 19:22:00,68.2,47.2,29.91,NNE,33,0.0,0.0,47,0.00,,,0.00,WeatherDisplay:10.36,2013-09-23 00:22:00,
2013-09-22 19:23:00,68.0,47.0,29.91,NNE,33,0.0,0.0,47,0.00,,,0.00,WeatherDisplay:10.36,2013-09-23 00:23:00,
2013-09-22 19:24:00,68.0,47.0,29.91,NNE,33,0.0,0.0,47,0.00,,,0.00,WeatherDisplay:10.36,2013-09-23 00:24:00,
2013-09-22 19:25:00,68.0,47.0,29.91,NNE,33,0.0,0.0,47,0.00,,,0.00,WeatherDisplay:10.36,2013-09-23 00:25:00,
2013-09-22 19:27:00,68.0,47.0,29.91,NNE,33,0.0,0.0,47,0.00,,,0.00,WeatherDisplay:10.36,2013-09-23 00:27:00,
2013-09-22 19:28:00,68.0,47.0,29.91,NNE,33,0.0,0.0,47,0.00,,,0.00,WeatherDisplay:10.36,2013-09-23 00:28:00,
2013-09-22 19:29:00,67.8,46.8,29.91,NNE,33,0.0,0.0,47,0.00,,,0.00,WeatherDisplay:10.36,2013-09-23 00:29:00,
2013-09-22 19:30:00,67.8,46.8,29.91,NNE,33,0.0,0.0,47,0.00,,,0.00,WeatherDisplay:10.36,2013-09-23 00:30:00,
2013-09-22 19:31:00,67.8,46.8,29.91,NNE,33,0.0,0.0,47,0.00,,,0.00,WeatherDisplay:10.36,2013-09-23 00:31:00,
2013-09-22 19:32:00,67.6,46.7,29.91,NNE,33,0.0,0.0,47,0.00,,,0.00,WeatherDisplay:10.36,2013-09-23 00:32:00,
2013-09-22 19:34:00,67.6,46.7,29.91,NNE,33,0.0,0.0,47,0.00,,,0.00,WeatherDisplay:10.36,2013-09-23 00:34:00,
2013-09-22 19:35:00,67.5,46.5,29.91,NNE,33,0.0,0.0,47,0.00,,,0.00,WeatherDisplay:10.36,2013-09-23 00:35:00,
2013-09-22 19:36:00,67.5,46.5,29.91,NNE,33,0.0,0.0,47,0.00,,,0.00,WeatherDisplay:10.36,2013-09-23 00:36:00,
2013-09-22 19:37:00,67.3,46.4,29.91,NNE,33,0.0,0.0,47,0.00,,,0.00,WeatherDisplay:10.36,2013-09-23 00:37:00,
2013-09-22 19:38:00,67.3,46.4,29.91,NNE,33,0.0,0.0,47,0.00,,,0.00,WeatherDisplay:10.36,2013-09-23 00:38:00,
2013-09-22 19:39:00,67.1,46.2,29.91,NNE,33,0.0,0.0,47,0.00,,,0.00,WeatherDisplay:10.36,2013-09-23 00:39:00,
2013-09-22 19:40:00,67.1,46.2,29.91,NNE,33,0.0,0.0,47,0.00,,,0.00,WeatherDisplay:10.36,2013-09-23 00:40:00,
2013-09-22 19:42:00,67.1,46.2,29.91,NNE,33,0.0,0.0,47,0.00,,,0.00,WeatherDisplay:10.36,2013-09-23 00:42:00,
2013-09-22 19:43:00,66.9,46.0,29.91,NNE,33,0.0,0.0,47,0.00,,,0.00,WeatherDisplay:10.36,2013-09-23 00:43:00,
2013-09-22 19:44:00,66.9,46.0,29.91,NNE,33,0.0,0.0,47,0.00,,,0.00,WeatherDisplay:10.36,2013-09-23 00:44:00,
2013-09-22 19:45:00,66.9,46.0,29.91,NNE,33,0.0,0.0,47,0.00,,,0.00,WeatherDisplay:10.36,2013-09-23 00:45:00,
2013-09-22 19:46:00,66.7,45.9,29.91,NNE,33,0.0,0.0,47,0.00,,,0.00,WeatherDisplay:10.36,2013-09-23 00:46:00,
2013-09-22 19:47:00,66.7,45.9,29.91,NNE,33,0.0,0.0,47,0.00,,,0.00,WeatherDisplay:10.36,2013-09-23 00:47:00,
2013-09-22 19:48:00,66.7,46.4,29.91,NNE,33,0.0,0.0,48,0.00,,,0.00,WeatherDisplay:10.36,2013-09-23 00:48:00,
2013-09-22 19:50:00,66.6,46.3,29.91,NNE,33,0.0,0.0,48,0.00,,,0.00,WeatherDisplay:10.36,2013-09-23 00:50:00,
2013-09-22 19:51:00,66.6,46.3,29.91,NNE,33,0.0,0.0,48,0.00,,,0.00,WeatherDisplay:10.36,2013-09-23 00:51:00,
2013-09-22 19:52:00,66.6,46.3,29.91,NNE,33,0.0,0.0,48,0.00,,,0.00,WeatherDisplay:10.36,2013-09-23 00:52:00,
2013-09-22 19:53:00,66.6,46.3,29.91,NNE,33,0.0,0.0,48,0.00,,,0.00,WeatherDisplay:10.36,2013-09-23 00:53:00,
2013-09-22 19:54:00,66.4,46.1,29.91,NNE,33,0.0,0.0,48,0.00,,,0.00,WeatherDisplay:10.36,2013-09-23 00:54:00,
2013-09-22 19:55:00,66.4,46.1,29.91,NNE,33,0.0,0.0,48,0.00,,,0.00,WeatherDisplay:10.36,2013-09-23 00:55:00,
2013-09-22 19:56:00,66.2,45.9,29.91,NNE,33,0.0,0.0,48,0.00,,,0.00,WeatherDisplay:10.36,2013-09-23 00:56:00,
2013-09-22 19:58:00,66.2,46.5,29.91,NNE,33,0.0,0.0,49,0.00,,,0.00,WeatherDisplay:10.36,2013-09-23 00:58:00,
2013-09-22 19:59:00,66.2,46.5,29.91,NNE,33,0.0,0.0,49,0.00,,,0.00,WeatherDisplay:10.36,2013-09-23 00:59:00,
2013-09-22 20:00:00,66.0,46.3,29.91,NE,34,0.0,0.0,49,0.00,,,0.00,WeatherDisplay:10.36,2013-09-23 01:00:00,
2013-09-22 20:01:00,66.0,46.3,29.91,NNE,33,0.0,0.0,49,0.00,,,0.00,WeatherDisplay:10.36,2013-09-23 01:01:00,
2013-09-22 20:02:00,66.0,46.3,29.94,NNE,33,0.0,0.0,49,0.00,,,0.00,WeatherDisplay:10.36,2013-09-23 01:02:00,
2013-09-22 20:03:00,65.8,46.1,29.94,NNE,33,0.0,0.0,49,0.00,,,0.00,WeatherDisplay:10.36,2013-09-23 01:03:00,
2013-09-22 20:05:00,65.8,46.7,29.94,NNE,33,0.0,0.0,50,0.00,,,0.00,WeatherDisplay:10.36,2013-09-23 01:05:00,
2013-09-22 20:06:00,65.8,46.7,29.94,NNE,33,0.0,0.0,50,0.00,,,0.00,WeatherDisplay:10.36,2013-09-23 01:06:00,
2013-09-22 20:07:00,65.7,46.5,29.94,NNE,33,0.0,0.0,50,0.00,,,0.00,WeatherDisplay:10.36,2013-09-23 01:07:00,
2013-09-22 20:08:00,65.7,46.5,29.94,NNE,33,0.0,0.0,50,0.00,,,0.00,WeatherDisplay:10.36,2013-09-23 01:08:00,
2013-09-22 20:09:00,65.7,46.5,29.94,NNE,33,0.0,0.0,50,0.00,,,0.00,WeatherDisplay:10.36,2013-09-23 01:09:00,
2013-09-22 20:10:00,65.7,46.5,29.94,NNE,33,0.0,0.0,50,0.00,,,0.00,WeatherDisplay:10.36,2013-09-23 01:10:00,
2013-09-22 20:11:00,65.7,46.5,29.94,NNE,33,0.0,0.0,50,0.00,,,0.00,WeatherDisplay:10.36,2013-09-23 01:11:00,
2013-09-22 20:13:00,65.7,47.0,29.94,NNE,33,0.0,0.0,51,0.00,,,0.00,WeatherDisplay:10.36,2013-09-23 01:13:00,
2013-09-22 20:14:00,65.7,47.0,29.94,NNE,33,0.0,0.0,51,0.00,,,0.00,WeatherDisplay:10.36,2013-09-23 01:14:00,
2013-09-22 20:15:00,65.5,46.9,29.94,NNE,33,0.0,0.0,51,0.00,,,0.00,WeatherDisplay:10.36,2013-09-23 01:15:00,
2013-09-22 20:16:00,65.5,46.9,29.94,NNE,33,0.0,0.0,51,0.00,,,0.00,WeatherDisplay:10.36,2013-09-23 01:16:00,
2013-09-22 20:17:00,65.5,46.9,29.94,NNE,33,0.0,0.0,51,0.00,,,0.00,WeatherDisplay:10.36,2013-09-23 01:17:00,
2013-09-22 20:18:00,65.5,46.9,29.94,NNE,33,0.0,0.0,51,0.00,,,0.00,WeatherDisplay:10.36,2013-09-23 01:18:00,
2013-09-22 20:19:00,65.5,46.9,29.94,NNE,33,0.0,0.0,51,0.00,,,0.00,WeatherDisplay:10.36,2013-09-23 01:19:00,
2013-09-22 20:21:00,65.5,46.9,29.94,NNE,33,0.0,0.0,51,0.00,,,0.00,WeatherDisplay:10.36,2013-09-23 01:21:00,
2013-09-22 20:22:00,65.3,46.7,29.94,NNE,33,0.0,0.0,51,0.00,,,0.00,WeatherDisplay:10.36,2013-09-23 01:22:00,
2013-09-22 20:23:00,65.3,47.2,29.94,NNE,33,0.0,0.0,52,0.00,,,0.00,WeatherDisplay:10.36,2013-09-23 01:23:00,
2013-09-22 20:24:00,65.3,47.2,29.94,NNE,33,0.0,0.0,52,0.00,,,0.00,WeatherDisplay:10.36,2013-09-23 01:24:00,
2013-09-22 20:25:00,65.3,47.2,29.94,NNE,33,0.0,0.0,52,0.00,,,0.00,WeatherDisplay:10.36,2013-09-23 01:25:00,
2013-09-22 20:26:00,65.3,47.2,29.94,NNE,33,0.0,0.0,52,0.00,,,0.00,WeatherDisplay:10.36,2013-09-23 01:26:00,
2013-09-22 20:27:00,65.1,47.1,29.94,NNE,33,0.0,0.0,52,0.00,,,0.00,WeatherDisplay:10.36,2013-09-23 01:27:00,
2013-09-22 20:29:00,65.1,47.6,29.94,NNE,33,0.0,0.0,53,0.00,,,0.00,WeatherDisplay:10.36,2013-09-23 01:29:00,
2013-09-22 20:30:00,65.1,47.6,29.94,NNE,33,0.0,0.0,53,0.00,,,0.00,WeatherDisplay:10.36,2013-09-23 01:30:00,
2013-09-22 20:31:00,65.1,47.6,29.94,NNE,33,0.0,0.0,53,0.00,,,0.00,WeatherDisplay:10.36,2013-09-23 01:31:00,
2013-09-22 20:32:00,64.9,47.4,29.94,NNE,33,0.0,0.0,53,0.00,,,0.00,WeatherDisplay:10.36,2013-09-23 01:32:00,
2013-09-22 20:33:00,64.9,47.4,29.94,NE,34,0.0,0.0,53,0.00,,,0.00,WeatherDisplay:10.36,2013-09-23 01:33:00,
2013-09-22 20:34:00,64.8,47.2,29.94,NNE,33,0.0,0.0,53,0.00,,,0.00,WeatherDisplay:10.36,2013-09-23 01:34:00,
2013-09-22 20:35:00,64.8,47.7,29.94,NNE,33,0.0,0.0,54,0.00,,,0.00,WeatherDisplay:10.36,2013-09-23 01:35:00,
2013-09-22 20:37:00,64.8,47.7,29.94,NNE,33,0.0,0.0,54,0.00,,,0.00,WeatherDisplay:10.36,2013-09-23 01:37:00,
2013-09-22 20:38:00,64.6,47.6,29.94,NNE,33,0.0,0.0,54,0.00,,,0.00,WeatherDisplay:10.36,2013-09-23 01:38:00,
2013-09-22 20:39:00,64.6,47.6,29.94,NNE,33,0.0,0.0,54,0.00,,,0.00,WeatherDisplay:10.36,2013-09-23 01:39:00,
2013-09-22 20:40:00,64.6,47.6,29.94,NNE,33,0.0,0.0,54,0.00,,,0.00,WeatherDisplay:10.36,2013-09-23 01:40:00,
2013-09-22 20:41:00,64.4,47.4,29.94,NNE,33,0.0,0.0,54,0.00,,,0.00,WeatherDisplay:10.36,2013-09-23 01:41:00,
2013-09-22 20:42:00,64.4,47.4,29.94,NNE,33,0.0,0.0,54,0.00,,,0.00,WeatherDisplay:10.36,2013-09-23 01:42:00,
2013-09-22 20:43:00,64.4,47.9,29.94,NNE,33,0.0,0.0,55,0.00,,,0.00,WeatherDisplay:10.36,2013-09-23 01:43:00,
2013-09-22 20:45:00,64.4,47.9,29.94,NNE,33,0.0,0.0,55,0.00,,,0.00,WeatherDisplay:10.36,2013-09-23 01:45:00,
2013-09-22 20:46:00,64.4,47.9,29.94,NNE,33,0.0,0.0,55,0.00,,,0.00,WeatherDisplay:10.36,2013-09-23 01:46:00,
2013-09-22 20:47:00,64.4,47.9,29.94,NNE,33,0.0,0.0,55,0.00,,,0.00,WeatherDisplay:10.36,2013-09-23 01:47:00,
2013-09-22 20:48:00,64.4,47.9,29.94,NNE,33,0.0,0.0,55,0.00,,,0.00,WeatherDisplay:10.36,2013-09-23 01:48:00,
2013-09-22 20:49:00,64.2,47.7,29.94,NNE,33,0.0,0.0,55,0.00,,,0.00,WeatherDisplay:10.36,2013-09-23 01:49:00,
2013-09-22 20:50:00,64.2,47.7,29.94,NNE,33,0.0,0.0,55,0.00,,,0.00,WeatherDisplay:10.36,2013-09-23 01:50:00,
2013-09-22 20:51:00,64.2,48.2,29.94,NNE,33,0.0,0.0,56,0.00,,,0.00,WeatherDisplay:10.36,2013-09-23 01:51:00,
2013-09-22 20:53:00,64.2,48.2,29.94,NNE,33,0.0,0.0,56,0.00,,,0.00,WeatherDisplay:10.36,2013-09-23 01:53:00,
2013-09-22 20:54:00,64.2,48.2,29.94,NNE,33,0.0,0.0,56,0.00,,,0.00,WeatherDisplay:10.36,2013-09-23 01:54:00,
2013-09-22 20:55:00,64.0,48.0,29.94,NNE,33,0.0,0.0,56,0.00,,,0.00,WeatherDisplay:10.36,2013-09-23 01:55:00,
2013-09-22 20:56:00,64.0,48.0,29.94,NNE,33,0.0,0.0,56,0.00,,,0.00,WeatherDisplay:10.36,2013-09-23 01:56:00,
2013-09-22 20:57:00,64.0,48.0,29.94,NNE,33,0.0,0.0,56,0.00,,,0.00,WeatherDisplay:10.36,2013-09-23 01:57:00,
2013-09-22 20:58:00,64.0,48.5,29.94,NNE,33,0.0,0.0,57,0.00,,,0.00,WeatherDisplay:10.36,2013-09-23 01:58:00,
2013-09-22 20:59:00,63.9,48.3,29.94,NNE,33,0.0,0.0,57,0.00,,,0.00,WeatherDisplay:10.36,2013-09-23 01:59:00,
2013-09-22 21:01:00,63.9,48.3,29.94,NNE,33,0.0,0.0,57,0.00,,,0.00,WeatherDisplay:10.36,2013-09-23 02:01:00,
2013-09-22 21:02:00,63.9,48.3,29.94,NNE,33,0.0,0.0,57,0.00,,,0.00,WeatherDisplay:10.36,2013-09-23 02:02:00,
2013-09-22 21:03:00,63.9,48.3,29.94,NNE,33,0.0,0.0,57,0.00,,,0.00,WeatherDisplay:10.36,2013-09-23 02:03:00,
2013-09-22 21:04:00,63.7,48.2,29.94,NNE,33,0.0,0.0,57,0.00,,,0.00,WeatherDisplay:10.36,2013-09-23 02:04:00,
2013-09-22 21:05:00,63.7,48.6,29.94,NNE,33,0.0,0.0,58,0.00,,,0.00,WeatherDisplay:10.36,2013-09-23 02:05:00,
2013-09-22 21:06:00,63.7,48.6,29.94,NNE,33,0.0,0.0,58,0.00,,,0.00,WeatherDisplay:10.36,2013-09-23 02:06:00,
2013-09-22 21:08:00,63.5,48.5,29.94,NNE,33,0.0,0.0,58,0.00,,,0.00,WeatherDisplay:10.36,2013-09-23 02:08:00,
2013-09-22 21:09:00,63.5,48.9,29.94,NNE,33,0.0,0.0,59,0.00,,,0.00,WeatherDisplay:10.36,2013-09-23 02:09:00,
2013-09-22 21:10:00,63.5,48.9,29.94,NNE,33,0.0,0.0,59,0.00,,,0.00,WeatherDisplay:10.36,2013-09-23 02:10:00,
2013-09-22 21:11:00,63.3,48.7,29.94,NNE,33,0.0,0.0,59,0.00,,,0.00,WeatherDisplay:10.36,2013-09-23 02:11:00,
2013-09-22 21:12:00,63.3,48.7,29.94,NNE,33,0.0,0.0,59,0.00,,,0.00,WeatherDisplay:10.36,2013-09-23 02:12:00,
2013-09-22 21:13:00,63.3,48.7,29.94,NNE,33,0.0,0.0,59,0.00,,,0.00,WeatherDisplay:10.36,2013-09-23 02:13:00,
2013-09-22 21:14:00,63.3,49.2,29.94,NNE,33,0.0,0.0,60,0.00,,,0.00,WeatherDisplay:10.36,2013-09-23 02:14:00,
2013-09-22 21:16:00,63.1,49.0,29.94,NNE,33,0.0,0.0,60,0.00,,,0.00,WeatherDisplay:10.36,2013-09-23 02:16:00,
2013-09-22 21:17:00,63.1,49.0,29.94,NNE,33,0.0,0.0,60,0.00,,,0.00,WeatherDisplay:10.36,2013-09-23 02:17:00,
2013-09-22 21:18:00,63.1,49.0,29.94,NNE,33,0.0,0.0,60,0.00,,,0.00,WeatherDisplay:10.36,2013-09-23 02:18:00,
2013-09-22 21:19:00,63.1,49.0,29.94,NNE,33,0.0,0.0,60,0.00,,,0.00,WeatherDisplay:10.36,2013-09-23 02:19:00,
2013-09-22 21:20:00,63.1,49.0,29.94,NNE,33,0.0,0.0,60,0.00,,,0.00,WeatherDisplay:10.36,2013-09-23 02:20:00,
2013-09-22 21:21:00,63.0,48.9,29.94,NNE,33,0.0,0.0,60,0.00,,,0.00,WeatherDisplay:10.36,2013-09-23 02:21:00,
2013-09-22 21:22:00,63.0,49.3,29.94,NE,34,0.0,0.0,61,0.00,,,0.00,WeatherDisplay:10.36,2013-09-23 02:22:00,
2013-09-22 21:24:00,63.0,49.3,29.94,NNE,33,0.0,0.0,61,0.00,,,0.00,WeatherDisplay:10.36,2013-09-23 02:24:00,
2013-09-22 21:25:00,63.0,49.3,29.94,NE,34,0.0,0.0,61,0.00,,,0.00,WeatherDisplay:10.36,2013-09-23 02:25:00,
2013-09-22 21:26:00,63.0,49.3,29.94,NNE,33,0.0,0.0,61,0.00,,,0.00,WeatherDisplay:10.36,2013-09-23 02:26:00,
2013-09-22 21:27:00,63.0,49.3,29.94,NNE,33,0.0,0.0,61,0.00,,,0.00,WeatherDisplay:10.36,2013-09-23 02:27:00,
2013-09-22 21:28:00,63.0,49.3,29.94,NNE,33,0.0,0.0,61,0.00,,,0.00,WeatherDisplay:10.36,2013-09-23 02:28:00,
2013-09-22 21:29:00,63.0,49.3,29.94,NNE,33,0.0,0.0,61,0.00,,,0.00,WeatherDisplay:10.36,2013-09-23 02:29:00,
2013-09-22 21:30:00,63.0,49.3,29.94,NE,34,0.0,0.0,61,0.00,,,0.00,WeatherDisplay:10.36,2013-09-23 02:30:00,
2013-09-22 21:32:00,62.8,49.6,29.94,NNE,33,0.0,0.0,62,0.00,,,0.00,WeatherDisplay:10.36,2013-09-23 02:32:00,
2013-09-22 21:33:00,62.8,49.6,29.94,NNE,33,0.0,0.0,62,0.00,,,0.00,WeatherDisplay:10.36,2013-09-23 02:33:00,
2013-09-22 21:34:00,62.8,49.6,29.94,NNE,33,0.0,0.0,62,0.00,,,0.00,WeatherDisplay:10.36,2013-09-23 02:34:00,
2013-09-22 21:35:00,62.8,49.6,29.94,NNE,33,0.0,0.0,62,0.00,,,0.00,WeatherDisplay:10.36,2013-09-23 02:35:00,
2013-09-22 21:36:00,62.8,49.6,29.94,NNE,33,0.0,0.0,62,0.00,,,0.00,WeatherDisplay:10.36,2013-09-23 02:36:00,
2013-09-22 21:37:00,62.8,49.6,29.94,NE,34,0.0,0.0,62,0.00,,,0.00,WeatherDisplay:10.36,2013-09-23 02:37:00,
2013-09-22 21:38:00,62.8,49.6,29.94,NNE,33,0.0,0.0,62,0.00,,,0.00,WeatherDisplay:10.36,2013-09-23 02:38:00,
2013-09-22 21:40:00,62.8,49.6,29.94,NNE,33,0.0,0.0,62,0.00,,,0.00,WeatherDisplay:10.36,2013-09-23 02:40:00,
2013-09-22 21:41:00,62.8,49.6,29.94,NNE,33,0.0,0.0,62,0.00,,,0.00,WeatherDisplay:10.36,2013-09-23 02:41:00,
2013-09-22 21:42:00,62.8,50.0,29.94,NNE,33,0.0,0.0,63,0.00,,,0.00,WeatherDisplay:10.36,2013-09-23 02:42:00,
2013-09-22 21:43:00,62.6,49.8,29.94,NNE,33,0.0,0.0,63,0.00,,,0.00,WeatherDisplay:10.36,2013-09-23 02:43:00,
2013-09-22 21:44:00,62.6,49.8,29.94,NNE,33,0.0,0.0,63,0.00,,,0.00,WeatherDisplay:10.36,2013-09-23 02:44:00,
2013-09-22 21:45:00,62.6,49.8,29.94,NNE,33,0.0,0.0,63,0.00,,,0.00,WeatherDisplay:10.36,2013-09-23 02:45:00,
2013-09-22 21:46:00,62.6,49.8,29.94,NE,34,0.0,0.0,63,0.00,,,0.00,WeatherDisplay:10.36,2013-09-23 02:46:00,
2013-09-22 21:48:00,62.6,49.8,29.94,NNE,33,0.0,0.0,63,0.00,,,0.00,WeatherDisplay:10.36,2013-09-23 02:48:00,
2013-09-22 21:49:00,62.6,49.8,29.94,NE,34,0.0,0.0,63,0.00,,,0.00,WeatherDisplay:10.36,2013-09-23 02:49:00,
2013-09-22 21:50:00,62.6,49.8,29.94,NNE,33,0.0,0.0,63,0.00,,,0.00,WeatherDisplay:10.36,2013-09-23 02:50:00,
2013-09-22 21:51:00,62.6,49.8,29.94,NNE,33,0.0,0.0,63,0.00,,,0.00,WeatherDisplay:10.36,2013-09-23 02:51:00,
2013-09-22 21:52:00,62.6,49.8,29.94,NE,34,0.0,0.0,63,0.00,,,0.00,WeatherDisplay:10.36,2013-09-23 02:52:00,
2013-09-22 21:53:00,62.6,49.8,29.94,NNE,33,0.0,0.0,63,0.00,,,0.00,WeatherDisplay:10.36,2013-09-23 02:53:00,
2013-09-22 21:55:00,62.6,50.2,29.94,NNE,33,0.0,0.0,64,0.00,,,0.00,WeatherDisplay:10.36,2013-09-23 02:55:00,
2013-09-22 21:56:00,62.6,50.2,29.94,NNE,33,0.0,0.0,64,0.00,,,0.00,WeatherDisplay:10.36,2013-09-23 02:56:00,
2013-09-22 21:57:00,62.6,50.2,29.94,NNE,33,0.0,0.0,64,0.00,,,0.00,WeatherDisplay:10.36,2013-09-23 02:57:00,
2013-09-22 21:58:00,62.6,50.2,29.94,NNE,33,0.0,0.0,64,0.00,,,0.00,WeatherDisplay:10.36,2013-09-23 02:58:00,
2013-09-22 21:59:00,62.6,50.2,29.94,NNE,33,0.0,0.0,64,0.00,,,0.00,WeatherDisplay:10.36,2013-09-23 02:59:00,
2013-09-22 22:00:00,62.6,50.2,29.94,NNE,33,0.0,0.0,64,0.00,,,0.00,WeatherDisplay:10.36,2013-09-23 03:00:00,
2013-09-22 22:02:00,62.6,50.2,29.94,NE,34,0.0,0.0,64,0.00,,,0.00,WeatherDisplay:10.36,2013-09-23 03:02:00,
2013-09-22 22:03:00,62.6,50.2,29.94,NNE,33,0.0,0.0,64,0.00,,,0.00,WeatherDisplay:10.36,2013-09-23 03:03:00,
2013-09-22 22:04:00,62.6,50.2,29.94,NNE,33,0.0,0.0,64,0.00,,,0.00,WeatherDisplay:10.36,2013-09-23 03:04:00,
2013-09-22 22:05:00,62.4,50.1,29.94,NNE,33,0.0,0.0,64,0.00,,,0.00,WeatherDisplay:10.36,2013-09-23 03:05:00,
2013-09-22 22:06:00,62.4,50.1,29.94,NE,34,0.0,0.0,64,0.00,,,0.00,WeatherDisplay:10.36,2013-09-23 03:06:00,
2013-09-22 22:07:00,62.4,50.1,29.94,NNE,33,0.0,0.0,64,0.00,,,0.00,WeatherDisplay:10.36,2013-09-23 03:07:00,
2013-09-22 22:08:00,62.4,50.1,29.94,NE,34,0.0,0.0,64,0.00,,,0.00,WeatherDisplay:10.36,2013-09-23 03:08:00,
2013-09-22 22:10:00,62.4,50.1,29.94,NNE,33,0.0,0.0,64,0.00,,,0.00,WeatherDisplay:10.36,2013-09-23 03:10:00,
2013-09-22 22:11:00,62.4,50.1,29.94,NNE,33,0.0,0.0,64,0.00,,,0.00,WeatherDisplay:10.36,2013-09-23 03:11:00,
2013-09-22 22:12:00,62.4,50.5,29.94,NNE,33,0.0,0.0,65,0.00,,,0.00,WeatherDisplay:10.36,2013-09-23 03:12:00,
2013-09-22 22:13:00,62.4,50.5,29.94,NNE,33,0.0,0.0,65,0.00,,,0.00,WeatherDisplay:10.36,2013-09-23 03:13:00,
2013-09-22 22:14:00,62.4,50.5,29.94,NNE,33,0.0,0.0,65,0.00,,,0.00,WeatherDisplay:10.36,2013-09-23 03:14:00,
2013-09-22 22:15:00,62.4,50.5,29.94,NNE,33,0.0,0.0,65,0.00,,,0.00,WeatherDisplay:10.36,2013-09-23 03:15:00,
2013-09-22 22:16:00,62.4,50.5,29.94,NNE,33,0.0,0.0,65,0.00,,,0.00,WeatherDisplay:10.36,2013-09-23 03:16:00,
2013-09-22 22:18:00,62.2,50.3,29.94,NNE,33,0.0,0.0,65,0.00,,,0.00,WeatherDisplay:10.36,2013-09-23 03:18:00,
2013-09-22 22:19:00,62.2,50.3,29.94,NNE,33,0.0,0.0,65,0.00,,,0.00,WeatherDisplay:10.36,2013-09-23 03:19:00,
2013-09-22 22:20:00,62.2,50.3,29.94,NNE,33,0.0,0.0,65,0.00,,,0.00,WeatherDisplay:10.36,2013-09-23 03:20:00,
2013-09-22 22:21:00,62.2,50.3,29.94,NNE,33,0.0,0.0,65,0.00,,,0.00,WeatherDisplay:10.36,2013-09-23 03:21:00,
2013-09-22 22:22:00,62.2,50.7,29.94,NNE,33,0.0,0.0,66,0.00,,,0.00,WeatherDisplay:10.36,2013-09-23 03:22:00,
2013-09-22 22:23:00,62.2,50.7,29.94,NNE,33,0.0,0.0,66,0.00,,,0.00,WeatherDisplay:10.36,2013-09-23 03:23:00,
2013-09-22 22:25:00,62.2,50.7,29.94,NNE,33,0.0,0.0,66,0.00,,,0.00,WeatherDisplay:10.36,2013-09-23 03:25:00,
2013-09-22 22:26:00,62.2,50.7,29.94,NE,34,0.0,0.0,66,0.00,,,0.00,WeatherDisplay:10.36,2013-09-23 03:26:00,
2013-09-22 22:27:00,62.1,50.6,29.94,NNE,33,0.0,0.0,66,0.00,,,0.00,WeatherDisplay:10.36,2013-09-23 03:27:00,
2013-09-22 22:28:00,62.1,50.6,29.94,NNE,33,0.0,0.0,66,0.00,,,0.00,WeatherDisplay:10.36,2013-09-23 03:28:00,
2013-09-22 22:29:00,62.1,50.6,29.94,NNE,33,0.0,0.0,66,0.00,,,0.00,WeatherDisplay:10.36,2013-09-23 03:29:00,
2013-09-22 22:30:00,62.1,51.0,29.94,NE,34,0.0,0.0,67,0.00,,,0.00,WeatherDisplay:10.36,2013-09-23 03:30:00,
2013-09-22 22:31:00,62.1,51.0,29.94,NNE,33,0.0,0.0,67,0.00,,,0.00,WeatherDisplay:10.36,2013-09-23 03:31:00,
2013-09-22 22:33:00,61.9,50.8,29.94,NNE,33,0.0,0.0,67,0.00,,,0.00,WeatherDisplay:10.36,2013-09-23 03:33:00,
2013-09-22 22:34:00,61.9,50.8,29.94,NNE,33,0.0,0.0,67,0.00,,,0.00,WeatherDisplay:10.36,2013-09-23 03:34:00,
2013-09-22 22:35:00,61.9,50.8,29.94,NNE,33,0.0,0.0,67,0.00,,,0.00,WeatherDisplay:10.36,2013-09-23 03:35:00,
2013-09-22 22:36:00,61.9,50.8,29.94,NNE,33,0.0,0.0,67,0.00,,,0.00,WeatherDisplay:10.36,2013-09-23 03:36:00,
2013-09-22 22:37:00,61.9,50.8,29.94,NNE,33,0.0,0.0,67,0.00,,,0.00,WeatherDisplay:10.36,2013-09-23 03:37:00,
2013-09-22 22:38:00,61.9,50.8,29.94,NNE,33,0.0,0.0,67,0.00,,,0.00,WeatherDisplay:10.36,2013-09-23 03:38:00,
2013-09-22 22:39:00,61.9,50.8,29.94,NNE,33,0.0,0.0,67,0.00,,,0.00,WeatherDisplay:10.36,2013-09-23 03:39:00,
2013-09-22 22:41:00,61.9,50.8,29.94,NE,34,0.0,0.0,67,0.00,,,0.00,WeatherDisplay:10.36,2013-09-23 03:41:00,
2013-09-22 22:42:00,61.9,50.8,29.94,NNE,33,0.0,0.0,67,0.00,,,0.00,WeatherDisplay:10.36,2013-09-23 03:42:00,
2013-09-22 22:43:00,61.7,50.6,29.94,NNE,33,0.0,0.0,67,0.00,,,0.00,WeatherDisplay:10.36,2013-09-23 03:43:00,
2013-09-22 22:44:00,61.7,50.6,29.94,NE,34,0.0,0.0,67,0.00,,,0.00,WeatherDisplay:10.36,2013-09-23 03:44:00,
2013-09-22 22:45:00,61.7,51.0,29.94,NNE,33,0.0,0.0,68,0.00,,,0.00,WeatherDisplay:10.36,2013-09-23 03:45:00,
2013-09-22 22:46:00,61.7,51.0,29.94,NNE,33,0.0,0.0,68,0.00,,,0.00,WeatherDisplay:10.36,2013-09-23 03:46:00,
2013-09-22 22:47:00,61.7,51.0,29.94,NNE,33,0.0,0.0,68,0.00,,,0.00,WeatherDisplay:10.36,2013-09-23 03:47:00,
2013-09-22 22:49:00,61.7,51.0,29.94,NE,34,0.0,0.0,68,0.00,,,0.00,WeatherDisplay:10.36,2013-09-23 03:49:00,
2013-09-22 22:50:00,61.7,51.0,29.94,NNE,33,0.0,0.0,68,0.00,,,0.00,WeatherDisplay:10.36,2013-09-23 03:50:00,
2013-09-22 22:51:00,61.5,50.9,29.94,NNE,33,0.0,0.0,68,0.00,,,0.00,WeatherDisplay:10.36,2013-09-23 03:51:00,
2013-09-22 22:52:00,61.5,51.3,29.94,NNE,33,0.0,0.0,69,0.00,,,0.00,WeatherDisplay:10.36,2013-09-23 03:52:00,
2013-09-22 22:53:00,61.5,51.3,29.94,NNE,33,0.0,0.0,69,0.00,,,0.00,WeatherDisplay:10.36,2013-09-23 03:53:00,
2013-09-22 22:54:00,61.5,51.3,29.94,NNE,33,0.0,0.0,69,0.00,,,0.00,WeatherDisplay:10.36,2013-09-23 03:54:00,
2013-09-22 22:55:00,61.5,51.3,29.94,NNE,33,0.0,0.0,69,0.00,,,0.00,WeatherDisplay:10.36,2013-09-23 03:55:00,
2013-09-22 22:57:00,61.5,51.3,29.94,NNE,33,0.0,0.0,69,0.00,,,0.00,WeatherDisplay:10.36,2013-09-23 03:57:00,
2013-09-22 22:58:00,61.5,51.3,29.94,NNE,33,0.0,0.0,69,0.00,,,0.00,WeatherDisplay:10.36,2013-09-23 03:58:00,
2013-09-22 22:59:00,61.3,51.1,29.94,NNE,33,0.0,0.0,69,0.00,,,0.00,WeatherDisplay:10.36,2013-09-23 03:59:00,
2013-09-22 23:00:00,61.3,51.1,29.94,NNE,33,0.0,0.0,69,0.00,,,0.00,WeatherDisplay:10.36,2013-09-23 04:00:00,
2013-09-22 23:01:00,61.3,51.1,29.94,NNE,33,0.0,0.0,69,0.00,,,0.00,WeatherDisplay:10.36,2013-09-23 04:01:00,
2013-09-22 23:02:00,61.3,51.1,29.94,NNE,33,0.0,0.0,69,0.00,,,0.00,WeatherDisplay:10.36,2013-09-23 04:02:00,
2013-09-22 23:04:00,61.3,51.1,29.94,NE,34,0.0,0.0,69,0.00,,,0.00,WeatherDisplay:10.36,2013-09-23 04:04:00,
2013-09-22 23:05:00,61.3,51.1,29.94,NNE,33,0.0,0.0,69,0.00,,,0.00,WeatherDisplay:10.36,2013-09-23 04:05:00,
2013-09-22 23:06:00,61.3,51.1,29.94,NNE,33,0.0,0.0,69,0.00,,,0.00,WeatherDisplay:10.36,2013-09-23 04:06:00,
2013-09-22 23:07:00,61.3,51.1,29.94,NNE,33,0.0,0.0,69,0.00,,,0.00,WeatherDisplay:10.36,2013-09-23 04:07:00,
2013-09-22 23:08:00,61.3,51.5,29.94,NNE,33,0.0,0.0,70,0.00,,,0.00,WeatherDisplay:10.36,2013-09-23 04:08:00,
2013-09-22 23:09:00,61.2,51.3,29.94,NNE,33,0.0,0.0,70,0.00,,,0.00,WeatherDisplay:10.36,2013-09-23 04:09:00,
2013-09-22 23:10:00,61.2,51.3,29.94,NE,34,0.0,0.0,70,0.00,,,0.00,WeatherDisplay:10.36,2013-09-23 04:10:00,
2013-09-22 23:12:00,61.2,51.3,29.94,NNE,33,0.0,0.0,70,0.00,,,0.00,WeatherDisplay:10.36,2013-09-23 04:12:00,
2013-09-22 23:13:00,61.0,51.1,29.94,NNE,33,0.0,0.0,70,0.00,,,0.00,WeatherDisplay:10.36,2013-09-23 04:13:00,
2013-09-22 23:14:00,61.0,51.5,29.94,NNE,33,0.0,0.0,71,0.00,,,0.00,WeatherDisplay:10.36,2013-09-23 04:14:00,
2013-09-22 23:15:00,61.0,51.5,29.94,NNE,33,0.0,0.0,71,0.00,,,0.00,WeatherDisplay:10.36,2013-09-23 04:15:00,
2013-09-22 23:16:00,61.0,51.5,29.94,NNE,33,0.0,0.0,71,0.00,,,0.00,WeatherDisplay:10.36,2013-09-23 04:16:00,
2013-09-22 23:17:00,61.0,51.5,29.94,NNE,33,0.0,0.0,71,0.00,,,0.00,WeatherDisplay:10.36,2013-09-23 04:17:00,
2013-09-22 23:18:00,61.0,51.5,29.94,NNE,33,0.0,0.0,71,0.00,,,0.00,WeatherDisplay:10.36,2013-09-23 04:18:00,
2013-09-22 23:20:00,61.0,51.5,29.94,NNE,33,0.0,0.0,71,0.00,,,0.00,WeatherDisplay:10.36,2013-09-23 04:20:00,
2013-09-22 23:21:00,61.0,51.5,29.94,NNE,33,0.0,0.0,71,0.00,,,0.00,WeatherDisplay:10.36,2013-09-23 04:21:00,
2013-09-22 23:22:00,60.8,51.3,29.94,NNE,33,0.0,0.0,71,0.00,,,0.00,WeatherDisplay:10.36,2013-09-23 04:22:00,
2013-09-22 23:23:00,60.8,51.3,29.94,NNE,33,0.0,0.0,71,0.00,,,0.00,WeatherDisplay:10.36,2013-09-23 04:23:00,
2013-09-22 23:24:00,60.8,51.3,29.94,NNE,33,0.0,0.0,71,0.00,,,0.00,WeatherDisplay:10.36,2013-09-23 04:24:00,
2013-09-22 23:25:00,60.8,51.3,29.94,NNE,33,0.0,0.0,71,0.00,,,0.00,WeatherDisplay:10.36,2013-09-23 04:25:00,
2013-09-22 23:26:00,60.8,51.3,29.94,NNE,33,0.0,0.0,71,0.00,,,0.00,WeatherDisplay:10.36,2013-09-23 04:26:00,
2013-09-22 23:28:00,60.8,51.3,29.94,NNE,33,0.0,0.0,71,0.00,,,0.00,WeatherDisplay:10.36,2013-09-23 04:28:00,
2013-09-22 23:29:00,60.8,51.7,29.94,NNE,33,0.0,0.0,72,0.00,,,0.00,WeatherDisplay:10.36,2013-09-23 04:29:00,
2013-09-22 23:30:00,60.6,51.5,29.94,NNE,33,0.0,0.0,72,0.00,,,0.00,WeatherDisplay:10.36,2013-09-23 04:30:00,
2013-09-22 23:31:00,60.6,51.5,29.94,NNE,33,0.0,0.0,72,0.00,,,0.00,WeatherDisplay:10.36,2013-09-23 04:31:00,
2013-09-22 23:32:00,60.6,51.5,29.94,NE,34,0.0,0.0,72,0.00,,,0.00,WeatherDisplay:10.36,2013-09-23 04:32:00,
2013-09-22 23:33:00,60.6,51.5,29.94,NNE,33,0.0,0.0,72,0.00,,,0.00,WeatherDisplay:10.36,2013-09-23 04:33:00,
2013-09-22 23:35:00,60.6,51.5,29.94,NNE,33,0.0,0.0,72,0.00,,,0.00,WeatherDisplay:10.36,2013-09-23 04:35:00,
2013-09-22 23:36:00,60.6,51.5,29.94,NNE,33,0.0,0.0,72,0.00,,,0.00,WeatherDisplay:10.36,2013-09-23 04:36:00,
2013-09-22 23:37:00,60.6,51.5,29.94,NNE,33,0.0,0.0,72,0.00,,,0.00,WeatherDisplay:10.36,2013-09-23 04:37:00,
2013-09-22 23:38:00,60.4,51.4,29.94,NNE,33,0.0,0.0,72,0.00,,,0.00,WeatherDisplay:10.36,2013-09-23 04:38:00,
2013-09-22 23:39:00,60.4,51.4,29.94,NE,34,0.0,0.0,72,0.00,,,0.00,WeatherDisplay:10.36,2013-09-23 04:39:00,
2013-09-22 23:40:00,60.4,51.4,29.94,NNE,33,0.0,0.0,72,0.00,,,0.00,WeatherDisplay:10.36,2013-09-23 04:40:00,
2013-09-22 23:41:00,60.4,51.4,29.94,NNE,33,0.0,0.0,72,0.00,,,0.00,WeatherDisplay:10.36,2013-09-23 04:41:00,
2013-09-22 23:43:00,60.4,51.4,29.94,NNE,33,0.0,0.0,72,0.00,,,0.00,WeatherDisplay:10.36,2013-09-23 04:43:00,
2013-09-22 23:44:00,60.3,51.2,29.94,NNE,33,0.0,0.0,72,0.00,,,0.00,WeatherDisplay:10.36,2013-09-23 04:44:00,
2013-09-22 23:45:00,60.3,51.2,29.94,NNE,33,0.0,0.0,72,0.00,,,0.00,WeatherDisplay:10.36,2013-09-23 04:45:00,
2013-09-22 23:46:00,60.3,51.2,29.94,NNE,33,0.0,0.0,72,0.00,,,0.00,WeatherDisplay:10.36,2013-09-23 04:46:00,
2013-09-22 23:47:00,60.3,51.2,29.94,NNE,33,0.0,0.0,72,0.00,,,0.00,WeatherDisplay:10.36,2013-09-23 04:47:00,
2013-09-22 23:48:00,60.1,51.0,29.94,NE,34,0.0,0.0,72,0.00,,,0.00,WeatherDisplay:10.36,2013-09-23 04:48:00,
2013-09-22 23:50:00,60.1,51.0,29.94,NE,34,0.0,0.0,72,0.00,,,0.00,WeatherDisplay:10.36,2013-09-23 04:50:00,
2013-09-22 23:51:00,60.1,51.0,29.94,NE,34,0.0,0.0,72,0.00,,,0.00,WeatherDisplay:10.36,2013-09-23 04:51:00,
2013-09-22 23:52:00,60.1,51.0,29.94,NNE,33,0.0,0.0,72,0.00,,,0.00,WeatherDisplay:10.36,2013-09-23 04:52:00,
2013-09-22 23:53:00,60.1,51.0,29.94,NE,34,0.0,0.0,72,0.00,,,0.00,WeatherDisplay:10.36,2013-09-23 04:53:00,
2013-09-22 23:54:00,60.1,51.0,29.94,NNE,33,0.0,0.0,72,0.00,,,0.00,WeatherDisplay:10.36,2013-09-23 04:54:00,
2013-09-22 23:55:00,60.1,51.0,29.94,NNE,33,0.0,0.0,72,0.00,,,0.00,WeatherDisplay:10.36,2013-09-23 04:55:00,
2013-09-22 23:56:00,60.1,51.0,29.94,NNE,33,0.0,0.0,72,0.00,,,0.00,WeatherDisplay:10.36,2013-09-23 04:56:00,
2013-09-22 23:58:00,60.1,51.4,29.94,NE,34,0.0,0.0,73,0.00,,,0.00,WeatherDisplay:10.36,2013-09-23 04:58:00,
2013-09-22 23:59:00,60.1,51.4,29.94,NE,34,0.0,0.0,73,0.00,,,0.00,WeatherDisplay:10.36,2013-09-23 04:59:00,